[[{"header":{"parameterUnit":"m.s-1","parameterCategory":1,"la1":30.6,"la2":29.2853,"lo1":-89.7004,"lo2":-87.6739,"dy":0.0162,"dx":0.0183,"nx":112,"ny":82,"refTime":"2023-03-25T12:00:00:Z","depth":0,"parameterNumber":2,"parameterNumberName":"U-component_of_WINDS"},"data":[0.0,0.0,0.0,0.0,0.0,0.0,0.0,0.0,0.0,0.0,0.0,0.0,0.0,0.0,0.0,0.0,0.0,0.0,0.0,0.0,0.0,0.0,0.0,0.0,0.0,0.0,0.0,0.0,0.0,0.0,0.0,0.0,0.0,0.0,0.0,0.0,0.0,0.0,0.0,0.0,0.0,0.0,0.0,0.0,0.0,0.0,0.0,0.0,0.0,0.0,0.0,0.0,0.0,0.0,0.0,0.0,0.0,0.0,0.0,0.0,0.0,0.0,0.0,0.0,0.0,0.0,0.0,0.0,0.0,0.0,0.0,0.0,0.0,0.0,0.0,0.0,0.0,0.0,0.0,0.0,0.0,0.0,0.0,0.0,0.0,0.0,0.0,0.0,0.0,0.0,-3.518,-3.6731,-4.0007,-4.177,-4.102,-4.1425,-4.1824,-4.2072,0.0,0.0,0.0,0.0,0.0,0.0,0.0,0.0,0.0,0.0,0.0,0.0,0.0,0.0,0.0,0.0,0.0,0.0,0.0,0.0,0.0,0.0,0.0,0.0,0.0,0.0,0.0,0.0,0.0,0.0,0.0,0.0,0.0,0.0,0.0,0.0,0.0,0.0,0.0,0.0,0.0,0.0,0.0,0.0,0.0,0.0,0.0,0.0,0.0,0.0,0.0,0.0,0.0,0.0,0.0,0.0,0.0,0.0,0.0,0.0,0.0,0.0,0.0,0.0,0.0,0.0,0.0,0.0,0.0,0.0,0.0,0.0,0.0,0.0,0.0,0.0,0.0,0.0,0.0,0.0,0.0,0.0,0.0,0.0,0.0,0.0,0.0,0.0,0.0,0.0,0.0,0.0,0.0,0.0,0.0,0.0,0.0,0.0,0.0,0.0,0.0,0.0,0.0,0.0,-3.6699,-3.77,-4.0333,-4.1665,-4.0823,-4.0274,-4.0565,-4.1933,0.0,0.0,0.0,0.0,0.0,0.0,0.0,0.0,0.0,0.0,0.0,0.0,0.0,0.0,0.0,0.0,0.0,0.0,0.0,0.0,0.0,0.0,0.0,0.0,0.0,0.0,0.0,0.0,0.0,0.0,0.0,0.0,0.0,0.0,0.0,0.0,0.0,0.0,0.0,0.0,0.0,0.0,0.0,0.0,0.0,0.0,0.0,0.0,0.0,0.0,0.0,0.0,0.0,0.0,0.0,0.0,0.0,0.0,0.0,0.0,0.0,0.0,0.0,0.0,0.0,0.0,0.0,0.0,0.0,0.0,0.0,0.0,0.0,0.0,0.0,0.0,0.0,0.0,0.0,0.0,0.0,0.0,0.0,0.0,0.0,0.0,0.0,0.0,0.0,0.0,0.0,0.0,0.0,0.0,0.0,0.0,0.0,0.0,0.0,0.0,0.0,0.0,0.0,-3.6822,-3.7219,-3.8565,-3.9844,-4.0244,-3.9362,-3.8583,-3.9034,-4.115,-4.1538,0.0,0.0,0.0,0.0,0.0,0.0,0.0,0.0,0.0,0.0,0.0,0.0,0.0,0.0,0.0,0.0,0.0,0.0,0.0,0.0,0.0,0.0,0.0,0.0,0.0,0.0,0.0,0.0,0.0,0.0,0.0,0.0,0.0,0.0,0.0,0.0,0.0,0.0,0.0,0.0,0.0,0.0,0.0,0.0,0.0,0.0,0.0,0.0,0.0,0.0,0.0,0.0,0.0,0.0,0.0,0.0,0.0,0.0,0.0,0.0,0.0,0.0,0.0,0.0,0.0,0.0,0.0,0.0,0.0,0.0,0.0,0.0,0.0,0.0,0.0,0.0,0.0,0.0,0.0,0.0,0.0,0.0,0.0,0.0,0.0,0.0,0.0,0.0,0.0,0.0,0.0,0.0,0.0,0.0,0.0,0.0,0.0,0.0,0.0,0.0,0.0,0.0,-3.6892,-3.6776,-3.8488,-3.911,-3.8947,-3.7852,-3.7212,-3.7941,-4.0488,-4.0564,0.0,0.0,0.0,0.0,0.0,0.0,0.0,0.0,0.0,0.0,0.0,0.0,0.0,0.0,0.0,0.0,0.0,0.0,0.0,0.0,0.0,0.0,0.0,0.0,0.0,0.0,0.0,0.0,0.0,0.0,0.0,0.0,0.0,0.0,0.0,0.0,0.0,0.0,0.0,0.0,0.0,0.0,0.0,0.0,0.0,0.0,0.0,0.0,0.0,0.0,0.0,0.0,0.0,0.0,0.0,0.0,0.0,0.0,0.0,0.0,0.0,0.0,0.0,0.0,0.0,0.0,0.0,0.0,0.0,0.0,0.0,0.0,0.0,0.0,0.0,0.0,0.0,0.0,0.0,0.0,0.0,0.0,0.0,0.0,0.0,0.0,0.0,0.0,0.0,0.0,0.0,0.0,0.0,0.0,0.0,0.0,0.0,0.0,0.0,0.0,0.0,0.0,-3.5872,-3.5026,-3.6692,-3.8349,-3.8626,-3.6944,-3.6752,-3.7798,-4.0339,-4.0504,0.0,0.0,0.0,0.0,0.0,0.0,0.0,0.0,0.0,0.0,0.0,0.0,0.0,0.0,0.0,0.0,0.0,0.0,0.0,0.0,0.0,0.0,0.0,0.0,0.0,0.0,0.0,0.0,0.0,0.0,0.0,0.0,0.0,0.0,0.0,0.0,0.0,0.0,0.0,0.0,0.0,0.0,0.0,0.0,0.0,0.0,0.0,0.0,0.0,0.0,0.0,0.0,0.0,0.0,0.0,0.0,0.0,0.0,0.0,0.0,0.0,0.0,0.0,0.0,0.0,0.0,0.0,0.0,0.0,0.0,0.0,0.0,0.0,0.0,0.0,0.0,0.0,0.0,0.0,0.0,0.0,0.0,0.0,0.0,0.0,0.0,0.0,0.0,0.0,0.0,0.0,0.0,0.0,0.0,0.0,0.0,0.0,0.0,0.0,0.0,0.0,0.0,-3.7026,-3.6219,0.0,-3.7603,-3.7411,-3.675,-3.6231,-3.7046,-3.9592,0.0,0.0,0.0,0.0,0.0,0.0,0.0,0.0,0.0,0.0,0.0,0.0,0.0,0.0,0.0,0.0,0.0,0.0,0.0,0.0,0.0,0.0,0.0,0.0,0.0,0.0,0.0,0.0,0.0,0.0,0.0,0.0,0.0,0.0,0.0,0.0,0.0,0.0,0.0,0.0,0.0,0.0,0.0,0.0,0.0,0.0,0.0,0.0,0.0,0.0,0.0,0.0,0.0,0.0,0.0,0.0,0.0,0.0,0.0,0.0,0.0,0.0,0.0,0.0,0.0,0.0,0.0,0.0,0.0,0.0,0.0,0.0,0.0,0.0,0.0,0.0,0.0,0.0,0.0,0.0,0.0,0.0,0.0,0.0,0.0,0.0,0.0,0.0,0.0,0.0,0.0,0.0,0.0,0.0,0.0,0.0,0.0,0.0,0.0,0.0,0.0,0.0,-3.8282,-3.6969,-3.6122,0.0,-3.6738,-3.6596,-3.6346,-3.5827,-3.6584,-3.915,0.0,0.0,0.0,0.0,0.0,0.0,0.0,0.0,0.0,0.0,0.0,0.0,0.0,0.0,0.0,0.0,0.0,0.0,0.0,0.0,0.0,0.0,0.0,0.0,0.0,0.0,0.0,0.0,0.0,0.0,0.0,0.0,0.0,0.0,0.0,0.0,0.0,0.0,0.0,0.0,0.0,0.0,0.0,0.0,0.0,0.0,0.0,0.0,0.0,0.0,0.0,0.0,0.0,0.0,0.0,0.0,0.0,0.0,0.0,0.0,0.0,0.0,0.0,0.0,0.0,0.0,0.0,0.0,0.0,0.0,0.0,0.0,0.0,0.0,0.0,0.0,0.0,0.0,0.0,0.0,0.0,0.0,0.0,0.0,0.0,0.0,0.0,0.0,0.0,0.0,0.0,0.0,0.0,0.0,0.0,0.0,0.0,0.0,0.0,0.0,0.0,0.0,-3.6526,-3.5238,-3.4205,-3.4205,-3.5699,-3.6365,-3.5577,-3.55,-3.6584,0.0,0.0,0.0,0.0,0.0,0.0,0.0,0.0,0.0,0.0,0.0,0.0,0.0,0.0,0.0,0.0,0.0,0.0,0.0,0.0,0.0,0.0,0.0,0.0,0.0,0.0,0.0,0.0,0.0,0.0,0.0,0.0,0.0,0.0,0.0,0.0,0.0,0.0,0.0,0.0,0.0,0.0,0.0,0.0,0.0,0.0,0.0,0.0,0.0,0.0,0.0,0.0,0.0,0.0,0.0,0.0,0.0,0.0,0.0,0.0,0.0,0.0,0.0,0.0,0.0,0.0,0.0,0.0,0.0,0.0,0.0,0.0,0.0,0.0,0.0,0.0,0.0,0.0,0.0,0.0,0.0,0.0,0.0,0.0,0.0,0.0,0.0,0.0,0.0,0.0,0.0,0.0,0.0,0.0,0.0,0.0,0.0,0.0,0.0,0.0,0.0,0.0,0.0,-3.7451,-3.5622,-3.443,-3.5045,-3.5558,-3.575,-3.5519,-3.55,-3.6584,-3.915,0.0,0.0,0.0,0.0,0.0,0.0,0.0,0.0,0.0,0.0,0.0,0.0,0.0,0.0,0.0,0.0,0.0,0.0,0.0,0.0,0.0,0.0,0.0,0.0,0.0,0.0,0.0,0.0,0.0,0.0,0.0,0.0,0.0,0.0,0.0,0.0,0.0,0.0,0.0,0.0,0.0,0.0,0.0,0.0,0.0,0.0,0.0,0.0,0.0,0.0,0.0,0.0,0.0,0.0,0.0,0.0,0.0,0.0,0.0,0.0,0.0,0.0,0.0,0.0,0.0,0.0,0.0,0.0,0.0,0.0,0.0,0.0,0.0,0.0,0.0,0.0,0.0,0.0,0.0,0.0,0.0,0.0,0.0,0.0,0.0,0.0,0.0,0.0,0.0,0.0,0.0,0.0,0.0,0.0,0.0,0.0,0.0,0.0,0.0,0.0,0.0,0.0,-3.7843,-3.5776,-3.4398,-3.493,-3.5288,-3.5635,-3.5942,-3.5981,-3.6769,-3.8661,0.0,0.0,0.0,0.0,0.0,0.0,0.0,0.0,0.0,0.0,0.0,0.0,0.0,0.0,0.0,0.0,0.0,0.0,0.0,0.0,0.0,0.0,0.0,0.0,0.0,0.0,0.0,0.0,0.0,0.0,0.0,0.0,0.0,0.0,0.0,0.0,0.0,0.0,0.0,0.0,0.0,0.0,0.0,0.0,0.0,0.0,0.0,0.0,0.0,0.0,0.0,0.0,0.0,0.0,0.0,0.0,0.0,0.0,0.0,0.0,0.0,0.0,0.0,0.0,0.0,0.0,0.0,0.0,0.0,0.0,0.0,0.0,0.0,0.0,0.0,0.0,0.0,0.0,0.0,0.0,0.0,0.0,0.0,0.0,0.0,0.0,0.0,0.0,0.0,0.0,0.0,0.0,0.0,0.0,0.0,0.0,0.0,0.0,0.0,0.0,0.0,0.0,-3.7985,-3.5892,-3.4359,-3.4417,-3.5141,-3.5942,-3.675,-3.6827,-3.7199,-3.8065,0.0,0.0,0.0,0.0,0.0,0.0,0.0,0.0,0.0,0.0,0.0,0.0,0.0,0.0,0.0,0.0,0.0,0.0,0.0,0.0,0.0,0.0,0.0,0.0,0.0,0.0,0.0,0.0,0.0,0.0,0.0,0.0,0.0,0.0,0.0,0.0,0.0,0.0,0.0,0.0,0.0,0.0,0.0,0.0,0.0,0.0,0.0,0.0,0.0,0.0,0.0,0.0,0.0,0.0,0.0,0.0,0.0,0.0,0.0,0.0,-3.9723,0.0,0.0,0.0,0.0,0.0,0.0,0.0,0.0,0.0,0.0,0.0,0.0,0.0,0.0,0.0,0.0,0.0,0.0,0.0,0.0,0.0,0.0,0.0,0.0,0.0,0.0,0.0,0.0,0.0,0.0,0.0,0.0,0.0,0.0,0.0,0.0,0.0,0.0,0.0,0.0,0.0,-3.8988,-3.6796,-3.5462,-3.6103,-3.6327,-3.6788,-3.7642,-3.7719,-3.8084,-3.8977,-3.8546,0.0,0.0,0.0,0.0,0.0,0.0,0.0,0.0,0.0,0.0,0.0,0.0,0.0,0.0,0.0,0.0,0.0,0.0,0.0,0.0,0.0,0.0,0.0,0.0,0.0,0.0,0.0,0.0,0.0,0.0,0.0,0.0,0.0,0.0,0.0,0.0,0.0,0.0,0.0,0.0,0.0,0.0,0.0,0.0,0.0,0.0,0.0,0.0,0.0,0.0,0.0,0.0,0.0,0.0,0.0,0.0,0.0,0.0,0.0,0.0,-3.9854,0.0,0.0,0.0,0.0,0.0,0.0,0.0,0.0,0.0,0.0,0.0,0.0,0.0,0.0,0.0,0.0,0.0,0.0,0.0,0.0,0.0,0.0,0.0,0.0,0.0,0.0,0.0,0.0,0.0,0.0,0.0,0.0,0.0,0.0,0.0,0.0,0.0,0.0,0.0,0.0,-4.0392,-3.7911,-3.6404,-3.7238,-3.7315,-3.768,-3.8546,-3.8623,-3.8815,-3.9265,-3.9246,0.0,0.0,0.0,0.0,0.0,0.0,0.0,0.0,0.0,0.0,0.0,0.0,0.0,0.0,0.0,0.0,0.0,0.0,0.0,0.0,0.0,0.0,0.0,0.0,0.0,0.0,0.0,0.0,0.0,0.0,0.0,0.0,0.0,0.0,0.0,0.0,0.0,0.0,0.0,0.0,0.0,0.0,0.0,0.0,0.0,0.0,0.0,0.0,0.0,0.0,0.0,0.0,0.0,-4.4748,-4.5133,-4.5364,-4.5229,-4.4355,-4.2874,-4.1535,-3.9854,-3.8365,0.0,0.0,0.0,0.0,0.0,0.0,0.0,0.0,0.0,0.0,0.0,0.0,0.0,0.0,0.0,0.0,0.0,0.0,0.0,0.0,0.0,0.0,0.0,0.0,0.0,-4.3028,-4.222,0.0,0.0,0.0,0.0,0.0,0.0,0.0,0.0,0.0,0.0,0.0,0.0,-4.1412,-3.8854,-3.7257,-3.8123,-3.8238,-3.8565,-3.9438,-3.9515,-3.9457,-3.9304,-3.9919,-4.0054,0.0,0.0,0.0,0.0,0.0,0.0,0.0,0.0,0.0,0.0,0.0,0.0,0.0,0.0,0.0,0.0,0.0,0.0,0.0,0.0,0.0,0.0,0.0,0.0,0.0,0.0,0.0,0.0,0.0,0.0,0.0,0.0,-4.1123,-4.1893,0.0,0.0,0.0,0.0,0.0,0.0,0.0,0.0,0.0,0.0,0.0,0.0,0.0,-4.4643,-4.5364,-4.4759,-4.4778,-4.5344,-4.3517,-4.3286,-4.4451,-4.3739,-4.3008,-4.2343,-4.2624,0.0,-4.1593,-4.2189,0.0,0.0,0.0,0.0,0.0,0.0,0.0,0.0,0.0,0.0,0.0,0.0,0.0,0.0,0.0,0.0,0.0,0.0,0.0,0.0,0.0,0.0,-4.3989,-4.3393,-4.3085,-4.297,0.0,-4.3181,-4.3258,-4.3258,-4.3355,0.0,0.0,0.0,0.0,0.0,0.0,0.0,-4.0746,-3.9008,-3.8161,-3.9034,-3.913,-3.9457,-4.0265,-4.0342,-4.0035,-3.9342,-3.94,-3.9727,-4.0323,-4.0439,0.0,0.0,0.0,0.0,0.0,0.0,0.0,0.0,0.0,0.0,0.0,0.0,0.0,0.0,0.0,0.0,0.0,0.0,0.0,0.0,0.0,0.0,0.0,0.0,0.0,0.0,0.0,0.0,0.0,-4.2835,-4.2604,-4.2547,-4.3278,-4.4105,0.0,0.0,0.0,0.0,0.0,0.0,0.0,0.0,0.0,-4.5056,-4.5509,-4.5701,-4.5594,-4.5701,-4.5951,-4.6317,-4.5778,-4.5836,-4.6413,-4.5759,-4.5325,-4.5056,-4.4671,-4.4363,-4.4036,-4.3085,-4.2728,-4.292,0.0,0.0,0.0,0.0,-4.5594,-4.5594,-4.5594,-4.5594,0.0,0.0,0.0,0.0,0.0,0.0,0.0,0.0,0.0,0.0,0.0,0.0,0.0,-4.397,-4.3778,-4.3778,-4.3778,-4.3412,-4.3104,0.0,-4.347,-4.3893,-4.4239,0.0,0.0,0.0,0.0,-4.1104,-4.1219,-3.9777,-3.9046,-3.99,-3.9977,-4.0112,-4.0477,-4.0496,-4.0342,-3.9996,-3.9977,-4.0131,-4.0496,-4.0969,-4.1758,0.0,0.0,0.0,0.0,0.0,0.0,0.0,0.0,0.0,0.0,0.0,0.0,0.0,0.0,0.0,0.0,0.0,0.0,0.0,0.0,0.0,0.0,0.0,0.0,0.0,0.0,0.0,0.0,-4.347,-4.3517,-4.2854,-4.3297,-4.3989,0.0,0.0,0.0,0.0,0.0,0.0,-4.4643,-4.6067,-4.6605,-4.5951,-4.6567,-4.6701,-4.624,-4.6874,-4.7317,-4.7548,-4.7932,-4.8182,-4.8336,-4.8221,-4.7691,-4.6864,-4.6883,-4.6903,-4.6749,-4.4605,-4.297,-4.2055,-4.4613,-4.5594,-4.5652,-4.6075,-4.6518,-4.6863,-4.6576,-4.6287,-4.6056,-4.621,0.0,-4.5893,-4.5671,0.0,0.0,0.0,0.0,-4.546,-4.4797,-4.5114,-4.5441,-4.4778,-4.4624,-4.4624,-4.4624,-4.4162,-4.3605,0.0,-4.3585,-4.4066,-4.4259,0.0,0.0,0.0,0.0,-4.1066,-4.1712,-4.0527,-3.9919,-4.0739,-4.0631,-4.0496,-4.0496,-4.0496,-4.0496,-4.0496,-4.0496,-4.0593,-4.0816,-4.147,-4.2,-4.2431,0.0,0.0,0.0,0.0,0.0,0.0,0.0,0.0,0.0,0.0,0.0,0.0,0.0,0.0,0.0,0.0,0.0,0.0,0.0,0.0,0.0,0.0,0.0,0.0,0.0,0.0,0.0,0.0,0.0,-4.1893,-4.1904,0.0,0.0,0.0,0.0,-4.4297,-4.5836,-4.6413,-4.5575,-4.6394,-4.6885,-4.6836,-4.6885,-4.7259,-4.7971,-4.8029,-4.8471,-4.926,-4.849,-4.8394,-4.9,-5.0058,-4.8769,-4.5864,-4.9057,-5.0442,-5.0192,-4.6845,-4.5421,-4.5364,-4.5537,-4.5594,-4.5787,-4.7394,-4.9018,-5.0287,-4.9201,-4.8115,-4.7307,-4.7817,-4.7471,-4.6682,-4.5845,-4.5594,0.0,0.0,-4.5594,-4.5594,-4.5556,-4.5575,-4.5594,-4.5556,-4.5537,-4.5537,-4.5537,-4.5498,-4.4998,0.0,-4.3124,-4.3393,-4.4162,0.0,-4.3104,-4.3143,-4.2354,-4.175,-4.1788,-4.0989,-4.0758,-4.1643,-4.0989,-4.0496,-4.0496,-4.0496,-4.0496,-4.0496,-4.0496,-4.0873,-4.1692,-4.1769,-4.2547,-4.4143,-4.4259,0.0,0.0,0.0,0.0,0.0,0.0,0.0,0.0,0.0,0.0,0.0,0.0,0.0,0.0,0.0,0.0,0.0,0.0,0.0,0.0,0.0,0.0,0.0,0.0,0.0,0.0,0.0,0.0,-4.405,-4.3756,0.0,-4.4624,-4.4979,-4.5374,-4.5932,-4.6547,-4.724,-4.799,-4.8875,-4.9586,-5.0096,-5.0654,-5.0818,-5.0538,-5.0538,-5.0452,-5.0231,-4.9913,-4.9894,-5.0115,-5.0519,-5.0038,-4.8961,-5.0173,-5.0712,-5.0616,-4.9384,-4.7595,-4.5594,-4.5594,-4.5594,-4.5671,-4.6259,-4.7345,-4.8499,-4.8432,-4.745,-4.6249,-4.6432,-4.6297,-4.6009,-4.5691,-4.5594,-4.5594,-4.5594,-4.5594,-4.5594,-4.5594,-4.5594,-4.5594,-4.5594,-4.5594,-4.5594,-4.5594,-4.5594,-4.5421,-4.4825,-4.4259,-4.3951,-4.4239,-4.3624,-4.3278,-4.3797,-4.3162,-4.2643,-4.2643,-4.2374,-4.2297,-4.2604,-4.2354,-4.2162,-4.2162,-4.2162,-4.2162,-4.2162,-4.2162,-4.2316,-4.2624,-4.2643,-4.2912,-4.3528,-4.4047,-4.4451,0.0,0.0,0.0,0.0,0.0,0.0,0.0,0.0,0.0,0.0,0.0,0.0,0.0,0.0,0.0,0.0,0.0,0.0,0.0,0.0,0.0,0.0,0.0,0.0,0.0,0.0,-4.3421,-4.5879,-4.5323,-4.5086,-4.5951,-4.6278,-4.6682,-4.7259,-4.8096,-4.9058,-5.0183,-5.1068,-5.1798,-5.2308,-5.2895,-5.2933,-5.2327,-5.2038,-5.1615,-5.1106,-5.0827,-5.0712,-5.0712,-5.0712,-5.0712,-5.0712,-5.0712,-5.0712,-5.0712,-5.0712,-4.9365,-4.7287,-4.6903,-4.6624,-4.6472,-4.6778,-4.7548,-4.8404,-4.8172,-4.7191,-4.599,-4.571,-4.5594,-4.5594,-4.5594,-4.5594,-4.5594,-4.5594,-4.5594,-4.5594,-4.5594,-4.5594,-4.5594,-4.5594,-4.5594,-4.5594,-4.5594,-4.5594,-4.5594,-4.5594,-4.5133,-4.4739,-4.4739,-4.4047,-4.3682,-4.422,-4.3624,-4.3201,-4.347,-4.3278,-4.3201,-4.347,-4.3258,-4.3104,-4.3104,-4.3104,-4.3104,-4.3104,-4.3104,-4.322,-4.3489,-4.3508,-4.3643,-4.3932,-4.447,-4.4739,-4.4739,0.0,0.0,0.0,0.0,0.0,0.0,0.0,0.0,0.0,0.0,0.0,0.0,0.0,0.0,0.0,0.0,0.0,0.0,0.0,0.0,0.0,0.0,0.0,-4.2255,-4.322,-4.475,-4.7037,-4.6345,-4.6009,-4.6894,-4.7721,-4.8202,-4.8259,-5.0538,-5.1962,-5.2019,-5.2799,-5.326,-5.328,-5.328,-5.326,-5.3203,-5.2385,-5.1942,-5.1846,-5.1125,-5.077,-5.075,-5.0712,-5.0712,-5.0712,-5.0712,-5.0712,-5.0712,-5.0712,-5.0693,-5.0539,-4.9442,-4.8654,-4.827,-4.9087,-4.9894,-5.0346,-4.8644,-4.7528,-4.6721,-4.5874,-4.5594,-4.5594,-4.5594,-4.5594,-4.5594,-4.5594,-4.5594,-4.5594,-4.5594,-4.5594,-4.5594,-4.5594,-4.5594,-4.5594,-4.5594,-4.5594,-4.5594,-4.5594,-4.5594,-4.5594,-4.5594,-4.4893,-4.4335,-4.4335,-4.3682,0.0,-4.4239,-4.3662,-4.347,-4.4259,-4.3662,-4.3201,-4.3181,-4.3201,-4.3201,-4.3181,-4.3181,-4.3528,-4.4316,-4.4335,-4.4739,-4.5575,-4.5594,-4.5594,-4.5594,0.0,0.0,0.0,0.0,0.0,0.0,0.0,0.0,0.0,0.0,0.0,0.0,0.0,0.0,0.0,0.0,0.0,0.0,0.0,0.0,0.0,0.0,-4.3657,-4.3453,-4.3871,-4.4968,-4.7052,-4.7363,-4.7759,-4.8625,-4.9471,-5.0491,-5.1722,-5.2452,-5.3376,-5.4587,-5.4337,-5.4414,-5.4991,-5.5011,-5.4434,-5.3222,-5.3587,-5.2856,-5.1029,-5.2049,-5.2183,-5.1548,-5.0971,-5.0712,-5.0712,-5.0712,-5.0712,-5.0712,-5.0712,-5.0212,-4.9442,-4.9115,-4.9404,-4.9913,-4.9327,-4.8741,-4.8134,-4.7471,-4.6663,-4.5913,-4.5691,-4.5594,-4.5594,-4.5594,-4.5594,-4.5594,-4.5594,-4.5594,-4.5594,-4.5594,-4.5594,-4.5594,-4.5594,-4.5594,-4.5594,-4.5594,-4.5594,-4.5594,-4.5594,-4.5594,-4.5594,-4.5594,-4.5402,-4.5248,-4.5248,-4.5056,0.0,-4.521,-4.5056,-4.4998,-4.5229,-4.5605,-4.5605,-4.4979,-4.549,-4.5586,-4.496,-4.4921,-4.5017,-4.5229,-4.5248,-4.5364,-4.5594,-4.5594,-4.5594,0.0,0.0,0.0,0.0,0.0,0.0,0.0,0.0,0.0,0.0,0.0,0.0,0.0,0.0,0.0,0.0,0.0,0.0,0.0,0.0,0.0,0.0,-4.5338,-4.6133,-4.5717,-4.5498,-4.6392,-4.9122,-4.9288,-4.9663,-5.0875,-5.1779,-5.2702,-5.3664,-5.4068,-5.4664,-5.5645,-5.5261,-5.5222,-5.5684,-5.5703,-5.5222,-5.426,-5.4414,-5.376,-5.2299,-5.2914,-5.2933,-5.2442,-5.2183,-5.1587,0.0,-5.1202,-5.1135,-5.0712,-5.0712,-5.0308,0.0,0.0,0.0,0.0,0.0,-4.9058,-4.8163,-4.8009,-4.7375,-4.6644,-4.6644,-4.6413,-4.6144,-4.6144,-4.5893,-4.5594,-4.5594,-4.5594,-4.5594,-4.5594,-4.5594,-4.5594,-4.5594,-4.5594,-4.5594,-4.5594,-4.5594,-4.5594,-4.5594,-4.5594,0.0,-4.5594,-4.5594,-4.5594,-4.5594,-4.5594,-4.5594,-4.5594,-4.5594,-4.5594,-4.5594,-4.6047,-4.6144,-4.5633,-4.6067,0.0,0.0,0.0,-4.5594,-4.5594,-4.5594,0.0,0.0,0.0,-4.5594,-4.5594,0.0,0.0,0.0,-4.5768,-4.5594,0.0,0.0,0.0,0.0,0.0,0.0,0.0,0.0,0.0,0.0,0.0,0.0,0.0,0.0,0.0,0.0,-4.7653,-4.8913,-4.8586,-4.8009,-4.8788,-5.1982,-5.153,-5.1606,-5.3183,-5.4049,-5.4587,-5.4761,-5.5434,-5.5838,-5.5838,0.0,0.0,0.0,0.0,-5.5665,-5.5568,-5.4953,-5.453,-5.4357,-5.376,-5.3433,-5.3356,-5.3799,-5.3,-5.1316,-5.2058,-5.1828,-5.0885,-5.075,-5.0712,-5.0712,-5.0712,-5.0231,-4.9635,-5.0414,-5.0144,-4.9394,-4.9394,0.0,0.0,-4.8105,-4.7625,-4.7038,-4.7038,-4.6432,-4.5748,-4.5748,-4.5691,-4.5594,-4.5594,-4.5594,-4.5594,-4.5594,-4.5594,-4.5594,-4.5594,-4.5594,-4.5594,-4.5594,-4.5594,-4.5594,-4.5594,-4.5594,-4.5594,-4.5594,-4.5594,-4.5594,-4.5594,-4.5594,-4.5594,-4.5594,0.0,0.0,-4.5614,-4.5691,-4.571,-4.5614,-4.5594,-4.5594,-4.5594,-4.5594,-4.5594,-4.5594,-4.5594,-4.5652,-4.5748,-4.6528,-4.6942,-4.7,-4.6144,-4.5748,0.0,0.0,0.0,0.0,0.0,0.0,0.0,0.0,0.0,0.0,0.0,0.0,0.0,0.0,0.0,-4.7403,-4.8576,-4.974,-5.0991,-5.1635,-5.1991,-5.1991,-5.2414,-5.3126,-5.4145,-5.4395,-5.5049,-5.6406,-5.6656,-5.6753,-5.6753,-5.6753,0.0,-5.5722,-5.5703,-5.5395,-5.4741,-5.5222,-5.478,-5.3472,0.0,0.0,-5.4241,-5.4077,-5.4269,-5.4664,-5.3068,-5.227,-5.2001,-5.1077,-5.0712,-5.0712,-5.0712,-5.0587,-5.0471,-5.0654,-5.0144,-4.9394,-4.9394,-4.8836,-4.8105,-4.8105,-4.799,-4.7875,-4.7875,-4.7298,0.0,-4.6644,-4.6144,-4.5594,-4.5594,-4.5594,-4.5594,-4.5594,-4.5594,-4.5594,-4.5594,-4.5594,-4.5594,-4.5594,-4.5594,-4.5594,-4.5594,-4.5594,-4.5594,-4.5594,-4.5594,-4.5594,-4.5594,-4.5594,-4.5594,-4.5594,-4.622,-4.6355,-4.5671,-4.624,-4.6355,-4.5633,-4.5594,-4.5594,-4.5594,-4.5594,-4.5594,-4.5594,-4.5594,-4.5951,-4.6644,-4.6817,-4.7231,-4.7855,-4.7028,-4.6644,0.0,0.0,0.0,0.0,0.0,0.0,0.0,0.0,0.0,0.0,0.0,-4.6855,0.0,0.0,-4.8556,-4.9798,-5.1097,-5.2232,-5.3087,-5.4299,-5.4626,-5.3356,-5.3587,-5.4184,-5.5011,-5.5491,-5.6099,-5.6945,-5.7396,-5.7646,-5.7646,-5.7646,-5.7242,-5.6387,-5.6349,-5.5953,-5.5107,-5.5491,-5.528,-5.4453,-5.5299,-5.5491,-5.5088,-5.4934,-5.5164,-5.5626,-5.4531,-5.3732,-5.3106,-5.1837,-5.1568,-5.1914,-5.1471,-5.1048,-5.0712,-5.0712,-5.0423,-5.0048,-5.0048,-4.976,-4.9394,-4.9394,-4.9106,-4.8759,-4.8759,-4.8163,-4.7509,-4.7509,-4.7182,-4.6855,-4.6855,-4.6855,-4.6855,-4.6855,-4.6855,-4.674,-4.6336,-4.624,-4.6124,-4.5691,-4.5594,-4.5594,-4.5594,-4.5594,-4.5594,-4.5594,-4.5594,-4.5594,-4.5594,-4.5594,-4.5594,-4.5594,-4.599,-4.6067,-4.5633,-4.599,-4.6067,-4.5633,-4.5594,-4.5594,-4.5594,-4.5594,-4.5594,-4.5594,-4.6028,-4.6471,-4.6904,-4.774,-4.8355,-4.874,-4.8336,-4.7913,0.0,0.0,0.0,0.0,0.0,0.0,0.0,0.0,-4.6471,-4.724,-4.8048,-4.8779,-4.9298,-5.024,-5.126,-5.2231,-5.3703,-5.4838,-5.5184,-5.6395,-5.6703,-5.5164,-5.4838,-5.4991,-5.5645,-5.6349,-5.6887,-5.7234,-5.7896,-5.8377,-5.8531,-5.8531,-5.8146,-5.7291,-5.7253,-5.683,-5.5953,-5.6002,-5.5925,-5.5703,-5.5703,-5.5703,-5.5703,-5.5703,-5.5703,-5.5684,-5.5532,-5.4848,-5.3769,-5.2615,-5.2558,-5.3126,-5.2423,-5.176,-5.1164,-5.0991,-5.0933,-5.0914,-5.075,-5.0712,-5.0712,-5.0712,-5.0221,-4.9644,-4.9644,-4.9048,-4.8355,-4.8355,-4.824,-4.8105,-4.8105,-4.8105,-4.8105,-4.8105,-4.8105,-4.7932,-4.7269,-4.7135,-4.6932,-4.622,-4.6095,-4.6095,-4.6095,-4.6095,-4.5979,-4.5652,-4.5594,-4.5594,-4.5594,-4.5594,-4.5594,-4.5594,-4.5748,-4.5922,-4.6075,-4.5941,-4.5922,-4.6075,-4.6095,-4.6095,-4.6095,-4.6095,-4.6095,-4.6095,-4.6778,-4.7221,-4.7394,-4.874,-4.949,-4.9644,-4.9471,-4.9029,-4.8535,-4.7508,-4.6216,-4.6128,-4.5227,-4.5021,0.0,0.0,-4.8712,-4.9048,-4.9798,-5.0212,-4.951,-5.0702,-5.2288,-5.3933,-5.497,-5.6113,-5.7654,-5.805,-5.78,-5.683,-5.603,-5.5588,-5.5684,-5.578,-5.6492,-5.805,-5.8242,-5.8607,-5.9338,-5.9377,-5.8992,-5.8184,-5.8146,-5.7742,-5.6868,-5.708,-5.6695,-5.5703,-5.5703,-5.5703,-5.5703,-5.5703,-5.5703,-5.5665,-5.4934,-5.4126,-5.328,-5.3126,-5.3106,-5.3203,-5.3087,-5.301,-5.2837,-5.2038,-5.1769,-5.1654,-5.0952,-5.0712,-5.0712,-5.0712,-5.0635,-5.0558,-5.0558,-4.9952,-4.924,-4.924,-4.8702,-4.8105,-4.8105,-4.8105,-4.8105,-4.8105,-4.8105,-4.8086,-4.799,-4.7971,-4.7952,-4.7836,-4.7817,-4.7817,-4.7817,-4.7817,-4.7317,-4.5825,-4.5594,-4.5594,-4.5594,-4.5594,-4.5594,-4.5594,-4.6297,-4.7048,-4.7759,-4.7182,-4.7067,-4.7778,-4.7817,-4.7817,-4.7817,-4.7817,-4.7817,-4.7817,-4.7913,-4.8355,-4.9125,-4.9317,-4.9798,-5.0539,-4.976,-4.9356,-4.6313,-4.61,-4.6153,-4.6933,-4.7507,-4.8345,-5.0173,-5.0789,-5.0952,-5.0875,-5.1548,-5.2202,-5.2337,-5.3318,-5.4511,0.0,-5.6654,-5.747,-5.8204,-5.83,-5.78,-5.6395,-5.5915,-5.5703,-5.5703,-5.6626,-5.73,-5.753,-5.8915,-5.9685,-5.9511,-5.9973,-5.9877,-5.9031,-5.9011,-5.8607,-5.7761,-5.753,-5.7088,-5.6464,-5.6973,-5.703,-5.6676,-5.6,-5.5692,-5.5684,-5.5338,-5.4991,-5.4626,-5.4145,-5.4222,-5.4607,-5.4145,-5.4241,-5.4491,-5.3145,-5.2654,-5.2549,-5.1702,-5.1395,-5.1318,-5.0837,-5.0712,-5.0712,-5.0712,-5.0462,-5.0173,-5.0173,-4.9894,-4.9606,-4.9606,-4.9606,-4.9606,-4.9606,-4.9606,-4.9471,-4.8971,-4.8856,-4.8702,-4.8202,-4.8105,-4.8105,-4.8105,-4.8105,-4.7855,-4.7163,-4.6663,-4.6355,-4.6355,-4.6355,-4.6547,-4.699,-4.7375,-4.774,-4.8067,-4.7798,-4.774,-4.8086,-4.8105,-4.8105,-4.8105,-4.8105,-4.8105,-4.8105,-4.8606,-4.9048,-4.9394,-4.9913,-5.0346,-5.0693,-5.0327,-5.0173,-4.5357,-4.5758,-4.6709,-4.8147,-4.9856,-5.1482,-5.2704,-5.3388,-5.3686,-5.3356,-5.3433,-5.376,-5.4376,-5.4972,-5.5722,-5.683,-5.7723,-5.8473,-5.8915,-5.8781,-5.8088,-5.6588,-5.5992,-5.5703,-5.5703,-5.6838,-5.7415,-5.7041,-5.8934,-5.9935,-5.9511,-6.0319,-6.0512,-5.9877,-5.9858,-5.9454,-5.8646,-5.8442,-5.8088,-5.758,-5.8542,-5.8611,-5.7841,-5.6865,-5.6288,-5.6069,-5.6299,-5.628,-5.6011,-5.5434,-5.5395,-5.5645,-5.5049,-5.5184,-5.5549,-5.4337,-5.376,-5.3433,-5.2558,-5.225,-5.2154,-5.1587,-5.1221,-5.1068,-5.1318,-5.1077,-5.075,-5.0971,-5.0856,-5.0712,-5.0712,-5.0712,-5.0712,-5.0712,-5.0856,-5.0798,-4.9933,-4.9933,-4.9837,-4.8971,-4.8817,-4.8817,-4.8817,-4.8817,-4.874,-4.849,-4.7971,-4.7509,-4.725,-4.7231,-4.7548,-4.8375,-4.824,-4.8298,-4.8779,-4.8606,-4.8567,-4.8798,-4.8817,-4.8817,-4.8817,-4.8817,-4.8817,-4.8817,-4.9644,-4.9971,-4.976,-5.0606,-5.0914,-5.0712,-5.0712,-5.0827,-4.6891,-4.7048,-4.7393,-4.9125,-5.0952,-5.2713,-5.4107,-5.5889,-5.717,-5.6887,-5.5568,-5.4472,-5.4491,-5.4511,-5.5068,-5.6733,-5.7723,-5.8877,-6.0492,-5.9992,-5.9146,-5.8319,-5.6722,-5.5703,0.0,-5.5742,-5.6107,-5.6945,-5.7857,-5.8704,-5.9454,-6.0319,-6.0781,-6.0762,-6.0762,-6.0339,-5.9473,-6.0285,-6.0142,-5.9053,-6.0184,-6.0145,-5.9034,-5.8473,-5.7761,-5.7003,-5.7857,-5.7742,-5.6964,-5.6926,-5.6445,-5.5703,-5.5665,-5.5684,-5.5684,-5.5645,-5.5126,-5.4337,-5.3453,-5.3164,-5.3164,-5.3126,-5.2538,-5.2019,-5.2876,-5.1991,-5.0856,-5.1635,-5.1298,-5.0712,-5.0712,-5.0712,-5.0712,-5.0712,-5.1298,-5.1635,-5.0818,-5.1279,-5.1577,-5.0779,-5.0616,-5.0616,-5.0616,-5.0616,-5.0327,-4.949,-4.9336,-4.9029,-4.8182,-4.8067,-4.8394,-4.926,-4.8606,-4.8779,-5.0481,-4.9856,-4.9721,-5.0577,-5.0616,-5.0616,-5.0616,-5.0616,-5.0616,-5.0616,-5.1414,-5.1452,-5.0654,-5.1471,-5.1471,-5.0712,-5.0712,-5.1126,-4.7006,0.0,-4.9917,-5.1586,-5.2733,-5.4094,-5.6486,-5.7223,-5.7148,-5.631,-5.4799,-5.3453,-5.2876,-5.2769,-5.351,-5.5761,-5.6385,-5.7558,-6.0396,-6.0543,-5.9688,-5.791,-5.6511,0.0,0.0,0.0,0.0,-5.6926,-5.83,-5.9204,-5.9492,-6.0319,-6.08,-6.08,-6.08,-6.0666,-6.0358,-6.0658,-6.0612,-6.0238,-6.0035,-5.9746,-5.9369,-5.9184,-5.8646,-5.7877,-5.8165,-5.7819,-5.7003,-5.7003,-5.6503,-5.5703,-5.5703,-5.5703,-5.5703,-5.5703,-5.553,-5.5184,-5.4357,-5.4068,-5.3972,-5.3395,-5.301,-5.2818,-5.3106,-5.2818,-5.2414,-5.2702,-5.2145,-5.151,-5.151,-5.151,-5.151,-5.151,-5.2145,-5.2702,-5.2414,-5.2568,-5.251,-5.1664,-5.151,-5.1337,-5.0789,-5.0712,-5.0596,-5.0308,-4.976,-4.9298,-4.899,-4.9471,-4.9933,-5.0231,-4.999,-5.0048,-5.0654,-5.0914,-5.0952,-5.0731,-5.1202,-5.151,-5.151,-5.151,-5.177,-5.2357,-5.2626,-5.2636,-5.2356,-5.2049,-5.177,-5.1482,-5.0943,-5.1125,0.0,-5.0408,-5.2515,-5.4159,-5.5264,-5.6382,-5.7939,-5.7769,-5.6887,-5.5549,-5.3683,-5.2049,-5.1183,-5.075,-5.1433,-5.4087,-5.4423,-5.5846,-6.0188,-5.9746,-5.8726,-5.8083,-5.6646,-5.5297,0.0,0.0,0.0,-5.6926,-5.855,-5.9492,-5.9492,-6.0319,-6.08,-6.08,-6.08,-6.08,-6.08,-6.08,-6.0793,-6.0785,-6.0235,-5.98,-5.9511,-5.9819,-5.9511,-5.8742,-5.9069,-5.8531,-5.7453,-5.7453,-5.6761,-5.5703,-5.5703,-5.5703,-5.5703,-5.5703,-5.5703,-5.5626,-5.5107,-5.4934,-5.4838,-5.428,-5.3895,-5.3722,-5.401,-5.3683,-5.326,-5.3587,-5.3049,-5.2365,-5.2365,-5.2365,-5.2365,-5.2365,-5.3029,-5.3587,-5.328,-5.3433,-5.3414,-5.2519,-5.2115,-5.1731,-5.1221,-5.0894,-5.0712,-5.0712,-5.0221,-4.9856,-4.9856,-5.0346,-5.0712,-5.0712,-5.0952,-5.1125,-5.1125,-5.1895,-5.2145,-5.1625,-5.2087,-5.2365,-5.2365,-5.2365,-5.2636,-5.3195,-5.3512,-5.3501,-5.3203,-5.2943,-5.2665,-5.2348,-5.1828,-5.2049,-5.1346,-5.3337,-5.5098,-5.6716,-5.836,-5.9342,-5.8476,-5.7561,-5.6365,-5.4703,-5.2337,-5.0308,0.0,0.0,-4.899,-5.1837,-5.2183,-5.4098,-5.9818,-5.7929,-5.6722,0.0,0.0,0.0,0.0,0.0,0.0,-5.708,0.0,-5.9473,-5.9569,-6.0339,-6.08,-6.08,-6.08,-6.08,-6.08,-6.08,-6.08,-6.08,-6.08,-6.0358,-5.9588,-6.0416,-6.0339,-5.9608,-6.0435,-5.9877,-5.8357,-5.8357,-5.7338,-5.5761,-5.5761,-5.5742,-5.5703,-5.5703,-5.5703,-5.5703,-5.5703,-5.5703,-5.5703,-5.5703,-5.5184,-5.4703,-5.5472,-5.4587,-5.351,-5.4337,-5.3933,-5.328,-5.328,-5.328,-5.328,-5.328,-5.3933,-5.4337,-5.351,-5.3972,-5.4299,-5.3433,-5.2519,-5.1904,-5.1904,-5.1221,-5.0712,-5.0712,-5.0712,-5.0712,-5.0712,-5.0712,-5.0712,-5.0712,-5.1414,-5.1904,-5.1904,-5.2741,-5.326,-5.3203,-5.3241,-5.328,-5.328,-5.328,-5.329,-5.3329,-5.4136,-5.4145,-5.3337,-5.4124,-5.4066,-5.328,-5.3214,-5.3667,-5.3318,-5.5549,-5.7569,-5.8611,-5.9677,-6.0081,-5.863,-5.6472,-5.4344,-5.2865,-5.0548,-4.8509,0.0,0.0,0.0,-5.073,-5.3164,0.0,-5.7931,-5.8981,0.0,-5.8588,0.0,-5.8676,-5.9821,-5.9084,0.0,0.0,-5.8704,-5.9146,-6.0396,-6.0685,-6.08,-6.08,-6.08,-6.08,-6.08,-6.08,-6.08,-6.08,-6.08,-6.0685,-6.0473,-6.0704,-6.0685,-6.0473,-6.0704,-6.0185,-5.9184,-5.9184,-5.8204,-5.6676,-5.6676,-5.6272,-5.5703,-5.5703,-5.5703,-5.5703,-5.5703,-5.5703,-5.5703,-5.5703,-5.5549,-5.5434,-5.5645,-5.5395,-5.5107,-5.5318,-5.4799,-5.4164,-5.4164,-5.4164,-5.4164,-5.4164,-5.4799,-5.5318,-5.5107,-5.5241,-5.5145,-5.4337,-5.2953,-5.1904,-5.1904,-5.1221,-5.0712,-5.0712,-5.0712,-5.0712,-5.0712,-5.0712,-5.0712,-5.0712,-5.1414,-5.1904,-5.1904,-5.3299,-5.3895,-5.3241,-5.3818,-5.4164,-5.4164,-5.4164,-5.4453,-5.506,-5.5291,-5.528,-5.5049,-5.4684,-5.4395,-5.4163,-5.3491,-5.3674,-5.5799,-5.7742,-5.9511,-5.9965,-6.0158,-5.9696,-5.7621,-5.534,-5.3001,-5.0702,-4.8808,-4.7317,-4.649,-4.6047,-4.6395,0.0,0.0,0.0,-5.8272,-5.9119,-5.9331,0.0,-5.9338,0.0,-6.0696,-6.0015,-5.9654,0.0,-5.9646,-5.98,-6.0742,-6.08,-6.08,-6.08,-6.08,-6.08,-6.08,-6.08,-6.08,-6.08,-6.08,-6.08,-6.08,-6.08,-6.08,-6.08,0.0,-6.03,-5.9492,-5.9492,-5.8742,-5.7569,-5.7569,-5.7261,-5.678,-5.6415,-5.6511,-5.6722,-5.5972,-5.5953,-5.6214,-5.5818,-5.5703,-5.5703,-5.5703,-5.5703,-5.5703,-5.5703,-5.5376,-5.503,-5.503,-5.503,-5.503,-5.503,-5.5376,-5.5703,-5.5703,-5.5703,-5.5453,-5.4664,-5.3703,-5.2933,-5.2538,-5.1779,-5.1221,-5.1221,-5.0933,-5.0712,-5.0712,-5.0712,-5.0712,-5.0712,-5.176,-5.2462,-5.2462,-5.4049,-5.4818,-5.4337,-5.4761,-5.503,-5.503,-5.503,-5.5241,-5.5684,-5.5703,-5.5703,-5.5703,-5.5252,-5.503,-5.5009,-5.4519,-5.4558,-5.8396,-5.9858,-6.1108,-6.0993,-6.0235,-5.8803,-5.615,-5.4149,-5.1934,-4.8615,-4.7298,-4.6509,-4.5748,-4.4797,-4.4455,-4.5438,0.0,-5.1847,-5.9708,-5.9087,-5.8591,-6.055,-6.0139,-5.9965,-6.0723,-6.0135,-5.9988,-6.0742,-6.08,-6.08,-6.08,-6.08,-6.08,-6.08,-6.08,-6.08,-6.08,-6.08,-6.08,-6.08,-6.08,-6.08,-6.08,-6.08,-6.08,-6.08,0.0,0.0,-5.9665,-5.9665,-5.9184,-5.8473,-5.8473,-5.8396,-5.8204,-5.7453,-5.7646,-5.8069,-5.6434,-5.6368,-5.6868,-5.5972,-5.5703,-5.5703,-5.5703,-5.5703,-5.5703,-5.5703,-5.5703,-5.5703,-5.5703,-5.5703,-5.5703,-5.5703,-5.5703,-5.5703,-5.5703,-5.5703,-5.5491,-5.478,-5.4568,-5.426,-5.351,-5.2654,-5.2077,-5.2077,-5.1471,-5.1039,-5.1039,-5.0846,-5.0712,-5.0712,-5.2202,-5.3203,-5.3203,-5.4741,-5.5703,-5.5703,-5.5703,-5.5703,-5.5703,-5.5703,-5.5703,-5.5703,-5.5703,-5.5703,-5.5703,-5.5703,-5.5703,-5.5703,-5.5703,-5.5703,-6.0127,-6.1589,-6.2704,-6.2031,-6.0666,-5.8665,-5.5444,-5.2857,0.0,-4.7663,-4.6413,-4.5787,-4.5633,-4.5441,-4.5367,-4.5573,-5.0529,-5.5883,-6.0187,-6.0453,-6.0362,0.0,-6.0666,-6.0627,-6.0781,-6.0666,0.0,0.0,0.0,-6.08,-6.08,-6.08,-6.08,-6.08,-6.08,-6.08,-6.08,-6.08,-6.08,-6.08,-6.08,-6.08,-6.08,-6.08,-6.08,-6.08,-6.08,0.0,-6.0569,-6.0569,-6.0069,-5.93,-5.93,-5.8896,-5.828,-5.8127,-5.8165,-5.8146,-5.7137,-5.6868,-5.6868,-5.5972,-5.5703,-5.5703,-5.5703,-5.5703,-5.5703,-5.5703,-5.5703,-5.5703,-5.5703,-5.5703,-5.5703,-5.5703,-5.5703,-5.5703,-5.5703,-5.5703,-5.5665,-5.5511,-5.4953,-5.4453,-5.4299,-5.3549,-5.2972,-5.2972,-5.2856,-5.2779,-5.2779,-5.1548,-5.0712,-5.0712,-5.2202,-5.3203,-5.3203,-5.4741,-5.5703,-5.5703,-5.5703,-5.5703,-5.5703,-5.5703,-5.5703,-5.5703,-5.5703,-5.5703,-5.5703,-5.5703,-5.5703,-5.5703,-5.5703,-5.5703,-6.1358,-6.2704,-6.3666,-6.2397,-6.0127,-5.7434,-5.4491,0.0,0.0,-4.6663,-4.5893,-4.5594,-4.5594,-4.5594,-4.5607,-4.5601,-5.1289,-5.628,-5.7921,-5.9675,-6.0792,-6.0793,-6.08,-6.08,0.0,-6.08,0.0,0.0,0.0,-6.08,-6.08,-6.08,-6.08,-6.08,-6.08,-6.08,-6.08,-6.08,-6.08,-6.08,-6.08,-6.08,-6.08,-6.08,-6.08,-6.08,-6.08,0.0,-6.08,-6.08,-6.055,-6.0185,-6.0185,-5.9935,-5.955,-5.9088,-5.9204,-5.9415,-5.8127,-5.7953,-5.8165,-5.7319,-5.6434,-5.578,-5.6252,-5.6387,-5.6387,-5.6387,-5.6387,-5.6387,-5.6387,-5.6387,-5.6387,-5.6387,-5.6387,-5.6387,-5.6387,-5.6011,-5.5703,-5.5703,-5.5395,-5.5126,-5.5126,-5.4434,-5.3876,-5.3876,-5.3491,-5.3203,-5.3203,-5.2491,-5.1991,-5.1991,-5.3126,-5.3876,-5.3876,-5.4991,-5.5703,-5.5703,-5.5703,-5.5703,-5.5703,-5.5703,-5.5703,-5.5703,-5.5703,-5.5703,-5.5703,-5.5703,-5.5703,-5.5703,-5.5703,-5.5703,-6.2274,-6.3455,-6.4243,-6.2724,-5.9658,-5.6319,-5.3788,-5.0538,-4.7625,-4.5951,-4.5797,-4.5902,-4.5643,-4.5605,-4.5607,0.0,-5.0066,-5.3282,-5.2544,-5.7277,-6.0798,0.0,-6.0812,0.0,-6.08,-6.08,0.0,0.0,0.0,0.0,-6.08,-6.08,-6.08,-6.08,-6.08,-6.08,-6.08,-6.08,-6.08,-6.08,-6.08,-6.08,-6.08,-6.08,-6.08,-6.08,-6.08,0.0,0.0,-6.08,-6.08,-6.08,-6.08,-6.08,-6.0723,-6.0031,-6.0204,-6.0569,-5.9088,-5.8973,-5.9396,-5.8761,-5.7511,-5.6376,-5.708,-5.7291,-5.7291,-5.7291,-5.7291,-5.7291,-5.7291,-5.7291,-5.7291,-5.7291,-5.7291,-5.7291,-5.7291,-5.6742,-5.6261,-5.6261,-5.6261,-5.6203,-5.6011,-5.5453,-5.4972,-5.478,-5.4164,-5.3741,-5.3741,-5.3741,-5.3741,-5.3741,-5.4184,-5.4491,-5.4491,-5.5241,-5.5703,-5.5703,-5.5703,-5.578,-5.5962,-5.5972,-5.6069,-5.6261,-5.6272,-5.6252,-5.6252,-5.606,-5.5983,-5.5964,-5.5791,-5.5703,-6.2781,-6.3878,-6.4378,-6.3435,-6.0069,-5.6338,-5.3785,0.0,-4.7624,-4.5963,-4.6414,-4.6836,-4.5781,-4.5599,-4.5599,-4.561,-4.6118,-4.5429,-4.232,-5.2803,-6.0809,-6.0808,0.0,0.0,-6.08,0.0,0.0,0.0,0.0,0.0,-6.08,-6.08,-6.08,-6.08,-6.08,-6.08,-6.08,-6.08,-6.08,-6.08,-6.08,-6.08,-6.08,-6.08,-6.08,-6.08,-6.08,0.0,0.0,-6.08,-6.08,-6.08,-6.08,-6.08,-6.0781,-6.0704,-6.0723,-6.0666,-5.9723,-5.9435,-5.9492,-5.9415,-5.88,-5.8088,-5.8165,-5.8184,-5.8184,-5.8184,-5.8184,-5.8184,-5.8184,-5.8184,-5.8184,-5.8184,-5.8184,-5.8184,-5.8184,-5.8127,-5.8069,-5.8069,-5.8069,-5.7819,-5.7022,-5.683,-5.6503,-5.5703,-5.5511,-5.5472,-5.5472,-5.5472,-5.5472,-5.5472,-5.4895,-5.4491,-5.4491,-5.5241,-5.5703,-5.5703,-5.5703,-5.6058,-5.6862,-5.6874,-5.725,-5.8046,-5.8061,-5.8064,-5.8064,-5.7275,-5.6881,-5.6862,-5.606,-5.5703,-6.2108,-6.3955,-6.5051,-6.3647,-6.0127,-5.6472,-5.443,0.0,-4.7816,-4.6819,-4.7232,-4.7337,-4.5868,-4.5599,-4.5599,-4.5598,-4.5607,-4.512,-4.3761,-5.0018,-5.6991,-6.3133,-6.2055,0.0,0.0,0.0,0.0,0.0,0.0,0.0,-6.08,-6.08,-6.08,-6.08,-6.08,-6.08,-6.08,-6.08,-6.08,-6.08,-6.08,-6.08,-6.08,-6.08,-6.08,-6.08,-6.08,0.0,0.0,-6.08,-6.08,-6.08,-6.08,-6.08,-6.08,-6.08,-6.08,-6.0742,-6.0396,-6.0281,-6.0281,-6.0281,-6.0069,-5.9704,-5.9184,-5.9031,-5.9031,-5.9031,-5.9031,-5.9031,-5.9031,-5.9031,-5.9146,-5.9685,-5.9396,-5.9031,-5.9031,-5.8646,-5.83,-5.83,-5.83,-5.803,-5.7157,-5.7003,-5.6695,-5.5818,-5.5703,-5.5703,-5.5703,-5.5703,-5.5703,-5.5703,-5.5415,-5.5222,-5.5222,-5.5511,-5.5703,-5.5703,-5.5703,-5.5857,-5.6212,-5.6725,-5.7167,-5.7516,-5.8038,-5.83,-5.8292,-5.7437,-5.6994,-5.6983,-5.6118,-5.5703,-6.1177,-6.3031,-6.4089,-6.2878,-5.9558,-5.6192,0.0,0.0,-4.8259,-4.7876,-4.8366,-4.8519,-4.7337,-4.6281,-4.5599,-4.5587,-4.5603,-4.596,-4.6973,-4.8731,-5.3031,0.0,0.0,0.0,0.0,0.0,0.0,0.0,0.0,0.0,0.0,-6.08,-6.08,-6.08,-6.08,-6.08,-6.08,-6.08,-6.08,-6.08,-6.08,-6.0666,-6.0416,-6.0685,-6.0666,-6.0435,0.0,0.0,0.0,-6.08,-6.08,-6.08,-6.08,-6.08,-6.08,-6.08,-6.08,-6.08,-6.08,-6.08,-6.08,-6.08,-6.08,-6.0685,-6.0069,-5.9877,-5.9877,-5.9877,-5.9877,-5.9877,-5.9877,-5.9877,-6.0031,-6.0646,-6.0319,-5.9877,-5.9877,-5.9435,-5.905,-5.905,-5.905,-5.8761,-5.7877,-5.7541,-5.7088,-5.6222,-5.5857,-5.5703,-5.5703,-5.5703,-5.5703,-5.5703,-5.5703,-5.5703,-5.5703,-5.5703,-5.5703,-5.5703,-5.5703,-5.5829,-5.606,-5.667,-5.7128,-5.7381,-5.8208,-5.8642,-5.8654,-5.803,-5.7753,-5.7723,-5.6876,-5.6472,-6.0108,-6.0819,-6.0839,-6.0819,-5.8258,-5.5264,-5.359,-5.1029,-4.898,-4.8971,-4.9875,-5.0673,-5.0644,-4.7885,-4.561,-4.5599,-4.5607,-4.6777,-5.0163,-4.9192,-4.9624,0.0,0.0,0.0,0.0,0.0,0.0,0.0,0.0,0.0,0.0,-6.08,-6.08,-6.08,-6.08,-6.08,-6.08,-6.08,-6.08,-6.08,-6.08,-6.0339,-5.955,-6.0416,-6.0319,0.0,0.0,0.0,0.0,-6.08,-6.08,-6.08,-6.08,-6.08,-6.08,-6.08,-6.08,-6.08,-6.08,-6.08,-6.08,-6.08,-6.08,-6.08,-6.0781,-6.0781,-6.0781,-6.0781,-6.0781,-6.0781,-6.0781,-6.0781,-6.0781,-6.08,-6.0781,-6.0781,-6.0781,-6.0781,-6.0762,-6.0762,-6.0762,-6.0492,-5.9627,-5.8819,-5.7992,-5.7118,-5.6252,-5.5703,-5.5703,-5.5703,-5.5703,-5.5703,-5.5703,-5.5703,-5.5703,-5.5703,-5.5703,-5.5703,-5.5703,-5.6079,-5.6958,-5.6997,-5.7418,-5.8258,-5.9073,-5.9496,-5.9496,-5.9473,-5.9465,-5.9446,-5.8646,-5.828,-5.8704,-5.9492,-5.9769,-5.9215,-5.6967,-5.4679,-5.3919,-5.1894,-5.0154,-5.0154,-5.0452,-5.0693,-5.0702,-4.8836,-4.7308,-4.7318,-4.7307,0.0,0.0,0.0,0.0,0.0,0.0,0.0,0.0,0.0,0.0,0.0,0.0,0.0,0.0,-6.08,-6.08,-6.08,-6.08,-6.08,-6.08,-6.08,-6.08,-6.0781,-6.0204,-5.9762,-5.9511,-5.9781,0.0,0.0,0.0,0.0,0.0,-6.08,-6.08,-6.08,-6.08,-6.08,-6.08,-6.08,-6.08,-6.08,-6.08,-6.08,-6.08,-6.08,-6.08,-6.08,-6.08,-6.08,-6.08,-6.08,-6.08,-6.08,-6.08,-6.08,-6.08,-6.08,-6.08,-6.08,-6.08,-6.08,-6.08,-6.08,-6.08,-6.0512,-5.9646,-5.93,-5.8646,-5.7214,-5.6772,-5.6368,-5.578,-5.5703,-5.5703,-5.5703,-5.5703,-5.5703,-5.5703,-5.5703,-5.5703,-5.5703,-5.6258,-5.672,-5.7,-5.7574,-5.8269,-5.9108,-5.9361,-5.98,-6.0385,-5.9781,-5.9223,-5.8665,-5.8415,-5.83,-5.7665,-5.7942,-5.795,-5.7428,-5.566,0.0,-5.3498,-5.2,-5.0712,-5.0712,-5.0712,-5.0596,-5.026,-4.924,-4.8307,-4.7875,-4.8527,0.0,0.0,0.0,0.0,0.0,0.0,0.0,0.0,0.0,0.0,0.0,0.0,0.0,0.0,-6.08,-6.08,-6.08,-6.08,-6.08,-6.08,-6.08,-6.08,-6.0781,-5.9915,-5.9338,-5.9069,-5.9358,0.0,0.0,0.0,0.0,0.0,-6.08,-6.08,-6.08,-6.08,-6.08,-6.08,-6.08,-6.08,-6.08,-6.08,-6.08,-6.08,-6.08,-6.08,-6.08,-6.08,-6.08,-6.08,-6.08,-6.08,-6.08,-6.08,-6.08,-6.08,-6.08,-6.08,-6.08,-6.08,-6.08,-6.08,-6.08,-6.08,-6.0627,-6.0089,-5.9723,-5.9146,-5.8088,-5.7684,-5.7184,-5.6299,-5.6195,-5.6049,-5.5742,-5.5703,-5.5703,-5.5703,-5.5703,-5.5703,-5.5703,-5.6212,-5.6516,-5.6513,-5.7346,-5.8064,-5.8539,-5.9188,-5.9781,-6.03,-6.0089,-5.9723,-5.9242,-5.9242,-5.9242,0.0,-5.622,-5.5506,-5.553,-5.4267,-5.2901,-5.2395,-5.1462,0.0,-5.0712,-5.0712,-5.0442,-4.9548,-4.9192,-4.8682,-4.7614,-4.9219,0.0,0.0,-5.2011,0.0,0.0,0.0,0.0,0.0,0.0,0.0,0.0,0.0,0.0,0.0,-6.08,-6.08,-6.08,-6.0742,-6.0704,-6.0704,-6.0704,-6.0685,-6.0608,-5.9742,-5.8934,-5.8242,-5.905,0.0,0.0,0.0,0.0,0.0,-6.08,-6.08,-6.08,-6.08,-6.08,-6.08,-6.08,-6.08,-6.08,-6.08,-6.08,-6.08,-6.08,-6.08,-6.08,-6.08,-6.08,-6.08,-6.08,-6.08,-6.08,-6.08,-6.08,-6.08,-6.08,-6.08,-6.08,-6.08,-6.08,-6.08,-6.08,-6.08,-6.08,-6.08,-6.0127,-5.9569,-5.9511,-5.8858,-5.8069,-5.7214,-5.7041,-5.6695,-5.5876,-5.5742,-5.5703,-5.5703,-5.5703,-5.5703,-5.5703,-5.5818,-5.5855,-5.5799,-5.6622,-5.7125,-5.7173,-5.8777,-5.9585,-5.9588,-6.0416,-6.08,-6.08,-6.08,-6.08,-5.6184,0.0,-5.3788,-5.3799,-5.2519,-5.125,0.0,-5.0885,-5.0712,-5.0712,-5.0712,-5.0442,-4.9548,-4.9336,-4.923,-4.8952,0.0,0.0,0.0,0.0,0.0,0.0,0.0,0.0,0.0,0.0,0.0,0.0,0.0,0.0,0.0,-6.08,-6.08,-6.08,-6.0146,-5.9819,-5.9819,-5.9819,-5.9492,-5.8877,-5.7992,-5.7492,-5.7327,-5.8204,0.0,0.0,0.0,0.0,-6.08,-6.08,-6.08,-6.08,-6.08,-6.08,-6.08,-6.08,-6.08,-6.08,-6.08,-6.08,-6.08,-6.08,-6.08,-6.08,-6.08,-6.08,-6.08,-6.08,-6.08,-6.08,-6.08,-6.08,-6.08,-6.08,-6.08,-6.08,-6.08,-6.08,-6.08,-6.08,-6.08,-6.08,-6.08,-6.0627,-6.0262,-5.9608,-5.9338,-5.8915,-5.8107,-5.7415,-5.6926,-5.6714,-5.6088,-5.5703,-5.5703,-5.5703,-5.5703,-5.5703,-5.6953,-5.7396,-5.6712,-5.7527,-5.8285,-5.89,-5.9942,-6.0492,-6.0492,-6.0704,-6.08,-6.08,-6.08,-6.08,-5.6522,-5.479,-5.3203,-5.3203,-5.1933,-5.0712,-5.0712,-5.0712,-5.0712,-5.0712,-5.0712,-5.0442,-4.9548,-4.9067,-4.8798,0.0,-4.8798,0.0,0.0,0.0,0.0,0.0,0.0,0.0,0.0,0.0,0.0,0.0,0.0,0.0,0.0,-6.08,-6.08,-6.08,-5.9954,-5.9492,-5.9492,-5.9127,-5.8723,-5.83,-5.7415,-5.6992,-5.703,-5.7896,-5.83,0.0,0.0,0.0,-6.08,-6.08,-6.08,-6.08,-6.08,-6.08,-6.08,-6.08,-6.08,-6.08,-6.08,-6.08,-6.08,-6.08,-6.08,-6.08,-6.08,-6.08,-6.08,-6.08,-6.08,-6.08,-6.08,-6.08,-6.08,-6.08,-6.08,-6.08,-6.08,-6.08,-6.08,-6.08,-6.08,-6.08,-6.08,-6.08,-6.0646,-6.0165,-6.0108,-5.9781,-5.8954,-5.8434,-5.7838,-5.708,-5.6569,-5.6126,-5.5722,-5.6069,-5.631,-5.631,-5.7184,-5.7665,-5.7588,-5.8396,-5.9231,-6.0065,-6.0569,-6.08,-6.08,-6.08,-6.08,-6.08,-6.08,-6.08,-5.7236,-5.5147,-5.3203,-5.3203,-5.1933,-5.0712,-5.0712,-5.0712,-5.0712,-5.0712,-5.0712,-5.0385,-4.9394,-4.8817,0.0,0.0,0.0,0.0,0.0,0.0,0.0,0.0,0.0,0.0,0.0,0.0,0.0,0.0,0.0,0.0,0.0,-6.08,-6.0742,-6.0608,-5.9762,-5.9242,-5.9127,-5.8434,-5.803,-5.7896,-5.7146,-5.6868,-5.7041,-5.7761,-5.8242,0.0,0.0,0.0,-6.08,-6.08,-6.08,-6.08,-6.08,-6.08,-6.08,-6.08,-6.08,-6.08,-6.08,-6.08,-6.08,-6.08,-6.08,-6.08,-6.08,-6.08,-6.08,-6.08,-6.08,-6.08,-6.08,-6.08,-6.08,-6.08,-6.08,-6.08,-6.08,-6.08,-6.08,-6.08,-6.08,-6.08,-6.08,-6.08,-6.08,-6.08,-6.08,-6.0531,-5.98,-5.9588,-5.8954,-5.7541,-5.728,-5.6896,-5.6165,-5.6761,-5.7253,-5.7368,-5.7387,-5.7703,-5.8454,-5.9146,-5.9858,-6.0589,-6.0723,-6.08,-6.08,-6.08,-6.08,-6.08,-6.08,-6.08,-5.7236,-5.5138,-5.3214,-5.3214,-5.1953,-5.0712,-5.0712,-5.0712,-5.0712,-5.0712,-5.0712,-5.0212,-4.8606,-4.9394,-4.9817,0.0,0.0,0.0,0.0,0.0,0.0,0.0,0.0,0.0,0.0,0.0,0.0,0.0,0.0,0.0,0.0,0.0,-6.0454,-5.9723,-5.8915,-5.8127,-5.7387,-5.7272,-5.6819,-5.6088,-5.5953,-5.6291,-5.7003,-5.7137,-5.7973,0.0,0.0,-6.0127,-6.08,-6.08,-6.08,-6.08,-6.08,-6.08,-6.08,-6.08,-6.08,-6.08,-6.08,-6.08,-6.08,-6.08,-6.08,-6.08,-6.08,-6.08,-6.08,-6.08,-6.08,-6.08,-6.08,-6.08,-6.08,-6.08,-6.08,-6.08,-6.08,-6.08,-6.08,-6.08,-6.08,-6.08,-6.08,-6.08,-6.08,-6.08,-6.08,-6.0742,-6.0608,-5.9954,-5.9396,-5.9146,-5.8511,-5.805,-5.7915,-5.803,-5.8396,-5.9069,-5.9127,-5.9184,-5.9319,-5.9435,-5.9569,-5.9704,-6.0416,-6.08,-6.08,-6.08,-6.08,-6.08,-6.08,-6.08,-5.7234,-5.5474,-5.3685,-5.2731,-5.1587,-5.0712,-5.0712,-5.0712,-5.0875,-5.1481,-5.1135,-5.0462,-4.9644,0.0,-5.0721,-5.0837,0.0,0.0,0.0,0.0,0.0,0.0,0.0,0.0,0.0,0.0,0.0,0.0,0.0,0.0,0.0,0.0,-5.9704,-5.8877,-5.803,-5.7407,-5.7003,-5.6541,-5.6088,-5.5703,-5.6175,-5.6368,-5.6329,-5.7261,-5.8127,-5.8877,0.0,-5.9992,-6.08,-6.08,-6.08,-6.08,-6.08,-6.08,-6.08,-6.08,-6.08,-6.08,-6.08,-6.08,-6.08,-6.08,-6.08,-6.08,-6.08,-6.08,-6.08,-6.08,-6.08,-6.08,-6.08,-6.08,-6.08,-6.08,-6.08,-6.08,-6.08,-6.08,-6.08,-6.08,-6.08,-6.08,-6.08,-6.08,-6.08,-6.08,-6.08,-6.08,-6.08,-6.0454,-6.0012,-5.955,-5.9165,-5.8781,-5.8338,-5.8704,-5.9108,-5.9473,-5.9935,-6.0204,-6.0204,-6.0204,-6.0204,-6.0204,-6.0589,-6.08,-6.08,-6.08,-6.08,-6.08,-6.08,-6.08,-5.7184,-5.578,-5.4164,-5.2738,-5.1336,-5.0366,-5.0635,-5.0904,-5.1347,-5.2212,-5.1645,-5.0837,0.0,-5.0731,0.0,-5.2972,0.0,0.0,0.0,0.0,0.0,0.0,0.0,0.0,0.0,0.0,0.0,0.0,0.0,0.0,0.0,0.0,-5.8838,-5.8011,-5.7349,-5.6907,-5.6695,-5.603,-5.5799,-5.6011,-5.6483,-5.656,-5.6357,-5.7473,-5.8204,-5.8627,-5.9242,-5.9992,-6.08,-6.08,-6.08,-6.08,-6.08,-6.08,-6.08,-6.08,-6.08,-6.08,-6.08,-6.08,-6.08,-6.08,-6.08,-6.08,-6.08,-6.08,-6.08,-6.08,-6.08,-6.08,-6.08,-6.08,-6.08,-6.08,-6.08,-6.08,-6.08,-6.08,-6.08,-6.08,-6.08,-6.08,-6.08,-6.08,-6.08,-6.08,-6.08,-6.08,-6.08,-6.08,-6.0531,-5.9877,-5.98,-5.955,-5.8934,-5.9454,-5.98,-5.98,-6.0435,-6.08,-6.08,-6.08,-6.08,-6.08,-6.08,-6.08,-6.08,-6.08,-6.08,-6.08,-6.08,-6.08,-5.7014,-5.5791,-5.4413,-5.3962,-5.147,-4.9403,-5.0462,-5.152,-5.2309,-5.2386,-5.2087,-5.125,-4.9442,-5.0847,-5.2473,0.0,0.0,0.0,0.0,0.0,0.0,0.0,0.0,0.0,0.0,0.0,0.0,0.0,0.0,0.0,0.0,0.0,0.0,-5.7118,-5.7041,-5.6618,-5.5799,-5.5722,-5.6118,-5.6907,-5.6156,-5.6607,-5.8088,-5.7415,-5.7934,-5.9415,-5.9473,-5.9992,-6.08,-6.08,-6.08,-6.08,-6.08,-6.08,-6.08,-6.08,-6.08,-6.08,-6.08,-6.08,-6.08,-6.08,-6.08,-6.08,-6.08,-6.08,-6.08,-6.08,-6.08,-6.08,-6.08,-6.08,-6.08,-6.08,-6.08,-6.08,-6.08,-6.08,-6.08,-6.08,-6.08,-6.08,-6.08,-6.08,-6.08,-6.08,-6.08,-6.08,-6.08,-6.08,-6.0781,-6.0704,-6.0704,-6.0685,-6.0608,-6.0666,-6.0704,-6.0704,-6.0762,-6.08,-6.08,-6.08,-6.08,-6.08,-6.08,-6.08,-6.08,-6.08,-6.08,-6.08,-6.08,-6.08,-5.7159,-5.6139,-5.4829,-5.3124,-5.1903,-5.1221,-5.1655,-5.3166,-5.4321,-5.3809,-5.3453,-5.2567,-5.0441,0.0,-5.1279,0.0,0.0,0.0,0.0,0.0,0.0,0.0,0.0,0.0,0.0,0.0,0.0,0.0,0.0,0.0,0.0,0.0,0.0,-5.6233,-5.6195,-5.603,-5.5703,-5.5703,-5.6137,-5.7003,-5.6676,-5.6849,-5.7492,-5.7703,-5.8434,-5.9492,-5.9492,-5.9992,-6.08,-6.08,-6.08,-6.08,-6.08,-6.08,-6.08,-6.08,-6.08,-6.08,-6.08,-6.08,-6.08,-6.08,-6.08,-6.08,-6.08,-6.08,-6.08,-6.08,-6.08,-6.08,-6.08,-6.08,-6.08,-6.08,-6.08,-6.08,-6.08,-6.08,-6.08,-6.08,-6.08,-6.08,-6.08,-6.08,-6.08,-6.08,-6.08,-6.08,-6.08,-6.08,-6.08,-6.08,-6.08,-6.08,-6.08,-6.08,-6.08,-6.08,-6.08,-6.08,-6.08,-6.08,-6.08,-6.08,-6.08,-6.08,-6.08,-6.08,-6.08,-6.08,-6.08,-6.08,-5.6365,-5.5458,-5.4155,-5.2058,-5.2087,-5.251,-5.1972,-5.331,-5.4705,-5.4848,-5.4135,-5.3075,-5.1748,0.0,0.0,0.0,0.0,0.0,0.0,0.0,0.0,0.0,0.0,0.0,0.0,0.0,0.0,0.0,0.0,0.0,0.0,0.0,0.0,0.0,-5.5703,-5.5703,-5.5703,-5.5703,-5.5992,-5.6599,-5.6599,-5.6887,-5.7434,-5.803,-5.8742,-5.9511,-5.9781,-6.0242,-6.08,-6.08,-6.08,-6.08,-6.08,-6.08,-6.08,-6.08,-6.08,-6.08,-6.08,-6.08,-6.08,-6.08,-6.08,-6.08,-6.08,-6.08,-6.08,-6.08,-6.08,-6.08,-6.08,-6.08,-6.08,-6.08,-6.08,-6.08,-6.08,-6.08,-6.08,-6.08,-6.08,-6.08,-6.08,-6.08,-6.08,-6.08,-6.08,-6.08,-6.08,-6.08,-6.08,-6.08,-6.08,-6.08,-6.08,-6.08,-6.08,-6.08,-6.08,-6.08,-6.08,-6.08,-6.08,-6.08,-6.08,-6.08,-6.08,-6.08,-6.08,-6.08,-6.08,-6.08,-5.4496,-5.3446,-5.2103,-5.1009,-5.1953,-5.274,-5.1085,-5.1613,-5.3055,-5.5299,-5.3981,-5.2586,-5.3135,-5.3655,0.0,0.0,0.0,0.0,0.0,0.0,0.0,0.0,0.0,0.0,0.0,0.0,0.0,0.0,0.0,0.0,0.0,0.0,0.0,0.0,-5.5684,-5.5684,-5.5684,-5.5684,-5.5684,-5.5703,-5.5703,-5.6607,-5.83,-5.83,-5.8742,-5.9569,-6.0435,-6.08,-6.08,-6.08,-6.08,-6.08,-6.08,-6.08,-6.08,-6.08,-6.08,-6.08,-6.08,-6.08,-6.08,-6.08,-6.08,-6.08,-6.08,-6.08,-6.08,-6.08,-6.08,-6.08,-6.08,-6.08,-6.08,-6.08,-6.08,-6.08,-6.08,-6.08,-6.08,-6.08,-6.08,-6.08,-6.08,-6.08,-6.08,-6.08,-6.08,-6.08,-6.08,-6.08,-6.08,-6.08,-6.08,-6.08,-6.08,-6.08,-6.08,-6.08,-6.08,-6.08,-6.08,-6.08,-6.08,-6.08,-6.08,-6.08,-6.08,-6.08,-6.08,-6.08,-6.08,-6.08,-5.4698,-5.2124,-5.05,-5.2521,-5.2222,-5.1519,-5.1826,-5.3355,-5.5588,-5.8652,-5.686,-5.478,-5.4934,0.0,0.0,0.0,0.0,0.0,0.0,0.0,0.0,0.0,0.0,0.0,0.0,0.0,0.0,0.0,0.0,0.0,0.0,0.0,0.0,0.0,-5.3933,-5.4241,-5.4857,-5.4857,-5.5145,-5.5703,-5.5703,-5.6607,-5.83,-5.83,-5.9069,-6.0435,-6.0685,-6.08,-6.08,-6.08,-6.08,-6.08,-6.08,-6.08,-6.08,-6.08,-6.08,-6.08,-6.08,-6.08,-6.08,-6.08,-6.08,-6.08,-6.08,-6.08,-6.08,-6.08,-6.08,-6.08,-6.08,-6.08,-6.08,-6.08,-6.08,-6.08,-6.08,-6.08,-6.08,-6.08,-6.08,-6.08,-6.08,-6.08,-6.08,-6.08,-6.08,-6.08,-6.08,-6.08,-6.08,-6.08,-6.08,-6.08,-6.08,-6.08,-6.08,-6.08,-6.08,-6.08,-6.08,-6.08,-6.08,-6.08,-6.08,-6.08,-6.08,-6.08,-6.08,-6.08,-6.08,-6.08,-5.3407,-5.12,-4.9942,-5.1058,-5.151,-5.2049,-5.3395,-5.5011,-5.683,0.0,-5.7456,-5.5799,-5.6145,-5.528,0.0,0.0,0.0,0.0,0.0,0.0,0.0,0.0,0.0,0.0,0.0,0.0,0.0,0.0,0.0,0.0,0.0,0.0,0.0,0.0,-5.3203,-5.3626,-5.4491,-5.4491,-5.4895,-5.5703,-5.5703,-5.6434,-5.778,-5.778,-5.8704,-6.03,-6.0646,-6.08,-6.08,-6.08,-6.08,-6.08,-6.08,-6.08,-6.08,-6.08,-6.08,-6.08,-6.08,-6.08,-6.08,-6.08,-6.08,-6.08,-6.08,-6.08,-6.08,-6.08,-6.08,-6.08,-6.08,-6.08,-6.08,-6.08,-6.08,-6.08,-6.08,-6.08,-6.08,-6.08,-6.08,-6.08,-6.08,-6.08,-6.08,-6.08,-6.08,-6.08,-6.08,-6.08,-6.08,-6.08,-6.08,-6.08,-6.08,-6.08,-6.08,-6.08,-6.1108,-6.1146,-6.08,-6.08,-6.08,-6.08,-6.08,-6.0973,-6.132,-6.0973,-6.0973,-6.13,-6.0954,-6.08,-5.15,-5.0808,-5.0124,-4.8231,-5.0462,-5.3549,-5.5215,-5.6148,-5.678,-5.7277,0.0,-5.6145,-5.6868,0.0,0.0,0.0,0.0,0.0,0.0,0.0,0.0,0.0,0.0,0.0,0.0,0.0,0.0,0.0,0.0,0.0,0.0,0.0,0.0,0.0,-5.2972,-5.3433,-5.4376,-5.4376,-5.4818,0.0,-5.5703,-5.6107,-5.6887,-5.706,-5.803,-5.9665,-6.0454,-6.08,-6.08,-6.08,-6.08,-6.08,-6.08,-6.08,-6.08,-6.08,-6.08,-6.08,-6.08,-6.08,-6.08,-6.08,-6.08,-6.08,-6.08,-6.08,-6.08,-6.08,-6.08,-6.08,-6.08,-6.08,-6.08,-6.08,-6.08,-6.08,-6.08,-6.08,-6.08,-6.08,-6.08,-6.08,-6.08,-6.08,-6.08,-6.08,-6.08,-6.08,-6.08,-6.08,-6.08,-6.08,-6.08,-6.08,-6.08,-6.08,-6.0819,-6.0916,-6.1601,-6.1658,-6.0954,-6.0916,-6.0877,-6.08,-6.08,-6.1185,-6.1985,-6.1185,-6.1204,-6.1966,-6.1166,-6.08,-5.2955,-5.151,-4.9932,-5.1029,-5.1934,-5.2963,-5.4425,-5.4357,-5.4607,-5.6665,-5.7434,-5.7588,0.0,0.0,0.0,0.0,0.0,0.0,0.0,0.0,0.0,0.0,0.0,0.0,0.0,0.0,0.0,0.0,0.0,0.0,0.0,0.0,0.0,-5.126,-5.1241,-5.1952,-5.3453,-5.3491,-5.4222,0.0,-5.5703,-5.5799,-5.603,-5.7396,-5.8934,-6.0531,-6.0723,-6.08,-6.08,-6.08,-6.08,-6.08,-6.08,-6.08,-6.08,-6.08,-6.08,-6.08,-6.08,-6.08,-6.08,-6.08,-6.08,-6.08,-6.08,-6.08,-6.08,-6.08,-6.08,-6.08,-6.08,-6.08,-6.08,-6.08,-6.08,-6.08,-6.08,-6.08,-6.08,-6.08,-6.08,-6.08,-6.08,-6.08,-6.08,-6.08,-6.08,-6.08,-6.08,-6.08,-6.08,-6.08,-6.08,-6.08,-6.08,-6.08,-6.1089,-6.1793,-6.1339,-6.13,-6.1812,-6.1831,-6.1493,-6.08,-6.08,-6.0877,-6.1069,-6.0877,-6.0896,-6.1069,-6.0877,-6.08,-5.1751,-5.0923,-5.0375,-5.1799,0.0,-5.2001,-5.353,-5.353,-5.3587,-5.4914,-5.5876,0.0,0.0,0.0,0.0,0.0,0.0,0.0,0.0,0.0,0.0,0.0,0.0,0.0,0.0,0.0,0.0,0.0,0.0,0.0,0.0,-5.1529,-5.1125,-5.0712,-5.0712,-5.1298,-5.2558,-5.2991,-5.3857,-5.5126,-5.5511,-5.5915,-5.6349,-5.7261,-5.8146,-5.9003,-5.9415,-5.9819,-6.0185,-6.0185,-6.0416,-6.08,-6.08,-6.08,-6.08,-6.08,-6.08,-6.08,-6.08,-6.08,-6.08,-6.08,-6.08,-6.08,-6.08,-6.08,-6.08,-6.08,-6.08,-6.08,-6.08,-6.08,-6.08,-6.08,-6.08,-6.08,-6.08,-6.08,-6.08,-6.08,-6.08,-6.08,-6.08,-6.08,-6.0935,-6.1358,-6.1069,-6.0954,-6.1358,-6.105,-6.0954,-6.1377,-6.105,-6.1108,-6.1935,-6.1627,-6.1781,-6.2627,-6.2647,-6.2647,-6.2666,-6.307,-6.2512,-6.0819,-6.08,-6.1012,-6.1416,-6.0993,-6.1204,-6.1993,-6.1589,-6.1627,-5.0432,-5.0269,-5.0634,-5.1308,-5.0971,0.0,-5.2414,-5.2645,-5.2549,-5.2549,0.0,0.0,0.0,0.0,0.0,0.0,0.0,0.0,0.0,0.0,0.0,0.0,0.0,0.0,0.0,0.0,0.0,0.0,0.0,0.0,0.0,-5.0837,-5.0481,-5.0481,-5.0481,-5.0933,-5.1885,-5.2615,-5.3491,-5.4511,-5.5318,-5.6069,-5.6791,-5.6791,-5.6945,-5.7272,-5.7992,-5.8761,-5.9492,-5.9492,-6.0012,-6.08,-6.08,-6.08,-6.08,-6.08,-6.08,-6.08,-6.08,-6.08,-6.08,-6.08,-6.08,-6.08,-6.08,-6.08,-6.08,-6.08,-6.08,-6.08,-6.08,-6.08,-6.08,-6.08,-6.0916,-6.0973,-6.0819,-6.08,-6.08,-6.08,-6.08,-6.08,-6.08,-6.08,-6.1089,-6.1966,-6.1493,-6.1339,-6.2197,-6.1685,-6.1512,-6.2224,-6.1647,-6.1781,-6.3173,-6.2685,-6.2666,-6.3474,-6.407,-6.4128,-6.3551,-6.407,-6.3378,-6.1262,-6.1223,-6.1589,-6.2312,-6.157,-6.1935,-6.3269,-6.2627,-6.2666,-5.2374,0.0,-4.9596,0.0,-4.9644,-4.9817,0.0,0.0,-4.9913,0.0,0.0,0.0,0.0,0.0,0.0,0.0,0.0,0.0,0.0,0.0,0.0,0.0,0.0,0.0,0.0,0.0,0.0,0.0,0.0,0.0,0.0,-4.9625,-4.9567,-4.9567,-4.9567,-5.0317,-5.1885,-5.2019,-5.2895,-5.4511,-5.5318,-5.5761,-5.5857,-5.5857,-5.6703,-5.8127,-5.8261,-5.8761,-5.9492,-5.9492,-6.0012,-6.08,-6.08,-6.08,-6.08,-6.08,-6.08,-6.08,-6.08,-6.08,-6.08,-6.08,-6.08,-6.08,-6.08,-6.08,-6.08,-6.08,-6.08,-6.08,-6.08,-6.08,-6.08,-6.08,-6.1377,-6.1716,-6.0954,-6.08,-6.08,-6.08,-6.08,-6.08,-6.08,-6.08,-6.1089,-6.1966,-6.2005,-6.2224,-6.3051,-6.3051,-6.3012,-6.3128,-6.3051,-6.307,-6.3269,-6.3192,-6.3512,-6.4378,-6.3839,-6.3762,-6.4397,-6.382,-6.3308,-6.2974,-6.2974,-6.3031,-6.3147,-6.3031,-6.3077,-6.3288,-6.3185,-6.3205,-5.1991,-4.9942,-4.8114,0.0,-4.8663,-4.8779,-4.9163,0.0,0.0,0.0,0.0,0.0,0.0,0.0,0.0,0.0,0.0,0.0,0.0,0.0,0.0,0.0,0.0,0.0,0.0,0.0,0.0,0.0,0.0,0.0,-4.8682,-4.8663,-4.8663,-4.8663,-4.9144,-4.974,-5.0491,-5.1423,-5.2769,-5.4511,-5.5318,-5.5703,-5.5703,-5.5703,-5.6126,-5.6838,-5.6838,-5.7319,-5.8088,-5.8088,-5.8877,-6.0069,-6.0069,-6.0358,-6.08,-6.08,-6.08,-6.08,-6.08,-6.08,-6.08,-6.08,-6.08,-6.08,-6.08,-6.08,-6.08,-6.08,-6.08,-6.08,-6.08,-6.08,-6.08,-6.08,-6.1466,-6.187,-6.0993,-6.1166,-6.1377,-6.0877,-6.08,-6.08,-6.08,-6.1204,-6.18,-6.2647,-6.2762,-6.3089,-6.3916,-6.3608,-6.3493,-6.3974,-6.3589,-6.3705,-6.4666,-6.432,-6.4397,-6.5263,-6.4974,-6.4936,-6.5301,-6.4955,-6.4762,-6.4762,-6.3801,-6.3288,-6.3288,-6.3288,-6.3551,-6.4032,-6.4032,-6.4301,0.0,0.0,-4.7584,-4.774,-4.7952,-4.8048,0.0,0.0,0.0,0.0,0.0,0.0,0.0,0.0,0.0,0.0,0.0,0.0,0.0,0.0,0.0,0.0,0.0,0.0,0.0,0.0,0.0,0.0,0.0,0.0,-4.7817,-4.7798,-4.7798,-4.7798,-4.8432,-4.8971,-4.9394,-5.1058,-5.2654,-5.4184,-5.4991,-5.5491,-5.5703,-5.5703,-5.5703,-5.5703,-5.5703,-5.6195,-5.7003,-5.7003,-5.7857,-5.9204,-5.9204,-5.9723,-6.0473,-6.0473,-6.0608,-6.08,-6.08,-6.08,-6.08,-6.08,-6.08,-6.08,-6.08,-6.08,-6.08,-6.08,-6.08,-6.08,-6.08,-6.08,-6.08,-6.08,-6.1466,-6.1928,-6.1262,-6.1466,-6.1639,-6.1204,-6.1127,-6.1204,-6.1396,-6.1973,-6.2685,-6.3512,-6.3628,-6.3955,-6.482,-6.4359,-6.4205,-6.4859,-6.4359,-6.4493,-6.5782,-6.5301,-6.5205,-6.5859,-6.5897,-6.5897,-6.5897,-6.5897,-6.5897,-6.5897,-6.4628,-6.3955,-6.3955,-6.3955,-6.4301,-6.4936,-6.4936,-6.5282,0.0,-4.9365,0.0,-4.7355,-4.7548,0.0,0.0,0.0,0.0,0.0,0.0,0.0,0.0,0.0,0.0,0.0,0.0,0.0,0.0,0.0,0.0,0.0,0.0,0.0,0.0,0.0,0.0,0.0,0.0,0.0,-4.7,-4.6962,-4.6962,-4.6962,-4.7,-4.7798,-4.9375,-5.1058,-5.2365,-5.328,-5.4145,-5.4953,-5.5703,-5.5703,-5.5703,-5.5703,-5.5703,-5.6195,-5.7003,-5.7003,-5.753,-5.8357,-5.8357,-5.8858,-5.9569,-5.9569,-6.0089,-6.08,-6.08,-6.08,-6.08,-6.08,-6.08,-6.08,-6.08,-6.08,-6.08,-6.08,-6.08,-6.08,-6.08,-6.08,-6.08,-6.08,-6.1466,-6.2101,-6.2043,-6.1416,-6.1089,-6.1889,-6.2043,-6.2262,-6.3051,-6.3224,-6.3531,-6.4397,-6.4532,-6.4859,-6.5724,-6.5782,-6.5782,-6.582,-6.5782,-6.5801,-6.5878,-6.5859,-6.584,-6.5897,-6.5897,-6.5897,-6.5897,-6.5897,-6.5897,-6.5897,-6.5801,-6.5763,-6.5763,-6.5763,-6.5782,-6.582,-6.582,-6.5859,0.0,0.0,0.0,-4.7952,-4.7894,-4.7894,0.0,0.0,0.0,0.0,0.0,0.0,0.0,0.0,0.0,0.0,0.0,0.0,0.0,0.0,0.0,0.0,0.0,0.0,0.0,0.0,0.0,0.0,0.0,0.0,-4.6086,-4.6067,-4.6067,-4.6067,-4.6605,-4.7702,-4.9375,-5.1058,-5.2058,-5.2385,-5.3818,-5.4645,-5.4953,-5.5453,-5.5703,-5.5703,-5.5703,-5.5876,-5.6175,-5.6175,-5.6684,-5.7473,-5.7473,-5.83,-5.9492,-5.9492,-6.005,-6.08,-6.08,-6.08,-6.08,-6.08,-6.08,-6.08,-6.08,-6.08,-6.08,-6.08,-6.08,-6.08,-6.08,-6.08,-6.0935,-6.1493,-6.187,-6.2243,-6.2762,-6.2627,-6.2512,-6.282,-6.2878,-6.2954,-6.325,-6.3762,-6.4243,-6.4551,-6.507,-6.5551,-6.5859,-6.5897,-6.5897,-6.5897,-6.5897,-6.5897,-6.5897,-6.5897,-6.6109,-6.6628,-6.6667,-6.6917,-6.7475,-6.7507,-6.7237,-6.6686,-6.7212,-6.6974,-6.5897,-6.5897,-6.5897,-6.5897,-6.5897,-6.6186,-5.0625,-5.024,0.0,0.0,0.0,-4.8259,0.0,0.0,0.0,0.0,0.0,0.0,0.0,0.0,0.0,0.0,0.0,0.0,0.0,0.0,0.0,0.0,0.0,0.0,0.0,0.0,0.0,0.0,0.0,0.0,-4.5594,-4.5594,-4.5594,-4.5594,-4.6701,-4.7836,-4.8952,-5.0644,-5.1615,-5.1904,-5.3068,-5.3933,-5.4511,-5.5049,-5.5434,-5.5703,-5.5703,-5.5703,-5.5703,-5.5703,-5.603,-5.656,-5.656,-5.7588,-5.9108,-5.9108,-5.9819,-6.08,-6.08,-6.08,-6.08,-6.08,-6.08,-6.08,-6.08,-6.08,-6.08,-6.08,-6.08,-6.08,-6.08,-6.08,-6.1012,-6.1889,-6.2312,-6.2724,-6.357,-6.3512,-6.3397,-6.3685,-6.3743,-6.3839,-6.4128,-6.4647,-6.5032,-6.5032,-6.5532,-6.5897,-6.5897,-6.5897,-6.5994,-6.6263,-6.6051,-6.6128,-6.6686,-6.6474,-6.6647,-6.7475,-6.7532,-6.7802,-6.8379,-6.8392,-6.8122,-6.7538,-6.8116,-6.7847,-6.6737,-6.6737,-6.6583,-6.632,-6.6609,-6.7032,0.0,0.0,0.0,0.0,0.0,0.0,0.0,0.0,0.0,0.0,0.0,0.0,0.0,0.0,0.0,0.0,0.0,0.0,0.0,0.0,0.0,0.0,0.0,0.0,0.0,0.0,0.0,0.0,0.0,-4.5594,-4.5594,-4.5594,-4.5594,-4.5594,-4.7221,-4.8105,-4.8105,-4.9817,-5.1087,-5.1865,-5.1885,-5.2799,-5.4453,-5.4491,-5.4934,-5.5703,-5.5703,-5.5703,-5.5703,-5.5703,-5.5703,-5.5703,-5.5722,-5.678,-5.83,-5.8338,-5.9377,-6.08,-6.08,-6.08,-6.08,-6.08,-6.08,-6.08,-6.08,-6.08,-6.08,-6.08,-6.08,-6.08,-6.0819,-6.0839,-6.105,-6.1928,-6.2743,-6.357,-6.4416,-6.3955,-6.3628,-6.4474,-6.4647,-6.4916,-6.5743,-6.5897,-6.5897,-6.5897,-6.5917,-6.5936,-6.5936,-6.5955,-6.6263,-6.7051,-6.6436,-6.6628,-6.8263,-6.7628,-6.7513,-6.8379,-6.8442,-6.8442,-6.8475,-6.8469,-6.8449,-6.8442,-6.8462,-6.8448,-6.8394,-6.8405,-6.7956,-6.7154,-6.8019,-6.8442,-5.3087,0.0,0.0,0.0,0.0,0.0,0.0,0.0,0.0,0.0,0.0,0.0,0.0,0.0,0.0,0.0,0.0,0.0,0.0,0.0,0.0,0.0,0.0,0.0,0.0,0.0,0.0,0.0,-4.5594,-4.5594,-4.5594,-4.5594,-4.5594,-4.5594,-4.7221,-4.8105,-4.8105,-4.9817,-5.0808,-5.1029,-5.1625,-5.2481,-5.3587,-5.4203,-5.4934,-5.5703,-5.5703,-5.5703,-5.5703,-5.5703,-5.5703,-5.5761,-5.6387,-5.7319,-5.8377,-5.8954,-5.9858,-6.08,-6.08,-6.08,-6.08,-6.08,-6.08,-6.08,-6.08,-6.08,-6.08,-6.08,-6.08,-6.0954,-6.1581,-6.1735,-6.1935,-6.2762,-6.3628,-6.432,-6.4551,-6.4916,-6.5243,-6.5493,-6.5532,-6.5609,-6.5859,-6.5897,-6.5897,-6.5897,-6.6397,-6.6763,-6.6763,-6.7321,-6.7802,-6.8013,-6.784,-6.7898,-6.8359,-6.8186,-6.8417,-6.9302,-6.934,-6.961,-7.0187,-7.0206,-6.9937,-6.9352,-6.9904,-6.9602,-6.8394,-6.8404,-6.8269,-6.8056,-6.8942,-6.934,-5.3984,-5.3741,-5.353,0.0,0.0,0.0,-4.976,-4.9009,0.0,0.0,0.0,0.0,0.0,0.0,0.0,0.0,0.0,0.0,0.0,0.0,0.0,0.0,0.0,0.0,0.0,0.0,0.0,0.0,-4.5594,-4.5594,-4.5594,-4.5594,-4.5594,-4.5594,-4.7221,-4.8105,-4.8105,-4.9817,-5.0712,-5.0712,-5.1183,-5.1837,-5.2692,-5.3568,-5.4414,-5.5222,-5.5549,-5.5703,-5.5703,-5.5703,-5.5703,-5.578,-5.6656,-5.753,-5.8396,-5.9204,-6.005,-6.08,-6.08,-6.08,-6.08,-6.08,-6.08,-6.08,-6.08,-6.08,-6.08,-6.08,-6.105,-6.1466,-6.1966,-6.2339,-6.2801,-6.3647,-6.4224,-6.4705,-6.5051,-6.5532,-6.5897,-6.5897,-6.5897,-6.5897,-6.5897,-6.5897,-6.6013,-6.634,-6.6801,-6.7225,-6.759,-6.809,-6.8552,-6.8898,-6.8629,-6.8673,-6.9379,-6.9148,-6.9302,-7.0148,-7.0206,-7.0417,-7.0879,-7.0898,-7.0687,-7.0198,-7.0654,-7.0423,-6.9434,-6.9442,-6.9442,-6.9454,-6.9962,-7.0206,-5.4853,-5.4724,-5.4559,-5.3609,0.0,0.0,-5.026,-4.9683,-4.8971,0.0,0.0,0.0,0.0,0.0,0.0,0.0,0.0,0.0,0.0,0.0,0.0,0.0,0.0,0.0,0.0,0.0,-4.5594,-4.5594,-4.5594,-4.5594,-4.5594,-4.5594,-4.5594,-4.5594,-4.7144,-4.8009,-4.8105,-4.9721,-5.0596,-5.0712,-5.0789,-5.126,-5.2077,-5.2953,-5.3818,-5.4664,-5.5395,-5.5703,-5.5703,-5.5703,-5.5761,-5.5934,-5.681,-5.7665,-5.8531,-5.9338,-6.0127,-6.08,-6.08,-6.08,-6.08,-6.08,-6.08,-6.08,-6.08,-6.08,-6.08,-6.08,-6.1416,-6.212,-6.2216,-6.2839,-6.3666,-6.4551,-6.4743,-6.4955,-6.5724,-6.5897,-6.5897,-6.5897,-6.5897,-6.5897,-6.5897,-6.5974,-6.6282,-6.6994,-6.7263,-6.7667,-6.8436,-6.8615,-6.8975,-6.9744,-6.9148,-6.9283,-7.0764,-7.0244,-7.0148,-7.0841,-7.0898,-7.0898,-7.0898,-7.0898,-7.0898,-7.0898,-7.0898,-7.0898,-7.0898,-7.0898,-7.0898,-7.0898,-7.0898,-7.0898,-5.5498,-5.6059,0.0,0.0,0.0,0.0,-5.1981,-5.1404,-5.0894,0.0,0.0,0.0,0.0,0.0,0.0,0.0,0.0,0.0,0.0,0.0,0.0,0.0,0.0,0.0,0.0,0.0,-4.5594,-4.5594,-4.5594,-4.5594,-4.5594,-4.5594,-4.5594,-4.5594,-4.6605,-4.7451,-4.8086,-4.9125,-5.001,-5.0712,-5.1356,-5.2125,-5.2991,-5.3857,-5.4684,-5.5472,-5.5626,-5.5703,-5.5703,-5.5703,-5.6107,-5.683,-5.7703,-5.855,-5.9377,-6.0223,-6.0646,-6.08,-6.08,-6.08,-6.08,-6.08,-6.08,-6.08,-6.08,-6.08,-6.08,-6.08,-6.1416,-6.2255,-6.2897,-6.3705,-6.457,-6.5436,-6.5647,-6.5686,-6.5859,-6.5897,-6.5897,-6.5897,-6.5897,-6.5897,-6.5897,-6.6436,-6.6917,-6.7071,-6.8282,-6.9244,-6.9417,-7.0014,-7.0475,-7.0648,-7.0514,-7.0533,-7.0879,-7.0764,-7.0725,-7.0898,-7.0898,-7.0898,-7.0898,-7.0898,-7.0898,-7.0898,-7.0898,-7.0898,-7.0898,-7.0898,-7.0898,-7.0898,-7.0898,-7.0898,0.0,0.0,0.0,-5.6789,0.0,0.0,0.0,-5.2907,-5.2068,0.0,0.0,0.0,0.0,0.0,0.0,0.0,0.0,0.0,0.0,0.0,0.0,0.0,0.0,0.0,0.0,0.0,-4.5594,-4.5594,-4.5594,-4.5594,-4.5594,-4.5594,-4.5594,-4.5594,-4.6836,-4.7702,-4.8105,-4.9394,-5.0269,-5.0712,-5.1106,-5.1741,-5.2577,-5.3453,-5.4318,-5.5126,-5.553,-5.5703,-5.5703,-5.5703,-5.6472,-5.7684,-5.8127,-5.88,-5.9608,-6.0473,-6.08,-6.08,-6.08,-6.08,-6.08,-6.08,-6.08,-6.08,-6.08,-6.08,-6.08,-6.08,-6.1416,-6.2281,-6.3089,-6.3955,-6.4705,-6.5147,-6.5243,-6.5243,-6.5243,-6.5243,-6.5378,-6.582,-6.5897,-6.5897,-6.5897,-6.6571,-6.734,-6.8032,-6.9033,-6.984,-7.0244,-7.0648,-7.0898,-7.0898,-7.0898,-7.0898,-7.0898,-7.0898,-7.0898,-7.0898,-7.0898,-7.0898,-7.0898,-7.0898,-7.0898,-7.0898,-7.0898,-7.0898,-7.0898,-7.0898,-7.0898,-7.0898,-7.0898,-7.0898,0.0,0.0,0.0,0.0,0.0,-5.7048,0.0,0.0,0.0,0.0,0.0,0.0,0.0,0.0,0.0,0.0,0.0,0.0,0.0,0.0,0.0,0.0,0.0,0.0,0.0,0.0,-4.5594,-4.5594,-4.5594,-4.5594,-4.5594,-4.5594,-4.5594,-4.5594,-4.7086,-4.7952,-4.8105,-4.9663,-5.0539,-5.0712,-5.0866,-5.1356,-5.2173,-5.3049,-5.3914,-5.4761,-5.5415,-5.5703,-5.5703,-5.5703,-5.6722,-5.83,-5.83,-5.8896,-5.9838,-6.0531,-6.08,-6.08,-6.08,-6.08,-6.08,-6.08,-6.08,-6.08,-6.08,-6.08,-6.08,-6.08,-6.1416,-6.2255,-6.2897,-6.3705,-6.4397,-6.457,-6.4609,-6.4647,-6.4801,-6.4859,-6.5051,-6.5763,-6.6032,-6.6128,-6.6128,-6.6801,-6.7782,-6.909,-6.9667,-7.0167,-7.0821,-7.0898,-7.0898,-7.0898,-7.0898,-7.0898,-7.0898,-7.0898,-7.0898,-7.0898,-7.0898,-7.0898,-7.0898,-7.0898,-7.0898,-7.0898,-7.0898,-7.0898,-7.0898,-7.0898,-7.0898,-7.0898,-7.0898,-7.0898,0.0,0.0,0.0,0.0,-5.8704,0.0,0.0,0.0,0.0,0.0,0.0,0.0,0.0,0.0,0.0,0.0,0.0,0.0,0.0,0.0,0.0,0.0,0.0,0.0,0.0,0.0,0.0,-4.5594,-4.5594,-4.5594,-4.5594,-4.5594,-4.5594,-4.5594,-4.6528,-4.7394,-4.8086,-4.9067,-4.9933,-5.0712,-5.1414,-5.2212,-5.3087,-5.3953,-5.4799,-5.5568,-5.5665,-5.5703,-5.5703,-5.5703,-5.6722,-5.83,-5.83,-5.9261,-6.0666,-6.0762,-6.08,-6.08,-6.08,-6.08,-6.08,-6.08,-6.08,-6.08,-6.08,-6.08,-6.08,-6.08,-6.1416,-6.212,-6.2216,-6.2839,-6.3647,-6.4416,-6.4609,-6.4801,-6.559,-6.5743,-6.5782,-6.5878,-6.6474,-6.6955,-6.6955,-6.7686,-6.8571,-6.9494,-7.0283,-7.0802,-7.0898,-7.0898,-7.0898,-7.0898,-7.0898,-7.0898,-7.0898,-7.0898,-7.0898,-7.0898,-7.0898,-7.0898,-7.0898,-7.0898,-7.0898,-7.0898,-7.0898,-7.0898,-7.0898,-7.0898,-7.0898,-7.0898,-7.0898,-7.0898,0.0,0.0,0.0,0.0,0.0,0.0,-5.7221,0.0,-5.5539,0.0,0.0,0.0,0.0,0.0,0.0,0.0,0.0,0.0,0.0,0.0,0.0,0.0,0.0,0.0,0.0,0.0,0.0,0.0,0.0,-4.5594,-4.5594,-4.5594,-4.5594,-4.5594,-4.6894,-4.7759,-4.8105,-4.9471,-5.0346,-5.0712,-5.1029,-5.1645,-5.2481,-5.3356,-5.4203,-5.503,-5.5491,-5.5703,-5.5703,-5.5703,-5.6722,-5.83,-5.83,-5.9319,-6.08,-6.08,-6.08,-6.08,-6.08,-6.08,-6.08,-6.08,-6.08,-6.08,-6.08,-6.08,-6.08,-6.08,-6.1416,-6.2101,-6.2101,-6.307,-6.4032,-6.3878,-6.4224,-6.4705,-6.507,-6.5147,-6.5301,-6.5801,-6.6551,-6.7263,-6.7763,-6.859,-6.9436,-7.0264,-7.0687,-7.0898,-7.0898,-7.0898,-7.0898,-7.0898,-7.0898,-7.0898,-7.0898,-7.0898,-7.0898,-7.0898,-7.0898,-7.136,-7.2379,-7.1437,-7.0898,-7.0898,-7.0898,-7.0898,-7.0898,-7.0898,-7.0898,-7.0898,-7.0898,-7.0898,-5.7773,0.0,0.0,0.0,0.0,0.0,0.0,0.0,0.0,0.0,0.0,0.0,0.0,0.0,0.0,0.0,0.0,0.0,0.0,0.0,0.0,0.0,0.0,0.0,0.0,0.0,0.0,0.0,-4.5594,-4.5594,-4.5594,-4.5594,-4.5594,-4.5594,-4.7221,-4.8105,-4.8105,-4.9817,-5.0808,-5.1029,-5.0808,-5.1241,-5.2269,-5.2914,-5.3683,-5.453,-5.5338,-5.5703,-5.5703,-5.5703,-5.6722,-5.83,-5.83,-5.9319,-6.08,-6.08,-6.08,-6.08,-6.08,-6.08,-6.08,-6.08,-6.08,-6.08,-6.08,-6.0973,-6.1146,-6.1146,-6.1762,-6.2416,-6.2416,-6.332,-6.4147,-6.3762,-6.4147,-6.4666,-6.4897,-6.4955,-6.5147,-6.5782,-6.6744,-6.7667,-6.8302,-6.9129,-6.9975,-7.0783,-7.0898,-7.0898,-7.0898,-7.0898,-7.0898,-7.0898,-7.0898,-7.0898,-7.0898,-7.0898,-7.0898,-7.0898,-7.0898,-7.161,-7.3187,-7.1975,-7.1264,-7.1264,-7.1264,-7.1148,-7.0898,-7.0898,-7.0898,-7.0898,-7.0898,-7.0898,0.0,0.0,0.0,-5.9961,0.0,0.0,0.0,0.0,-5.7809,0.0,0.0,0.0,0.0,0.0,-5.4058,-5.2204,-5.1885,0.0,0.0,0.0,0.0,0.0,0.0,0.0,0.0,0.0,0.0,-4.5594,-4.5594,-4.5594,-4.5594,-4.5594,-4.5594,-4.5594,-4.7221,-4.8105,-4.8105,-4.9817,-5.1087,-5.1846,-5.1068,-5.1548,-5.3164,-5.3203,-5.3683,-5.453,-5.5338,-5.5703,-5.5703,-5.5703,-5.6722,-5.83,-5.83,-5.9319,-6.08,-6.08,-6.08,-6.08,-6.08,-6.08,-6.08,-6.08,-6.08,-6.08,-6.08,-6.1389,-6.2062,-6.2062,-6.2647,-6.3262,-6.3262,-6.3288,-6.3551,-6.4359,-6.4589,-6.4839,-6.5686,-6.5859,-6.5859,-6.5878,-6.7225,-6.8379,-6.8385,-6.9129,-6.9975,-7.0783,-7.0898,-7.0898,-7.0898,-7.0898,-7.0898,-7.0898,-7.0898,-7.0898,-7.0898,-7.0898,-7.0898,-7.0898,-7.0898,-7.1418,-7.2572,-7.2322,-7.2149,-7.2149,-7.2149,-7.1745,-7.0898,-7.0898,-7.0898,-7.0898,-7.0898,-7.0898,0.0,0.0,-5.6445,-5.7598,0.0,0.0,0.0,0.0,0.0,0.0,0.0,0.0,0.0,0.0,-5.4882,-5.3051,-5.276,-5.1875,0.0,0.0,0.0,0.0,0.0,0.0,0.0,0.0,0.0,-4.5633,-4.5594,-4.5594,0.0,-4.6144,-4.6471,-4.6471,-4.8086,-4.8952,-4.8952,-5.0644,-5.1615,-5.1904,-5.2222,-5.2356,-5.2385,-5.353,-5.3914,-5.3722,-5.5107,-5.5703,-5.5703,-5.5703,-5.6722,-5.83,-5.83,-5.9319,-6.08,-6.08,-6.08,-6.08,-6.08,-6.08,-6.08,-6.08,-6.08,-6.0916,-6.1493,-6.187,-6.2216,-6.2743,-6.3512,-6.4032,-6.3455,-6.4166,-6.4955,-6.4666,-6.5032,-6.5532,-6.584,-6.5897,-6.5897,-6.5897,-6.7244,-6.8385,-6.8385,-6.9571,-7.0591,-7.086,-7.0898,-7.0898,-7.0898,-7.0898,-7.0898,-7.0898,-7.0898,-7.0898,-7.0898,-7.0898,-7.1225,-7.1975,-7.1321,-7.2091,-7.4745,-7.3129,-7.2629,-7.3572,-7.2668,-7.2052,-7.1764,-7.1187,-7.0898,-7.0898,-7.0898,-7.0898,-5.4746,-5.4844,0.0,-5.5918,-5.5957,0.0,-5.6074,0.0,0.0,0.0,0.0,0.0,0.0,0.0,-5.5304,-5.3164,-5.3032,-5.2318,0.0,-4.9183,0.0,0.0,0.0,0.0,0.0,0.0,-4.6547,-4.5671,-4.5594,-4.5594,0.0,0.0,-4.6904,-4.6904,-4.8529,-4.9394,-4.9394,-5.1058,-5.2058,-5.2365,-5.2933,-5.3068,-5.2856,-5.3991,-5.4184,-5.3741,-5.5107,-5.5703,-5.5703,-5.5703,-5.6722,-5.83,-5.83,-5.9319,-6.08,-6.08,-6.08,-6.08,-6.08,-6.08,-6.08,-6.08,-6.08,-6.0954,-6.1851,-6.2312,-6.2627,-6.3147,-6.4147,-6.4859,-6.3993,-6.482,-6.5763,-6.5205,-6.5493,-6.5897,-6.5897,-6.5897,-6.5897,-6.5897,-6.6994,-6.8052,-6.8359,-6.9552,-7.0571,-7.086,-7.0898,-7.0898,-7.0898,-7.0898,-7.0898,-7.0898,-7.0898,-7.0898,-7.0898,-7.0898,-7.1398,-7.2533,-7.1822,-7.2572,-7.5284,-7.363,-7.3091,-7.3995,-7.2822,-7.2245,-7.2341,-7.136,-7.0898,-7.0898,-7.0898,-7.0898]},{"header":{"parameterUnit":"m.s-1","parameterCategory":1,"la1":30.6,"la2":29.2853,"lo1":-89.7004,"lo2":-87.6739,"dy":0.0162,"dx":0.0183,"nx":112,"ny":82,"refTime":"2023-03-25T12:00:00:Z","depth":0,"parameterNumber":3,"parameterNumberName":"V-component_of_WINDS"},"data":[0.0,0.0,0.0,0.0,0.0,0.0,0.0,0.0,0.0,0.0,0.0,0.0,0.0,0.0,0.0,0.0,0.0,0.0,0.0,0.0,0.0,0.0,0.0,0.0,0.0,0.0,0.0,0.0,0.0,0.0,0.0,0.0,0.0,0.0,0.0,0.0,0.0,0.0,0.0,0.0,0.0,0.0,0.0,0.0,0.0,0.0,0.0,0.0,0.0,0.0,0.0,0.0,0.0,0.0,0.0,0.0,0.0,0.0,0.0,0.0,0.0,0.0,0.0,0.0,0.0,0.0,0.0,0.0,0.0,0.0,0.0,0.0,0.0,0.0,0.0,0.0,0.0,0.0,0.0,0.0,0.0,0.0,0.0,0.0,0.0,0.0,0.0,0.0,0.0,0.0,-0.6203,-0.6518,-0.4956,-0.3471,-0.2464,-0.3124,-0.3751,-0.4236,0.0,0.0,0.0,0.0,0.0,0.0,0.0,0.0,0.0,0.0,0.0,0.0,0.0,0.0,0.0,0.0,0.0,0.0,0.0,0.0,0.0,0.0,0.0,0.0,0.0,0.0,0.0,0.0,0.0,0.0,0.0,0.0,0.0,0.0,0.0,0.0,0.0,0.0,0.0,0.0,0.0,0.0,0.0,0.0,0.0,0.0,0.0,0.0,0.0,0.0,0.0,0.0,0.0,0.0,0.0,0.0,0.0,0.0,0.0,0.0,0.0,0.0,0.0,0.0,0.0,0.0,0.0,0.0,0.0,0.0,0.0,0.0,0.0,0.0,0.0,0.0,0.0,0.0,0.0,0.0,0.0,0.0,0.0,0.0,0.0,0.0,0.0,0.0,0.0,0.0,0.0,0.0,0.0,0.0,0.0,0.0,0.0,0.0,0.0,0.0,0.0,0.0,0.0,0.0,-0.6471,-0.6647,-0.5758,-0.507,-0.4877,-0.3967,-0.3995,-0.5288,0.0,0.0,0.0,0.0,0.0,0.0,0.0,0.0,0.0,0.0,0.0,0.0,0.0,0.0,0.0,0.0,0.0,0.0,0.0,0.0,0.0,0.0,0.0,0.0,0.0,0.0,0.0,0.0,0.0,0.0,0.0,0.0,0.0,0.0,0.0,0.0,0.0,0.0,0.0,0.0,0.0,0.0,0.0,0.0,0.0,0.0,0.0,0.0,0.0,0.0,0.0,0.0,0.0,0.0,0.0,0.0,0.0,0.0,0.0,0.0,0.0,0.0,0.0,0.0,0.0,0.0,0.0,0.0,0.0,0.0,0.0,0.0,0.0,0.0,0.0,0.0,0.0,0.0,0.0,0.0,0.0,0.0,0.0,0.0,0.0,0.0,0.0,0.0,0.0,0.0,0.0,0.0,0.0,0.0,0.0,0.0,0.0,0.0,0.0,0.0,0.0,0.0,0.0,-0.7199,-0.6563,-0.68,-0.5866,-0.5254,-0.5226,-0.4524,-0.4534,-0.5555,-0.6672,0.0,0.0,0.0,0.0,0.0,0.0,0.0,0.0,0.0,0.0,0.0,0.0,0.0,0.0,0.0,0.0,0.0,0.0,0.0,0.0,0.0,0.0,0.0,0.0,0.0,0.0,0.0,0.0,0.0,0.0,0.0,0.0,0.0,0.0,0.0,0.0,0.0,0.0,0.0,0.0,0.0,0.0,0.0,0.0,0.0,0.0,0.0,0.0,0.0,0.0,0.0,0.0,0.0,0.0,0.0,0.0,0.0,0.0,0.0,0.0,0.0,0.0,0.0,0.0,0.0,0.0,0.0,0.0,0.0,0.0,0.0,0.0,0.0,0.0,0.0,0.0,0.0,0.0,0.0,0.0,0.0,0.0,0.0,0.0,0.0,0.0,0.0,0.0,0.0,0.0,0.0,0.0,0.0,0.0,0.0,0.0,0.0,0.0,0.0,0.0,0.0,0.0,-0.6505,-0.6485,-0.6787,-0.602,-0.5517,-0.5446,-0.523,-0.5375,-0.5916,-0.6697,0.0,0.0,0.0,0.0,0.0,0.0,0.0,0.0,0.0,0.0,0.0,0.0,0.0,0.0,0.0,0.0,0.0,0.0,0.0,0.0,0.0,0.0,0.0,0.0,0.0,0.0,0.0,0.0,0.0,0.0,0.0,0.0,0.0,0.0,0.0,0.0,0.0,0.0,0.0,0.0,0.0,0.0,0.0,0.0,0.0,0.0,0.0,0.0,0.0,0.0,0.0,0.0,0.0,0.0,0.0,0.0,0.0,0.0,0.0,0.0,0.0,0.0,0.0,0.0,0.0,0.0,0.0,0.0,0.0,0.0,0.0,0.0,0.0,0.0,0.0,0.0,0.0,0.0,0.0,0.0,0.0,0.0,0.0,0.0,0.0,0.0,0.0,0.0,0.0,0.0,0.0,0.0,0.0,0.0,0.0,0.0,0.0,0.0,0.0,0.0,0.0,0.0,-0.6325,-0.6176,-0.6511,-0.6676,-0.668,-0.6431,-0.6398,-0.6537,-0.6977,-0.7051,0.0,0.0,0.0,0.0,0.0,0.0,0.0,0.0,0.0,0.0,0.0,0.0,0.0,0.0,0.0,0.0,0.0,0.0,0.0,0.0,0.0,0.0,0.0,0.0,0.0,0.0,0.0,0.0,0.0,0.0,0.0,0.0,0.0,0.0,0.0,0.0,0.0,0.0,0.0,0.0,0.0,0.0,0.0,0.0,0.0,0.0,0.0,0.0,0.0,0.0,0.0,0.0,0.0,0.0,0.0,0.0,0.0,0.0,0.0,0.0,0.0,0.0,0.0,0.0,0.0,0.0,0.0,0.0,0.0,0.0,0.0,0.0,0.0,0.0,0.0,0.0,0.0,0.0,0.0,0.0,0.0,0.0,0.0,0.0,0.0,0.0,0.0,0.0,0.0,0.0,0.0,0.0,0.0,0.0,0.0,0.0,0.0,0.0,0.0,0.0,0.0,0.0,-0.6529,-0.6386,0.0,-0.663,-0.6597,-0.6521,-0.6429,-0.6532,-0.6937,0.0,0.0,0.0,0.0,0.0,0.0,0.0,0.0,0.0,0.0,0.0,0.0,0.0,0.0,0.0,0.0,0.0,0.0,0.0,0.0,0.0,0.0,0.0,0.0,0.0,0.0,0.0,0.0,0.0,0.0,0.0,0.0,0.0,0.0,0.0,0.0,0.0,0.0,0.0,0.0,0.0,0.0,0.0,0.0,0.0,0.0,0.0,0.0,0.0,0.0,0.0,0.0,0.0,0.0,0.0,0.0,0.0,0.0,0.0,0.0,0.0,0.0,0.0,0.0,0.0,0.0,0.0,0.0,0.0,0.0,0.0,0.0,0.0,0.0,0.0,0.0,0.0,0.0,0.0,0.0,0.0,0.0,0.0,0.0,0.0,0.0,0.0,0.0,0.0,0.0,0.0,0.0,0.0,0.0,0.0,0.0,0.0,0.0,0.0,0.0,0.0,0.0,-0.7052,-0.6519,-0.6369,0.0,-0.6478,-0.6494,-0.645,-0.6358,-0.6451,-0.6859,0.0,0.0,0.0,0.0,0.0,0.0,0.0,0.0,0.0,0.0,0.0,0.0,0.0,0.0,0.0,0.0,0.0,0.0,0.0,0.0,0.0,0.0,0.0,0.0,0.0,0.0,0.0,0.0,0.0,0.0,0.0,0.0,0.0,0.0,0.0,0.0,0.0,0.0,0.0,0.0,0.0,0.0,0.0,0.0,0.0,0.0,0.0,0.0,0.0,0.0,0.0,0.0,0.0,0.0,0.0,0.0,0.0,0.0,0.0,0.0,0.0,0.0,0.0,0.0,0.0,0.0,0.0,0.0,0.0,0.0,0.0,0.0,0.0,0.0,0.0,0.0,0.0,0.0,0.0,0.0,0.0,0.0,0.0,0.0,0.0,0.0,0.0,0.0,0.0,0.0,0.0,0.0,0.0,0.0,0.0,0.0,0.0,0.0,0.0,0.0,0.0,0.0,-0.677,-0.6213,-0.5993,-0.5993,-0.6295,-0.6453,-0.6313,-0.63,-0.6451,0.0,0.0,0.0,0.0,0.0,0.0,0.0,0.0,0.0,0.0,0.0,0.0,0.0,0.0,0.0,0.0,0.0,0.0,0.0,0.0,0.0,0.0,0.0,0.0,0.0,0.0,0.0,0.0,0.0,0.0,0.0,0.0,0.0,0.0,0.0,0.0,0.0,0.0,0.0,0.0,0.0,0.0,0.0,0.0,0.0,0.0,0.0,0.0,0.0,0.0,0.0,0.0,0.0,0.0,0.0,0.0,0.0,0.0,0.0,0.0,0.0,0.0,0.0,0.0,0.0,0.0,0.0,0.0,0.0,0.0,0.0,0.0,0.0,0.0,0.0,0.0,0.0,0.0,0.0,0.0,0.0,0.0,0.0,0.0,0.0,0.0,0.0,0.0,0.0,0.0,0.0,0.0,0.0,0.0,0.0,0.0,0.0,0.0,0.0,0.0,0.0,0.0,0.0,-0.6815,-0.6281,-0.6071,-0.6179,-0.631,-0.6344,-0.6303,-0.63,-0.6451,-0.6859,0.0,0.0,0.0,0.0,0.0,0.0,0.0,0.0,0.0,0.0,0.0,0.0,0.0,0.0,0.0,0.0,0.0,0.0,0.0,0.0,0.0,0.0,0.0,0.0,0.0,0.0,0.0,0.0,0.0,0.0,0.0,0.0,0.0,0.0,0.0,0.0,0.0,0.0,0.0,0.0,0.0,0.0,0.0,0.0,0.0,0.0,0.0,0.0,0.0,0.0,0.0,0.0,0.0,0.0,0.0,0.0,0.0,0.0,0.0,0.0,0.0,0.0,0.0,0.0,0.0,0.0,0.0,0.0,0.0,0.0,0.0,0.0,0.0,0.0,0.0,0.0,0.0,0.0,0.0,0.0,0.0,0.0,0.0,0.0,0.0,0.0,0.0,0.0,0.0,0.0,0.0,0.0,0.0,0.0,0.0,0.0,0.0,0.0,0.0,0.0,0.0,0.0,-0.6843,-0.6308,-0.6027,-0.6159,-0.6262,-0.6323,-0.6378,-0.6385,-0.6525,-0.6817,0.0,0.0,0.0,0.0,0.0,0.0,0.0,0.0,0.0,0.0,0.0,0.0,0.0,0.0,0.0,0.0,0.0,0.0,0.0,0.0,0.0,0.0,0.0,0.0,0.0,0.0,0.0,0.0,0.0,0.0,0.0,0.0,0.0,0.0,0.0,0.0,0.0,0.0,0.0,0.0,0.0,0.0,0.0,0.0,0.0,0.0,0.0,0.0,0.0,0.0,0.0,0.0,0.0,0.0,0.0,0.0,0.0,0.0,0.0,0.0,0.0,0.0,0.0,0.0,0.0,0.0,0.0,0.0,0.0,0.0,0.0,0.0,0.0,0.0,0.0,0.0,0.0,0.0,0.0,0.0,0.0,0.0,0.0,0.0,0.0,0.0,0.0,0.0,0.0,0.0,0.0,0.0,0.0,0.0,0.0,0.0,0.0,0.0,0.0,0.0,0.0,0.0,-0.6826,-0.6329,-0.602,-0.603,-0.6196,-0.6378,-0.6521,-0.6535,-0.6559,-0.6712,0.0,0.0,0.0,0.0,0.0,0.0,0.0,0.0,0.0,0.0,0.0,0.0,0.0,0.0,0.0,0.0,0.0,0.0,0.0,0.0,0.0,0.0,0.0,0.0,0.0,0.0,0.0,0.0,0.0,0.0,0.0,0.0,0.0,0.0,0.0,0.0,0.0,0.0,0.0,0.0,0.0,0.0,0.0,0.0,0.0,0.0,0.0,0.0,0.0,0.0,0.0,0.0,0.0,0.0,0.0,0.0,0.0,0.0,0.0,0.0,-0.7094,0.0,0.0,0.0,0.0,0.0,0.0,0.0,0.0,0.0,0.0,0.0,0.0,0.0,0.0,0.0,0.0,0.0,0.0,0.0,0.0,0.0,0.0,0.0,0.0,0.0,0.0,0.0,0.0,0.0,0.0,0.0,0.0,0.0,0.0,0.0,0.0,0.0,0.0,0.0,0.0,0.0,-0.6875,-0.6488,-0.6293,-0.6366,-0.6446,-0.6528,-0.6637,-0.6651,-0.6715,-0.6829,-0.6797,0.0,0.0,0.0,0.0,0.0,0.0,0.0,0.0,0.0,0.0,0.0,0.0,0.0,0.0,0.0,0.0,0.0,0.0,0.0,0.0,0.0,0.0,0.0,0.0,0.0,0.0,0.0,0.0,0.0,0.0,0.0,0.0,0.0,0.0,0.0,0.0,0.0,0.0,0.0,0.0,0.0,0.0,0.0,0.0,0.0,0.0,0.0,0.0,0.0,0.0,0.0,0.0,0.0,0.0,0.0,0.0,0.0,0.0,0.0,0.0,-0.7027,0.0,0.0,0.0,0.0,0.0,0.0,0.0,0.0,0.0,0.0,0.0,0.0,0.0,0.0,0.0,0.0,0.0,0.0,0.0,0.0,0.0,0.0,0.0,0.0,0.0,0.0,0.0,0.0,0.0,0.0,0.0,0.0,0.0,0.0,0.0,0.0,0.0,0.0,0.0,0.0,-0.7122,-0.6685,-0.646,-0.6566,-0.658,-0.6644,-0.6797,-0.681,-0.6844,-0.6879,-0.6876,0.0,0.0,0.0,0.0,0.0,0.0,0.0,0.0,0.0,0.0,0.0,0.0,0.0,0.0,0.0,0.0,0.0,0.0,0.0,0.0,0.0,0.0,0.0,0.0,0.0,0.0,0.0,0.0,0.0,0.0,0.0,0.0,0.0,0.0,0.0,0.0,0.0,0.0,0.0,0.0,0.0,0.0,0.0,0.0,0.0,0.0,0.0,0.0,0.0,0.0,0.0,0.0,0.0,-0.784,-0.7907,-0.7948,-0.7924,-0.7821,-0.756,-0.7277,-0.7027,-0.6808,0.0,0.0,0.0,0.0,0.0,0.0,0.0,0.0,0.0,0.0,0.0,0.0,0.0,0.0,0.0,0.0,0.0,0.0,0.0,0.0,0.0,0.0,0.0,0.0,0.0,-0.7587,-0.7444,0.0,0.0,0.0,0.0,0.0,0.0,0.0,0.0,0.0,0.0,0.0,0.0,-0.7302,-0.6851,-0.6569,-0.6722,-0.6742,-0.68,-0.691,-0.6923,-0.6913,-0.6886,-0.6994,-0.7018,0.0,0.0,0.0,0.0,0.0,0.0,0.0,0.0,0.0,0.0,0.0,0.0,0.0,0.0,0.0,0.0,0.0,0.0,0.0,0.0,0.0,0.0,0.0,0.0,0.0,0.0,0.0,0.0,0.0,0.0,0.0,0.0,-0.7251,-0.7387,0.0,0.0,0.0,0.0,0.0,0.0,0.0,0.0,0.0,0.0,0.0,0.0,0.0,-0.7872,-0.7948,-0.7892,-0.7896,-0.7944,-0.7624,-0.7584,-0.7838,-0.7712,-0.7584,-0.7419,-0.7516,0.0,-0.7287,-0.7392,0.0,0.0,0.0,0.0,0.0,0.0,0.0,0.0,0.0,0.0,0.0,0.0,0.0,0.0,0.0,0.0,0.0,0.0,0.0,0.0,0.0,0.0,-0.7756,-0.7651,-0.7597,-0.7577,0.0,-0.7614,-0.7628,-0.7628,-0.7645,0.0,0.0,0.0,0.0,0.0,0.0,0.0,-0.7139,-0.6878,-0.6729,-0.6839,-0.6856,-0.6913,-0.7055,-0.7068,-0.7014,-0.6893,-0.6903,-0.696,-0.7065,-0.7085,0.0,0.0,0.0,0.0,0.0,0.0,0.0,0.0,0.0,0.0,0.0,0.0,0.0,0.0,0.0,0.0,0.0,0.0,0.0,0.0,0.0,0.0,0.0,0.0,0.0,0.0,0.0,0.0,0.0,-0.7553,-0.7512,-0.7502,-0.7631,-0.7777,0.0,0.0,0.0,0.0,0.0,0.0,0.0,0.0,0.0,-0.7894,-0.8024,-0.8058,-0.7988,-0.8058,-0.8102,-0.8167,-0.8072,-0.8082,-0.8184,-0.8069,-0.7941,-0.7894,-0.7826,-0.7773,-0.7715,-0.7597,-0.7486,-0.752,0.0,0.0,0.0,0.0,-0.7988,-0.7988,-0.7988,-0.7988,0.0,0.0,0.0,0.0,0.0,0.0,0.0,0.0,0.0,0.0,0.0,0.0,0.0,-0.7753,-0.7719,-0.7719,-0.7719,-0.7655,-0.76,0.0,-0.7665,-0.774,-0.7801,0.0,0.0,0.0,0.0,-0.7248,-0.7268,-0.7014,-0.6885,-0.6991,-0.7004,-0.7028,-0.7092,-0.7095,-0.7068,-0.7007,-0.7004,-0.7031,-0.7095,-0.7224,-0.7363,0.0,0.0,0.0,0.0,0.0,0.0,0.0,0.0,0.0,0.0,0.0,0.0,0.0,0.0,0.0,0.0,0.0,0.0,0.0,0.0,0.0,0.0,0.0,0.0,0.0,0.0,0.0,0.0,-0.7665,-0.7624,-0.7556,-0.7634,-0.7756,0.0,0.0,0.0,0.0,0.0,0.0,-0.7872,-0.8123,-0.8218,-0.8102,-0.8211,-0.8235,-0.8153,-0.8265,-0.8343,-0.8384,-0.8452,-0.8496,-0.8523,-0.8503,-0.8356,-0.8211,-0.8214,-0.8217,-0.819,-0.7865,-0.7577,-0.7368,-0.7816,-0.7988,-0.7998,-0.8073,-0.815,-0.8105,-0.816,-0.811,-0.8069,-0.8096,0.0,-0.8092,-0.8002,0.0,0.0,0.0,0.0,-0.7965,-0.7899,-0.7904,-0.7961,-0.7896,-0.7868,-0.7868,-0.7868,-0.7787,-0.7689,0.0,-0.7685,-0.777,-0.7804,0.0,0.0,0.0,0.0,-0.7241,-0.7402,-0.7146,-0.6994,-0.7183,-0.7119,-0.7095,-0.7095,-0.7095,-0.7095,-0.7095,-0.7095,-0.7112,-0.7197,-0.7312,-0.7453,-0.7482,0.0,0.0,0.0,0.0,0.0,0.0,0.0,0.0,0.0,0.0,0.0,0.0,0.0,0.0,0.0,0.0,0.0,0.0,0.0,0.0,0.0,0.0,0.0,0.0,0.0,0.0,0.0,0.0,0.0,-0.7387,-0.7436,0.0,0.0,0.0,0.0,-0.7811,-0.8082,-0.8184,-0.7985,-0.818,-0.832,-0.8258,-0.832,-0.8333,-0.8459,-0.8469,-0.8547,-0.8686,-0.855,-0.8533,-0.8585,-0.877,-0.8544,-0.8035,-0.8595,-0.8838,-0.8794,-0.8207,-0.7958,-0.7948,-0.7978,-0.7988,-0.8022,-0.8357,-0.8478,-0.8472,-0.8565,-0.843,-0.8288,-0.8431,-0.837,-0.8231,-0.8032,-0.7988,0.0,0.0,-0.7988,-0.7988,-0.7982,-0.7985,-0.7988,-0.7982,-0.7978,-0.7978,-0.7978,-0.7971,-0.7884,0.0,-0.7604,-0.7651,-0.7787,0.0,-0.76,-0.7607,-0.7468,-0.7409,-0.7415,-0.7227,-0.7187,-0.7343,-0.7227,-0.7095,-0.7095,-0.7095,-0.7095,-0.7095,-0.7095,-0.7207,-0.7398,-0.7412,-0.7502,-0.7784,-0.7804,0.0,0.0,0.0,0.0,0.0,0.0,0.0,0.0,0.0,0.0,0.0,0.0,0.0,0.0,0.0,0.0,0.0,0.0,0.0,0.0,0.0,0.0,0.0,0.0,0.0,0.0,0.0,0.0,-0.752,-0.7617,0.0,-0.7868,-0.788,-0.8001,-0.8099,-0.8208,-0.833,-0.8462,-0.8618,-0.8743,-0.889,-0.8989,-0.896,-0.8968,-0.8968,-0.8896,-0.8801,-0.8801,-0.8798,-0.878,-0.8851,-0.8767,-0.8578,-0.879,-0.8885,-0.8868,-0.8652,-0.8339,-0.7988,-0.7988,-0.7988,-0.8002,-0.8157,-0.8295,-0.8497,-0.8431,-0.826,-0.8103,-0.8187,-0.8163,-0.8113,-0.8005,-0.7988,-0.7988,-0.7988,-0.7988,-0.7988,-0.7988,-0.7988,-0.7988,-0.7988,-0.7988,-0.7988,-0.7988,-0.7988,-0.7958,-0.7853,-0.7804,-0.775,-0.7801,-0.7692,-0.7631,-0.7723,-0.7611,-0.7519,-0.7519,-0.7472,-0.7458,-0.7512,-0.7468,-0.7434,-0.7434,-0.7434,-0.7434,-0.7434,-0.7434,-0.7461,-0.7516,-0.7519,-0.7567,-0.7675,-0.7767,-0.7838,0.0,0.0,0.0,0.0,0.0,0.0,0.0,0.0,0.0,0.0,0.0,0.0,0.0,0.0,0.0,0.0,0.0,0.0,0.0,0.0,0.0,0.0,0.0,0.0,0.0,0.0,-0.7607,-0.7832,-0.7839,-0.795,-0.8102,-0.816,-0.8231,-0.8333,-0.8535,-0.8705,-0.8849,-0.9005,-0.9133,-0.9282,-0.9327,-0.9334,-0.9286,-0.9234,-0.9159,-0.9011,-0.8905,-0.8885,-0.8885,-0.8885,-0.8885,-0.8885,-0.8885,-0.8885,-0.8885,-0.8885,-0.8649,-0.8285,-0.8217,-0.8221,-0.8299,-0.8248,-0.8384,-0.8589,-0.844,-0.8268,-0.8109,-0.8008,-0.7988,-0.7988,-0.7988,-0.7988,-0.7988,-0.7988,-0.7988,-0.7988,-0.7988,-0.7988,-0.7988,-0.7988,-0.7988,-0.7988,-0.7988,-0.7988,-0.7988,-0.7988,-0.7907,-0.7889,-0.7889,-0.7767,-0.7702,-0.7797,-0.7692,-0.7617,-0.7665,-0.7631,-0.7617,-0.7665,-0.7628,-0.76,-0.76,-0.76,-0.76,-0.76,-0.76,-0.7621,-0.7668,-0.7672,-0.7695,-0.7746,-0.7841,-0.7889,-0.7889,0.0,0.0,0.0,0.0,0.0,0.0,0.0,0.0,0.0,0.0,0.0,0.0,0.0,0.0,0.0,0.0,0.0,0.0,0.0,0.0,0.0,0.0,0.0,-0.7356,-0.7621,-0.7941,-0.8241,-0.812,-0.8113,-0.8269,-0.8414,-0.8499,-0.8509,-0.8968,-0.9221,-0.9231,-0.931,-0.9391,-0.9395,-0.9395,-0.9391,-0.9381,-0.9296,-0.9217,-0.92,-0.9015,-0.8895,-0.8892,-0.8885,-0.8885,-0.8885,-0.8885,-0.8885,-0.8885,-0.8885,-0.8881,-0.8854,-0.8662,-0.8743,-0.8892,-0.8766,-0.8798,-0.8821,-0.8577,-0.8381,-0.8238,-0.8089,-0.7988,-0.7988,-0.7988,-0.7988,-0.7988,-0.7988,-0.7988,-0.7988,-0.7988,-0.7988,-0.7988,-0.7988,-0.7988,-0.7988,-0.7988,-0.7988,-0.7988,-0.7988,-0.7988,-0.7988,-0.7988,-0.7916,-0.7818,-0.7818,-0.7702,0.0,-0.7801,-0.7699,-0.7665,-0.7804,-0.7699,-0.7617,-0.7614,-0.7617,-0.7617,-0.7614,-0.7614,-0.7675,-0.7814,-0.7818,-0.7889,-0.7985,-0.7988,-0.7988,-0.7988,0.0,0.0,0.0,0.0,0.0,0.0,0.0,0.0,0.0,0.0,0.0,0.0,0.0,0.0,0.0,0.0,0.0,0.0,0.0,0.0,0.0,0.0,-0.7502,-0.7418,-0.7637,-0.7828,-0.7927,-0.8192,-0.8421,-0.8574,-0.8723,-0.8903,-0.912,-0.9249,-0.9412,-0.9625,-0.9581,-0.9595,-0.9696,-0.97,-0.9598,-0.9384,-0.9449,-0.932,-0.8998,-0.9178,-0.9201,-0.9089,-0.8988,-0.8885,-0.8885,-0.8885,-0.8885,-0.8885,-0.8885,-0.891,-0.8885,-0.8605,-0.8656,-0.8913,-0.8864,-0.8704,-0.8433,-0.837,-0.8228,-0.8096,-0.8005,-0.7988,-0.7988,-0.7988,-0.7988,-0.7988,-0.7988,-0.7988,-0.7988,-0.7988,-0.7988,-0.7988,-0.7988,-0.7988,-0.7988,-0.7988,-0.7988,-0.7988,-0.7988,-0.7988,-0.7988,-0.7988,-0.7955,-0.7928,-0.7928,-0.7894,0.0,-0.7921,-0.7894,-0.7884,-0.7924,-0.8041,-0.8041,-0.788,-0.8021,-0.8038,-0.7877,-0.787,-0.7887,-0.7924,-0.7928,-0.7948,-0.7988,-0.7988,-0.7988,0.0,0.0,0.0,0.0,0.0,0.0,0.0,0.0,0.0,0.0,0.0,0.0,0.0,0.0,0.0,0.0,0.0,0.0,0.0,0.0,0.0,0.0,-0.7638,-0.7617,-0.7856,-0.7971,-0.8076,-0.822,-0.8525,-0.8757,-0.8971,-0.913,-0.9293,-0.9462,-0.9534,-0.9639,-0.9812,-0.9744,-0.9737,-0.9819,-0.9822,-0.9737,-0.9568,-0.9595,-0.9479,-0.9222,-0.933,-0.9334,-0.9306,-0.9201,-0.9096,0.0,-0.9028,-0.8959,-0.8885,-0.8885,-0.8927,0.0,0.0,0.0,0.0,0.0,-0.8705,-0.8492,-0.8465,-0.8353,-0.8225,-0.8225,-0.8184,-0.8136,-0.8136,-0.8092,-0.7988,-0.7988,-0.7988,-0.7988,-0.7988,-0.7988,-0.7988,-0.7988,-0.7988,-0.7988,-0.7988,-0.7988,-0.7988,-0.7988,-0.7988,0.0,-0.7988,-0.7988,-0.7988,-0.7988,-0.7988,-0.7988,-0.7988,-0.7988,-0.7988,-0.7988,-0.8119,-0.8136,-0.7995,-0.8123,0.0,0.0,0.0,-0.7988,-0.7988,-0.7988,0.0,0.0,0.0,-0.7988,-0.7988,0.0,0.0,0.0,-0.8019,-0.7988,0.0,0.0,0.0,0.0,0.0,0.0,0.0,0.0,0.0,0.0,0.0,0.0,0.0,0.0,0.0,0.0,-0.7761,-0.7802,-0.8458,-0.8465,-0.8548,-0.8874,-0.897,-0.91,-0.9378,-0.953,-0.9625,-0.9656,-0.9774,-0.9846,-0.9846,0.0,0.0,0.0,0.0,-0.9815,-0.9798,-0.969,-0.9615,-0.9585,-0.9479,-0.9422,-0.9408,-0.9486,-0.9405,-0.9279,-0.9238,-0.908,-0.8915,-0.8892,-0.8885,-0.8885,-0.8885,-0.8914,-0.8919,-0.8889,-0.8842,-0.871,-0.871,0.0,0.0,-0.8482,-0.8397,-0.8347,-0.8347,-0.8187,-0.8015,-0.8015,-0.8005,-0.7988,-0.7988,-0.7988,-0.7988,-0.7988,-0.7988,-0.7988,-0.7988,-0.7988,-0.7988,-0.7988,-0.7988,-0.7988,-0.7988,-0.7988,-0.7988,-0.7988,-0.7988,-0.7988,-0.7988,-0.7988,-0.7988,-0.7988,0.0,0.0,-0.7992,-0.8005,-0.8008,-0.7992,-0.7988,-0.7988,-0.7988,-0.7988,-0.7988,-0.7988,-0.7988,-0.7998,-0.8015,-0.8204,-0.833,-0.834,-0.8136,-0.8015,0.0,0.0,0.0,0.0,0.0,0.0,0.0,0.0,0.0,0.0,0.0,0.0,0.0,0.0,0.0,-0.8305,-0.8401,-0.8547,-0.8991,-0.9163,-0.9167,-0.9167,-0.9242,-0.9367,-0.9547,-0.9591,-0.9707,-0.9883,-0.9926,-0.9943,-0.9943,-0.9943,0.0,-0.9825,-0.9822,-0.9768,-0.9652,-0.9737,-0.9659,-0.9429,0.0,0.0,-0.9564,-0.9596,-0.963,-0.9639,-0.9357,-0.9158,-0.9111,-0.8949,-0.8885,-0.8885,-0.8885,-0.892,-0.8899,-0.8875,-0.8842,-0.871,-0.871,-0.8611,-0.8482,-0.8482,-0.8462,-0.8442,-0.8442,-0.834,0.0,-0.8225,-0.8136,-0.7988,-0.7988,-0.7988,-0.7988,-0.7988,-0.7988,-0.7988,-0.7988,-0.7988,-0.7988,-0.7988,-0.7988,-0.7988,-0.7988,-0.7988,-0.7988,-0.7988,-0.7988,-0.7988,-0.7988,-0.7988,-0.7988,-0.7988,-0.815,-0.8174,-0.8002,-0.8153,-0.8174,-0.7995,-0.7988,-0.7988,-0.7988,-0.7988,-0.7988,-0.7988,-0.7988,-0.8102,-0.8225,-0.8255,-0.8381,-0.8438,-0.8292,-0.8225,0.0,0.0,0.0,0.0,0.0,0.0,0.0,0.0,0.0,0.0,0.0,-0.8262,0.0,0.0,-0.8398,-0.8781,-0.8952,-0.9151,-0.9361,-0.9574,-0.9632,-0.9408,-0.9449,-0.9554,-0.97,-0.9785,-0.9829,-0.9977,-1.012,-1.0164,-1.0164,-1.0164,-1.0093,-0.9879,-0.9872,-0.9866,-0.9717,-0.9785,-0.9747,-0.9602,-0.9751,-0.9785,-0.9713,-0.9686,-0.9727,-0.9808,-0.9493,-0.9414,-0.9364,-0.914,-0.9093,-0.9154,-0.9076,-0.9001,-0.8885,-0.8885,-0.8834,-0.8825,-0.8825,-0.8774,-0.871,-0.871,-0.8659,-0.8598,-0.8598,-0.8492,-0.8377,-0.8377,-0.8319,-0.8262,-0.8262,-0.8262,-0.8262,-0.8262,-0.8262,-0.8241,-0.817,-0.8153,-0.8133,-0.8005,-0.7988,-0.7988,-0.7988,-0.7988,-0.7988,-0.7988,-0.7988,-0.7988,-0.7988,-0.7988,-0.7988,-0.7988,-0.8109,-0.8123,-0.7995,-0.8109,-0.8123,-0.7995,-0.7988,-0.7988,-0.7988,-0.7988,-0.7988,-0.7988,-0.8116,-0.8194,-0.8323,-0.8418,-0.8526,-0.8594,-0.8523,-0.8448,0.0,0.0,0.0,0.0,0.0,0.0,0.0,0.0,-0.8194,-0.833,-0.8472,-0.8601,-0.8693,-0.8859,-0.9039,-0.9268,-0.9469,-0.9669,-0.973,-0.9944,-0.9998,-0.9727,-0.9669,-0.9696,-0.9812,-0.9872,-0.9967,-1.0027,-1.0209,-1.0293,-1.0321,-1.0321,-1.0253,-1.0038,-1.0031,-0.9957,-0.9866,-0.9812,-0.9798,-0.9822,-0.9822,-0.9822,-0.9822,-0.9822,-0.9822,-0.9819,-0.9667,-0.961,-0.9541,-0.9337,-0.9326,-0.9367,-0.9303,-0.9127,-0.9022,-0.8991,-0.8981,-0.8977,-0.8892,-0.8885,-0.8885,-0.8885,-0.8855,-0.8754,-0.8754,-0.8648,-0.8526,-0.8526,-0.8506,-0.8482,-0.8482,-0.8482,-0.8482,-0.8482,-0.8482,-0.8452,-0.8388,-0.8364,-0.8275,-0.815,-0.8076,-0.8076,-0.8076,-0.8076,-0.8056,-0.7998,-0.7988,-0.7988,-0.7988,-0.7988,-0.7988,-0.7988,-0.8015,-0.8046,-0.8073,-0.8049,-0.8046,-0.8073,-0.8076,-0.8076,-0.8076,-0.8076,-0.8076,-0.8076,-0.8248,-0.8326,-0.8357,-0.8594,-0.8726,-0.8754,-0.8723,-0.8645,0.0,-0.1711,-0.4196,-0.6894,-0.7822,-0.809,0.0,0.0,-0.8644,-0.8648,-0.8781,-0.8797,-0.873,-0.894,-0.9279,-0.951,-0.9816,-1.0084,-1.0231,-1.0236,-1.0192,-0.9957,-0.988,-0.9802,-0.9819,-0.9836,-0.9961,-1.0236,-1.027,-1.0334,-1.0463,-1.047,-1.0402,-1.0259,-1.0253,-1.0181,-0.9963,-1.0,-0.9933,-0.9822,-0.9822,-0.9822,-0.9822,-0.9822,-0.9822,-0.9815,-0.9686,-0.9544,-0.9395,-0.9367,-0.9364,-0.9381,-0.9361,-0.9347,-0.9317,-0.9234,-0.9187,-0.9166,-0.8984,-0.8885,-0.8885,-0.8885,-0.8871,-0.8858,-0.8858,-0.8808,-0.8682,-0.8682,-0.8587,-0.8482,-0.8482,-0.8482,-0.8482,-0.8482,-0.8482,-0.8479,-0.8462,-0.8459,-0.8455,-0.8435,-0.8431,-0.8431,-0.8431,-0.8431,-0.8343,-0.8029,-0.7988,-0.7988,-0.7988,-0.7988,-0.7988,-0.7988,-0.8163,-0.8296,-0.8421,-0.8319,-0.8299,-0.8425,-0.8431,-0.8431,-0.8431,-0.8431,-0.8431,-0.8431,-0.8448,-0.8526,-0.8662,-0.8696,-0.8781,-0.8854,-0.8774,-0.8703,-0.1162,-0.2567,-0.4241,-0.5919,-0.7312,-0.8361,-0.8678,-0.8784,-0.887,-0.8971,-0.9089,-0.9205,-0.9228,-0.9401,-0.9612,0.0,-1.0053,-1.0263,-1.0263,-1.028,-1.0192,-0.9944,-0.9859,-0.9822,-0.9822,-0.9985,-1.0103,-1.0144,-1.0388,-1.0524,-1.0493,-1.0575,-1.0558,-1.0409,-1.0405,-1.0334,-1.0185,-1.0144,-1.0066,-0.9893,-1.0046,-1.0056,-0.993,-0.9937,-0.9883,-0.9819,-0.9758,-0.9696,-0.9632,-0.9547,-0.9561,-0.9629,-0.9547,-0.9564,-0.9608,-0.9371,-0.9344,-0.9266,-0.9117,-0.9062,-0.9049,-0.8964,-0.8885,-0.8885,-0.8885,-0.8841,-0.879,-0.879,-0.8798,-0.8747,-0.8747,-0.8747,-0.8747,-0.8747,-0.8747,-0.8723,-0.8635,-0.8615,-0.8587,-0.8499,-0.8482,-0.8482,-0.8482,-0.8482,-0.8438,-0.8316,-0.8228,-0.8174,-0.8174,-0.8174,-0.8208,-0.8286,-0.8353,-0.8418,-0.8476,-0.8428,-0.8418,-0.8479,-0.8482,-0.8482,-0.8482,-0.8482,-0.8482,-0.8482,-0.857,-0.8648,-0.871,-0.8801,-0.8821,-0.8881,-0.8817,-0.879,-0.2576,-0.4054,-0.5322,-0.5965,-0.7451,-0.8788,-0.9056,-0.9114,-0.9225,-0.9408,-0.9422,-0.9479,-0.9588,-0.9693,-0.9825,-0.9957,-1.0178,-1.031,-1.0388,-1.0365,-1.0243,-0.9978,-0.9873,-0.9822,-0.9822,-1.0022,-1.0124,-0.9994,-1.0392,-1.0568,-1.0493,-1.0636,-1.067,-1.0558,-1.0555,-1.0483,-1.0341,-1.0371,-1.0243,-1.0088,-1.0257,-1.0203,-1.0069,-1.0091,-0.9988,-0.9886,-0.9927,-0.9924,-0.9876,-0.9774,-0.9768,-0.9812,-0.9707,-0.973,-0.9795,-0.9581,-0.9479,-0.9422,-0.9326,-0.9272,-0.9255,-0.9096,-0.9032,-0.9005,-0.9049,-0.8949,-0.8892,-0.8988,-0.8967,-0.8885,-0.8885,-0.8885,-0.8885,-0.8885,-0.8967,-0.8957,-0.8804,-0.8804,-0.8788,-0.8635,-0.8608,-0.8608,-0.8608,-0.8608,-0.8594,-0.855,-0.8459,-0.8377,-0.8385,-0.8381,-0.8384,-0.853,-0.8506,-0.8516,-0.8601,-0.857,-0.8564,-0.8604,-0.8608,-0.8608,-0.8608,-0.8608,-0.8608,-0.8608,-0.8754,-0.8811,-0.8774,-0.8923,-0.8977,-0.8885,-0.8885,-0.8905,-0.4102,-0.6246,-0.825,-0.8662,-0.8984,-0.9235,-0.954,-0.9666,-0.9824,-0.9967,-0.9798,-0.9605,-0.9608,-0.9612,-0.971,-0.994,-1.0178,-1.0382,-1.0666,-1.0578,-1.0429,-1.0283,-1.0002,-0.9822,0.0,-0.9829,-0.9893,-0.9977,-1.0202,-1.0351,-1.0483,-1.0636,-1.0717,-1.0714,-1.0714,-1.0639,-1.0487,-1.0494,-1.0402,-1.028,-1.0274,-1.0267,-1.0277,-1.031,-1.0185,-0.9987,-1.0202,-1.0181,-0.998,-0.9974,-0.9889,-0.9822,-0.9815,-0.9819,-0.9819,-0.9812,-0.972,-0.9581,-0.9425,-0.9374,-0.9374,-0.9367,-0.9323,-0.9231,-0.9323,-0.9167,-0.8967,-0.9163,-0.9045,-0.8885,-0.8885,-0.8885,-0.8885,-0.8885,-0.9045,-0.9163,-0.896,-0.9042,-0.9152,-0.8954,-0.8868,-0.8868,-0.8868,-0.8868,-0.8817,-0.8726,-0.8699,-0.8645,-0.8496,-0.8476,-0.8533,-0.8686,-0.857,-0.8601,-0.8844,-0.8791,-0.8767,-0.8861,-0.8868,-0.8868,-0.8868,-0.8868,-0.8868,-0.8868,-0.9066,-0.9072,-0.8875,-0.9076,-0.9076,-0.8885,-0.8885,-0.89,-0.5304,0.0,-0.7572,-0.8401,-0.912,-0.9721,-1.0214,-1.009,-0.9948,-0.9866,-0.9663,-0.9425,-0.9323,-0.9364,-0.9435,-0.9832,-1.0006,-1.0214,-1.0649,-1.0607,-1.039,-1.0016,-0.9964,0.0,0.0,0.0,0.0,-0.9974,-1.028,-1.0439,-1.049,-1.0636,-1.0721,-1.0721,-1.0721,-1.0697,-1.0643,-1.0627,-1.0551,-1.0419,-1.0451,-1.04,-1.0402,-1.0436,-1.0341,-1.0205,-1.0256,-1.0195,-0.9987,-0.9987,-0.9899,-0.9822,-0.9822,-0.9822,-0.9822,-0.9822,-0.9791,-0.973,-0.9585,-0.9534,-0.9517,-0.9415,-0.9347,-0.9313,-0.9364,-0.9313,-0.9242,-0.9293,-0.9195,-0.9083,-0.9083,-0.9083,-0.9083,-0.9083,-0.9195,-0.9293,-0.9242,-0.9269,-0.9259,-0.911,-0.9083,-0.9052,-0.8898,-0.8885,-0.8865,-0.8814,-0.8774,-0.8693,-0.8638,-0.8723,-0.8804,-0.8801,-0.8815,-0.8825,-0.8875,-0.8977,-0.8984,-0.8888,-0.9028,-0.9083,-0.9083,-0.9083,-0.907,-0.9114,-0.9161,-0.9222,-0.9232,-0.9061,-0.8954,-0.8904,-0.8925,-0.913,0.0,-0.759,-0.8024,-0.876,-0.9496,-1.0132,-1.0412,-1.0251,-0.9967,-0.9795,-0.9466,-0.9178,-0.9025,-0.9006,-0.9069,-0.9537,-0.9657,-0.991,-1.0478,-1.04,-1.0223,-1.0046,-0.9988,-0.9875,0.0,0.0,0.0,-0.9974,-1.0324,-1.049,-1.049,-1.0636,-1.0721,-1.0721,-1.0721,-1.0721,-1.0721,-1.0721,-1.0651,-1.0581,-1.0553,-1.0544,-1.0493,-1.0548,-1.0493,-1.0358,-1.0415,-1.0321,-1.0131,-1.0131,-1.0008,-0.9822,-0.9822,-0.9822,-0.9822,-0.9822,-0.9822,-0.9808,-0.9717,-0.9686,-0.9669,-0.9571,-0.9503,-0.9473,-0.9523,-0.9466,-0.9391,-0.9449,-0.9354,-0.9292,-0.9292,-0.9292,-0.9292,-0.9292,-0.9351,-0.9449,-0.9395,-0.9422,-0.9418,-0.932,-0.9248,-0.918,-0.9032,-0.8974,-0.8885,-0.8885,-0.8855,-0.8791,-0.8791,-0.8821,-0.8885,-0.8885,-0.8984,-0.9015,-0.9015,-0.915,-0.9195,-0.9103,-0.9184,-0.9292,-0.9292,-0.9292,-0.9222,-0.92,-0.9315,-0.9374,-0.9381,-0.9276,-0.9168,-0.9054,-0.8964,-0.9178,-0.9111,-0.9405,-0.9653,-0.9809,-1.0159,-1.033,-1.0179,-1.0085,-1.0002,-0.9646,-0.9228,-0.8814,0.0,0.0,-0.8638,-0.914,-0.9201,-0.9478,-1.0211,-1.0019,-1.0002,0.0,0.0,0.0,0.0,0.0,0.0,-1.0,0.0,-1.0487,-1.0504,-1.0639,-1.0721,-1.0721,-1.0721,-1.0721,-1.0721,-1.0721,-1.0721,-1.0721,-1.0721,-1.0643,-1.0507,-1.0653,-1.0639,-1.051,-1.0656,-1.0558,-1.029,-1.029,-1.011,-0.9832,-0.9832,-0.9829,-0.9822,-0.9822,-0.9822,-0.9822,-0.9822,-0.9822,-0.9822,-0.9822,-0.973,-0.9646,-0.9781,-0.9625,-0.9435,-0.9581,-0.951,-0.9395,-0.9395,-0.9395,-0.9395,-0.9395,-0.951,-0.9581,-0.9435,-0.9517,-0.9574,-0.9422,-0.932,-0.921,-0.921,-0.9032,-0.8885,-0.8885,-0.8885,-0.8885,-0.8885,-0.8885,-0.8885,-0.8885,-0.9066,-0.921,-0.921,-0.93,-0.9391,-0.9381,-0.9388,-0.9395,-0.9395,-0.9395,-0.9336,-0.9224,-0.9485,-0.9547,-0.9405,-0.9665,-0.9655,-0.9395,-0.9084,-0.9101,-0.9401,-0.9795,-1.0151,-1.0203,-1.0456,-1.0526,-1.0206,-0.9958,-0.9766,-0.9381,-0.8913,-0.8554,0.0,0.0,0.0,-0.9116,-0.9374,0.0,-1.0345,-1.0466,0.0,-1.0331,0.0,-1.028,-1.0078,-1.0219,0.0,0.0,-1.0351,-1.0429,-1.0649,-1.07,-1.0721,-1.0721,-1.0721,-1.0721,-1.0721,-1.0721,-1.0721,-1.0721,-1.0721,-1.07,-1.0663,-1.0704,-1.07,-1.0663,-1.0704,-1.0612,-1.0436,-1.0436,-1.0263,-0.993,-0.993,-0.9859,-0.9822,-0.9822,-0.9822,-0.9822,-0.9822,-0.9822,-0.9822,-0.9822,-0.9795,-0.9774,-0.9812,-0.9768,-0.9717,-0.9754,-0.9663,-0.9551,-0.9551,-0.9551,-0.9551,-0.9551,-0.9663,-0.9754,-0.9717,-0.9741,-0.9724,-0.9581,-0.9337,-0.921,-0.921,-0.9032,-0.8885,-0.8885,-0.8885,-0.8885,-0.8885,-0.8885,-0.8885,-0.8885,-0.9066,-0.921,-0.921,-0.9398,-0.9503,-0.9388,-0.949,-0.9551,-0.9551,-0.9551,-0.9602,-0.9647,-0.9687,-0.9747,-0.9707,-0.9642,-0.9591,-0.9672,-0.9432,-0.9404,-0.9839,-1.0181,-1.0493,-1.0506,-1.054,-1.0459,-0.9966,-0.9633,-0.9286,-0.894,-0.8661,-0.8343,-0.8197,-0.8119,-0.8285,0.0,0.0,0.0,-1.0209,-1.0358,-1.0395,0.0,-1.0463,0.0,-1.0293,-1.0447,-1.0586,0.0,-1.0517,-1.0544,-1.0711,-1.0721,-1.0721,-1.0721,-1.0721,-1.0721,-1.0721,-1.0721,-1.0721,-1.0721,-1.0721,-1.0721,-1.0721,-1.0721,-1.0721,-1.0721,0.0,-1.0633,-1.049,-1.049,-1.0358,-1.0151,-1.0151,-1.0097,-1.0012,-0.9947,-0.9964,-1.0002,-0.9869,-0.9866,-0.9849,-0.9842,-0.9822,-0.9822,-0.9822,-0.9822,-0.9822,-0.9822,-0.9764,-0.9703,-0.9703,-0.9703,-0.9703,-0.9703,-0.9764,-0.9822,-0.9822,-0.9822,-0.9778,-0.9639,-0.9469,-0.9334,-0.9323,-0.913,-0.9032,-0.9032,-0.8981,-0.8885,-0.8885,-0.8885,-0.8885,-0.8885,-0.9127,-0.9309,-0.9309,-0.953,-0.9666,-0.9581,-0.9656,-0.9703,-0.9703,-0.9703,-0.9741,-0.9819,-0.9822,-0.9822,-0.9822,-0.968,-0.9703,-0.9823,-0.9675,-0.9681,-1.0297,-1.0555,-1.0775,-1.0755,-1.0553,-1.0236,-0.9648,-0.9183,-0.8807,-0.8517,-0.834,-0.8201,-0.8015,-0.7899,-0.8039,-0.8627,0.0,-0.9084,-0.9925,-1.0087,-1.0199,-1.0677,-1.0536,-1.0506,-1.0707,-1.0671,-1.0713,-1.0711,-1.0721,-1.0721,-1.0721,-1.0721,-1.0721,-1.0721,-1.0721,-1.0721,-1.0721,-1.0721,-1.0721,-1.0721,-1.0721,-1.0721,-1.0721,-1.0721,-1.0721,-1.0721,0.0,0.0,-1.0521,-1.0521,-1.0436,-1.031,-1.031,-1.0297,-1.0263,-1.0131,-1.0164,-1.0239,-0.9951,-0.9876,-0.9963,-0.9869,-0.9822,-0.9822,-0.9822,-0.9822,-0.9822,-0.9822,-0.9822,-0.9822,-0.9822,-0.9822,-0.9822,-0.9822,-0.9822,-0.9822,-0.9822,-0.9822,-0.9785,-0.9659,-0.9622,-0.9568,-0.9435,-0.9344,-0.9241,-0.9241,-0.9076,-0.8942,-0.8942,-0.8908,-0.8885,-0.8885,-0.9205,-0.9381,-0.9381,-0.9652,-0.9822,-0.9822,-0.9822,-0.9822,-0.9822,-0.9822,-0.9822,-0.9822,-0.9822,-0.9822,-0.9822,-0.9822,-0.9822,-0.9822,-0.9822,-0.9822,-1.0602,-1.086,-1.1056,-1.0938,-1.0697,-1.0344,-0.9714,-0.9201,0.0,-0.8404,-0.8184,-0.8022,-0.7995,-0.7961,-0.8153,-0.8755,-0.9023,-0.9352,-1.0139,-1.032,-1.0508,0.0,-1.0697,-1.069,-1.0717,-1.0697,0.0,0.0,0.0,-1.0721,-1.0721,-1.0721,-1.0721,-1.0721,-1.0721,-1.0721,-1.0721,-1.0721,-1.0721,-1.0721,-1.0721,-1.0721,-1.0721,-1.0721,-1.0721,-1.0721,-1.0721,0.0,-1.068,-1.068,-1.0592,-1.0456,-1.0456,-1.0385,-1.0276,-1.0249,-1.0256,-1.0253,-1.0011,-0.9963,-0.9963,-0.9869,-0.9822,-0.9822,-0.9822,-0.9822,-0.9822,-0.9822,-0.9822,-0.9822,-0.9822,-0.9822,-0.9822,-0.9822,-0.9822,-0.9822,-0.9822,-0.9822,-0.9815,-0.9788,-0.969,-0.9602,-0.9574,-0.9442,-0.934,-0.934,-0.932,-0.9306,-0.9306,-0.9089,-0.8885,-0.8885,-0.9205,-0.9381,-0.9381,-0.9652,-0.9822,-0.9822,-0.9822,-0.9822,-0.9822,-0.9822,-0.9822,-0.9822,-0.9822,-0.9822,-0.9822,-0.9822,-0.9822,-0.9822,-0.9822,-0.9822,-1.0819,-1.1056,-1.1226,-1.1002,-1.0602,-1.0127,-0.9608,0.0,0.0,-0.8228,-0.8092,-0.7988,-0.7988,-0.7988,-0.8144,-0.8606,-0.8756,-0.9103,-0.9953,-1.012,-1.0309,-1.0651,-1.0721,-1.0721,0.0,-1.0721,0.0,0.0,0.0,-1.0721,-1.0721,-1.0721,-1.0721,-1.0721,-1.0721,-1.0721,-1.0721,-1.0721,-1.0721,-1.0721,-1.0721,-1.0721,-1.0721,-1.0721,-1.0721,-1.0721,-1.0721,0.0,-1.0721,-1.0721,-1.0677,-1.0612,-1.0612,-1.0568,-1.05,-1.0419,-1.0439,-1.0477,-1.0249,-1.0219,-1.0256,-1.0107,-0.9951,-0.9836,-0.9856,-0.9879,-0.9879,-0.9879,-0.9879,-0.9879,-0.9879,-0.9879,-0.9879,-0.9879,-0.9879,-0.9879,-0.9879,-0.9876,-0.9822,-0.9822,-0.9768,-0.972,-0.972,-0.9598,-0.95,-0.95,-0.9432,-0.9381,-0.9381,-0.9256,-0.9167,-0.9167,-0.9367,-0.95,-0.95,-0.9696,-0.9822,-0.9822,-0.9822,-0.9822,-0.9822,-0.9822,-0.9822,-0.9822,-0.9822,-0.9822,-0.9822,-0.9822,-0.9822,-0.9822,-0.9822,-0.9822,-1.0911,-1.1189,-1.1328,-1.106,-1.0452,-0.993,-0.9545,-0.8968,-0.8397,-0.8102,-0.8075,-0.8042,-0.8048,-0.8041,-0.8144,0.0,-0.8491,-0.8797,-0.962,-0.9778,-1.0038,0.0,-1.0654,0.0,-1.0721,-1.0721,0.0,0.0,0.0,0.0,-1.0721,-1.0721,-1.0721,-1.0721,-1.0721,-1.0721,-1.0721,-1.0721,-1.0721,-1.0721,-1.0721,-1.0721,-1.0721,-1.0721,-1.0721,-1.0721,-1.0721,0.0,0.0,-1.0721,-1.0721,-1.0721,-1.0721,-1.0721,-1.0707,-1.0585,-1.0616,-1.068,-1.0419,-1.0399,-1.0473,-1.0361,-1.0141,-0.9941,-1.0,-1.0038,-1.0038,-1.0038,-1.0038,-1.0038,-1.0038,-1.0038,-1.0038,-1.0038,-1.0038,-1.0038,-1.0038,-1.0005,-0.992,-0.992,-0.992,-0.991,-0.9876,-0.9778,-0.9693,-0.9659,-0.9551,-0.9476,-0.9476,-0.9476,-0.9476,-0.9476,-0.9554,-0.9608,-0.9608,-0.9741,-0.9822,-0.9822,-0.9822,-0.9836,-0.993,-0.9869,-0.9886,-0.992,-0.9859,-0.9856,-0.9856,-0.9822,-0.9808,-0.9805,-0.9775,-0.9822,-1.107,-1.1263,-1.1352,-1.1185,-1.0592,-0.9934,-0.9786,0.0,-0.829,-0.826,-0.8289,-0.8258,-0.8279,-0.8297,-0.8297,-0.8453,-0.8496,-0.8779,-0.9527,-0.9727,-0.9971,-1.0449,0.0,0.0,-1.0721,0.0,0.0,0.0,0.0,0.0,-1.0721,-1.0721,-1.0721,-1.0721,-1.0721,-1.0721,-1.0721,-1.0721,-1.0721,-1.0721,-1.0721,-1.0721,-1.0721,-1.0721,-1.0721,-1.0721,-1.0721,0.0,0.0,-1.0721,-1.0721,-1.0721,-1.0721,-1.0721,-1.0717,-1.0704,-1.0707,-1.0697,-1.0531,-1.048,-1.049,-1.0477,-1.0368,-1.0243,-1.0256,-1.0259,-1.0259,-1.0259,-1.0259,-1.0259,-1.0259,-1.0259,-1.0259,-1.0259,-1.0259,-1.0259,-1.0259,-1.0249,-1.0239,-1.0239,-1.0239,-1.0195,-0.999,-0.9957,-0.9899,-0.9822,-0.9788,-0.9781,-0.9781,-0.9781,-0.9781,-0.9781,-0.968,-0.9608,-0.9608,-0.9741,-0.9822,-0.9822,-0.9822,-0.9948,-1.0218,-1.0156,-1.0159,-1.0366,-1.0172,-1.0042,-1.0042,-0.9906,-0.9774,-0.9771,-0.9822,-0.9822,-1.0951,-1.1277,-1.147,-1.1223,-1.0602,-0.9958,-0.9842,0.0,-0.8324,-0.8466,-0.8488,-0.8453,-0.8346,-0.8297,-0.8297,-0.8194,-0.8144,-0.8312,-0.8953,-0.9101,-0.9473,-1.0282,-1.0454,0.0,0.0,0.0,0.0,0.0,0.0,0.0,-1.0721,-1.0721,-1.0721,-1.0721,-1.0721,-1.0721,-1.0721,-1.0721,-1.0721,-1.0721,-1.0721,-1.0721,-1.0721,-1.0721,-1.0721,-1.0721,-1.0721,0.0,0.0,-1.0721,-1.0721,-1.0721,-1.0721,-1.0721,-1.0721,-1.0721,-1.0721,-1.0711,-1.0649,-1.0629,-1.0629,-1.0629,-1.0592,-1.0527,-1.0436,-1.0409,-1.0409,-1.0409,-1.0409,-1.0409,-1.0409,-1.0409,-1.0429,-1.0524,-1.0473,-1.0409,-1.0409,-1.0341,-1.028,-1.028,-1.028,-1.0232,-1.0014,-0.9987,-0.9933,-0.9842,-0.9822,-0.9822,-0.9822,-0.9822,-0.9822,-0.9822,-0.9771,-0.9737,-0.9737,-0.9788,-0.9822,-0.9822,-0.9822,-0.9849,-0.9975,-1.0321,-1.0402,-1.0336,-1.0299,-1.028,-1.0213,-0.9999,-0.9921,-0.9984,-0.9832,-0.9822,-1.0718,-1.1114,-1.1301,-1.1087,-1.0569,-0.9971,0.0,0.0,-0.8401,-0.8657,-0.8691,-0.861,-0.8453,-0.8369,-0.8297,-0.8141,-0.7939,-0.8052,-0.86,-0.8757,-0.9112,0.0,0.0,0.0,0.0,0.0,0.0,0.0,0.0,0.0,0.0,-1.0721,-1.0721,-1.0721,-1.0721,-1.0721,-1.0721,-1.0721,-1.0721,-1.0721,-1.0721,-1.0697,-1.0653,-1.07,-1.0697,-1.0656,0.0,0.0,0.0,-1.0721,-1.0721,-1.0721,-1.0721,-1.0721,-1.0721,-1.0721,-1.0721,-1.0721,-1.0721,-1.0721,-1.0721,-1.0721,-1.0721,-1.07,-1.0592,-1.0558,-1.0558,-1.0558,-1.0558,-1.0558,-1.0558,-1.0558,-1.0585,-1.0694,-1.0636,-1.0558,-1.0558,-1.048,-1.0412,-1.0412,-1.0412,-1.0361,-1.0205,-1.0081,-1.0066,-0.9914,-0.9849,-0.9822,-0.9822,-0.9822,-0.9822,-0.9822,-0.9822,-0.9822,-0.9822,-0.9822,-0.9822,-0.9822,-0.9822,-0.9781,-0.9822,-1.0184,-1.0395,-1.0312,-1.046,-1.0472,-1.0408,-1.0232,-1.0118,-1.0178,-1.0029,-0.9958,-1.0599,-1.0724,-1.0727,-1.0724,-1.0404,-1.0056,-0.9872,-0.9113,-0.8581,-0.8855,-0.8907,-0.8878,-0.8702,-0.8605,-0.8453,-0.8297,-0.8144,-0.8143,-0.862,-0.884,-0.9085,0.0,0.0,0.0,0.0,0.0,0.0,0.0,0.0,0.0,0.0,-1.0721,-1.0721,-1.0721,-1.0721,-1.0721,-1.0721,-1.0721,-1.0721,-1.0721,-1.0721,-1.0639,-1.05,-1.0653,-1.0636,0.0,0.0,0.0,0.0,-1.0721,-1.0721,-1.0721,-1.0721,-1.0721,-1.0721,-1.0721,-1.0721,-1.0721,-1.0721,-1.0721,-1.0721,-1.0721,-1.0721,-1.0721,-1.0717,-1.0717,-1.0717,-1.0717,-1.0717,-1.0717,-1.0717,-1.0717,-1.0717,-1.0721,-1.0717,-1.0717,-1.0717,-1.0717,-1.0714,-1.0714,-1.0714,-1.0666,-1.0514,-1.0371,-1.0226,-1.0007,-0.9856,-0.9822,-0.9822,-0.9822,-0.9822,-0.9822,-0.9822,-0.9822,-0.9822,-0.9822,-0.9822,-0.9822,-0.9822,-0.9825,-0.9787,-0.9794,-0.9995,-1.0404,-1.0616,-1.0692,-1.0692,-1.0487,-1.0418,-1.0415,-1.0341,-1.0276,-1.0351,-1.049,-1.0606,-1.0708,-1.0301,-0.9888,-0.9811,-0.9267,-0.8787,-0.89,-0.8896,-0.8881,-0.8712,-0.8611,-0.8501,-0.845,-0.8288,0.0,0.0,0.0,0.0,0.0,0.0,0.0,0.0,0.0,0.0,0.0,0.0,0.0,0.0,-1.0721,-1.0721,-1.0721,-1.0721,-1.0721,-1.0721,-1.0721,-1.0721,-1.0717,-1.0616,-1.0538,-1.0493,-1.0541,0.0,0.0,0.0,0.0,0.0,-1.0721,-1.0721,-1.0721,-1.0721,-1.0721,-1.0721,-1.0721,-1.0721,-1.0721,-1.0721,-1.0721,-1.0721,-1.0721,-1.0721,-1.0721,-1.0721,-1.0721,-1.0721,-1.0721,-1.0721,-1.0721,-1.0721,-1.0721,-1.0721,-1.0721,-1.0721,-1.0721,-1.0721,-1.0721,-1.0721,-1.0721,-1.0721,-1.067,-1.0517,-1.0456,-1.0341,-1.0024,-0.9947,-0.9876,-0.9836,-0.9822,-0.9822,-0.9822,-0.9822,-0.9822,-0.9822,-0.9822,-0.9822,-0.9822,-1.0046,-1.0129,-1.0115,-0.9893,-0.9882,-0.9958,-1.0333,-1.0544,-1.0715,-1.0541,-1.0443,-1.0344,-1.03,-1.028,-1.0168,-1.0282,-1.0349,-1.0385,-1.0065,0.0,-0.9614,-0.9228,-0.8885,-0.8885,-0.8885,-0.8865,-0.8749,-0.8572,-0.8464,-0.8442,-0.8338,0.0,0.0,0.0,0.0,0.0,0.0,0.0,0.0,0.0,0.0,0.0,0.0,0.0,0.0,-1.0721,-1.0721,-1.0721,-1.0721,-1.0721,-1.0721,-1.0721,-1.0721,-1.0717,-1.0565,-1.0463,-1.0415,-1.0466,0.0,0.0,0.0,0.0,0.0,-1.0721,-1.0721,-1.0721,-1.0721,-1.0721,-1.0721,-1.0721,-1.0721,-1.0721,-1.0721,-1.0721,-1.0721,-1.0721,-1.0721,-1.0721,-1.0721,-1.0721,-1.0721,-1.0721,-1.0721,-1.0721,-1.0721,-1.0721,-1.0721,-1.0721,-1.0721,-1.0721,-1.0721,-1.0721,-1.0721,-1.0721,-1.0721,-1.069,-1.0595,-1.0531,-1.0429,-1.0243,-1.0171,-1.0083,-0.9927,-0.9845,-0.9883,-0.9829,-0.9822,-0.9822,-0.9822,-0.9822,-0.9822,-0.9822,-0.9975,-1.0156,-1.0283,-1.0176,-1.0042,-0.9927,-1.0303,-1.0541,-1.0633,-1.0595,-1.0531,-1.0446,-1.0446,-1.0446,0.0,-1.004,-1.0037,-0.9791,-0.9752,-0.9626,-0.9239,-0.9016,0.0,-0.8885,-0.8885,-0.8838,-0.8737,-0.8619,-0.8474,-0.8342,-0.8347,0.0,0.0,-0.8937,0.0,0.0,0.0,0.0,0.0,0.0,0.0,0.0,0.0,0.0,0.0,-1.0721,-1.0721,-1.0721,-1.0711,-1.0704,-1.0704,-1.0704,-1.07,-1.0687,-1.0534,-1.0392,-1.027,-1.0412,0.0,0.0,0.0,0.0,0.0,-1.0721,-1.0721,-1.0721,-1.0721,-1.0721,-1.0721,-1.0721,-1.0721,-1.0721,-1.0721,-1.0721,-1.0721,-1.0721,-1.0721,-1.0721,-1.0721,-1.0721,-1.0721,-1.0721,-1.0721,-1.0721,-1.0721,-1.0721,-1.0721,-1.0721,-1.0721,-1.0721,-1.0721,-1.0721,-1.0721,-1.0721,-1.0721,-1.0721,-1.0721,-1.0602,-1.0504,-1.0493,-1.0378,-1.0239,-1.0024,-0.9994,-0.9933,-0.9852,-0.9829,-0.9822,-0.9822,-0.9822,-0.9822,-0.9822,-0.9842,-0.9974,-1.0279,-1.0558,-1.0523,-1.0145,-1.0496,-1.064,-1.0507,-1.0653,-1.0721,-1.0721,-1.0721,-1.0721,-0.9907,0.0,-0.9545,-0.9486,-0.932,-0.9094,0.0,-0.8915,-0.8885,-0.8885,-0.8885,-0.8838,-0.8737,-0.8699,-0.8625,-0.8632,0.0,0.0,0.0,0.0,0.0,0.0,0.0,0.0,0.0,0.0,0.0,0.0,0.0,0.0,0.0,-1.0721,-1.0721,-1.0721,-1.0605,-1.0548,-1.0548,-1.0548,-1.049,-1.0382,-1.0226,-1.0137,-1.0173,-1.0263,0.0,0.0,0.0,0.0,-1.0721,-1.0721,-1.0721,-1.0721,-1.0721,-1.0721,-1.0721,-1.0721,-1.0721,-1.0721,-1.0721,-1.0721,-1.0721,-1.0721,-1.0721,-1.0721,-1.0721,-1.0721,-1.0721,-1.0721,-1.0721,-1.0721,-1.0721,-1.0721,-1.0721,-1.0721,-1.0721,-1.0721,-1.0721,-1.0721,-1.0721,-1.0721,-1.0721,-1.0721,-1.0721,-1.069,-1.0626,-1.051,-1.0463,-1.0388,-1.0246,-1.0124,-0.9974,-0.9936,-0.989,-0.9822,-0.9822,-0.9822,-0.9822,-0.9822,-1.0042,-1.012,-1.0064,-1.0273,-1.0474,-1.0585,-1.0637,-1.0666,-1.0666,-1.0704,-1.0721,-1.0721,-1.0721,-1.0721,-0.9903,-0.9599,-0.9381,-0.9381,-0.9157,-0.8885,-0.8885,-0.8885,-0.8885,-0.8885,-0.8885,-0.8838,-0.8737,-0.8652,-0.8604,0.0,-0.8604,0.0,0.0,0.0,0.0,0.0,0.0,0.0,0.0,0.0,0.0,0.0,0.0,0.0,0.0,-1.0721,-1.0721,-1.0721,-1.0571,-1.049,-1.049,-1.0426,-1.0354,-1.028,-1.0124,-1.0049,-1.0056,-1.0209,-1.028,0.0,0.0,0.0,-1.0721,-1.0721,-1.0721,-1.0721,-1.0721,-1.0721,-1.0721,-1.0721,-1.0721,-1.0721,-1.0721,-1.0721,-1.0721,-1.0721,-1.0721,-1.0721,-1.0721,-1.0721,-1.0721,-1.0721,-1.0721,-1.0721,-1.0721,-1.0721,-1.0721,-1.0721,-1.0721,-1.0721,-1.0721,-1.0721,-1.0721,-1.0721,-1.0721,-1.0721,-1.0721,-1.0721,-1.0694,-1.0609,-1.0599,-1.0541,-1.0395,-1.0304,-1.0198,-1.0,-0.9975,-0.9897,-0.9825,-0.9886,-0.9866,-0.9866,-1.0083,-1.0168,-1.0154,-1.0297,-1.0511,-1.0726,-1.068,-1.0721,-1.0721,-1.0721,-1.0721,-1.0721,-1.0721,-1.0721,-0.9899,-0.96,-0.9381,-0.9381,-0.9157,-0.8885,-0.8885,-0.8885,-0.8885,-0.8885,-0.8885,-0.8828,-0.871,-0.8608,0.0,0.0,0.0,0.0,0.0,0.0,0.0,0.0,0.0,0.0,0.0,0.0,0.0,0.0,0.0,0.0,0.0,-1.0721,-1.0711,-1.0687,-1.0538,-1.0446,-1.0426,-1.0304,-1.0232,-1.0209,-1.0076,-0.9963,-0.9994,-1.0185,-1.027,0.0,0.0,0.0,-1.0721,-1.0721,-1.0721,-1.0721,-1.0721,-1.0721,-1.0721,-1.0721,-1.0721,-1.0721,-1.0721,-1.0721,-1.0721,-1.0721,-1.0721,-1.0721,-1.0721,-1.0721,-1.0721,-1.0721,-1.0721,-1.0721,-1.0721,-1.0721,-1.0721,-1.0721,-1.0721,-1.0721,-1.0721,-1.0721,-1.0721,-1.0721,-1.0721,-1.0721,-1.0721,-1.0721,-1.0721,-1.0721,-1.0721,-1.0673,-1.0544,-1.0507,-1.0395,-1.0081,-1.01,-1.0032,-0.9903,-1.0008,-1.0031,-1.0051,-1.0054,-1.0175,-1.0307,-1.0429,-1.0555,-1.0683,-1.0707,-1.0721,-1.0721,-1.0721,-1.0721,-1.0721,-1.0721,-1.0721,-0.9899,-0.9536,-0.9204,-0.9204,-0.9044,-0.8885,-0.8885,-0.8885,-0.8885,-0.8885,-0.8885,-0.8797,-0.857,-0.871,-0.8784,0.0,0.0,0.0,0.0,0.0,0.0,0.0,0.0,0.0,0.0,0.0,0.0,0.0,0.0,0.0,0.0,0.0,-1.066,-1.0531,-1.0388,-1.0249,-1.0054,-1.0034,-1.0019,-0.989,-0.9866,-0.9862,-0.9987,-1.0011,-1.0222,0.0,0.0,-1.0602,-1.0721,-1.0721,-1.0721,-1.0721,-1.0721,-1.0721,-1.0721,-1.0721,-1.0721,-1.0721,-1.0721,-1.0721,-1.0721,-1.0721,-1.0721,-1.0721,-1.0721,-1.0721,-1.0721,-1.0721,-1.0721,-1.0721,-1.0721,-1.0721,-1.0721,-1.0721,-1.0721,-1.0721,-1.0721,-1.0721,-1.0721,-1.0721,-1.0721,-1.0721,-1.0721,-1.0721,-1.0721,-1.0721,-1.0721,-1.0711,-1.0687,-1.0571,-1.0473,-1.0429,-1.0317,-1.0236,-1.0212,-1.0232,-1.0297,-1.0415,-1.0426,-1.0436,-1.046,-1.048,-1.0504,-1.0527,-1.0653,-1.0721,-1.0721,-1.0721,-1.0721,-1.0721,-1.0721,-1.0721,-1.0027,-0.9657,-0.9345,-0.9357,-0.9096,-0.8771,-0.8771,-0.8771,-0.8856,-0.902,-0.8959,-0.8841,-0.8754,0.0,-0.8944,-0.8964,0.0,0.0,0.0,0.0,0.0,0.0,0.0,0.0,0.0,0.0,0.0,0.0,0.0,0.0,0.0,0.0,-1.0527,-1.0382,-1.0232,-1.0058,-0.9987,-0.9906,-0.989,-0.9822,-0.9842,-0.9876,-0.9869,-1.0097,-1.0249,-1.0382,0.0,-1.0578,-1.0721,-1.0721,-1.0721,-1.0721,-1.0721,-1.0721,-1.0721,-1.0721,-1.0721,-1.0721,-1.0721,-1.0721,-1.0721,-1.0721,-1.0721,-1.0721,-1.0721,-1.0721,-1.0721,-1.0721,-1.0721,-1.0721,-1.0721,-1.0721,-1.0721,-1.0721,-1.0721,-1.0721,-1.0721,-1.0721,-1.0721,-1.0721,-1.0721,-1.0721,-1.0721,-1.0721,-1.0721,-1.0721,-1.0721,-1.0721,-1.0721,-1.066,-1.0582,-1.05,-1.0432,-1.0365,-1.0287,-1.0351,-1.0422,-1.0487,-1.0568,-1.0616,-1.0616,-1.0616,-1.0616,-1.0616,-1.0683,-1.0721,-1.0721,-1.0721,-1.0721,-1.0721,-1.0721,-1.0721,-1.0083,-0.9836,-0.9551,-0.9537,-0.9167,-0.8824,-0.8758,-0.8804,-0.8881,-0.9148,-0.9106,-0.8964,0.0,-0.8888,0.0,-0.934,0.0,0.0,0.0,0.0,0.0,0.0,0.0,0.0,0.0,0.0,0.0,0.0,0.0,0.0,0.0,0.0,-1.0375,-1.0229,-1.0048,-0.997,-0.9933,-0.988,-0.9839,-0.9876,-0.9896,-0.9909,-0.9937,-1.0134,-1.0263,-1.0337,-1.0446,-1.0578,-1.0721,-1.0721,-1.0721,-1.0721,-1.0721,-1.0721,-1.0721,-1.0721,-1.0721,-1.0721,-1.0721,-1.0721,-1.0721,-1.0721,-1.0721,-1.0721,-1.0721,-1.0721,-1.0721,-1.0721,-1.0721,-1.0721,-1.0721,-1.0721,-1.0721,-1.0721,-1.0721,-1.0721,-1.0721,-1.0721,-1.0721,-1.0721,-1.0721,-1.0721,-1.0721,-1.0721,-1.0721,-1.0721,-1.0721,-1.0721,-1.0721,-1.0721,-1.0673,-1.0558,-1.0544,-1.05,-1.0392,-1.0483,-1.0544,-1.0544,-1.0656,-1.0721,-1.0721,-1.0721,-1.0721,-1.0721,-1.0721,-1.0721,-1.0721,-1.0721,-1.0721,-1.0721,-1.0721,-1.0721,-0.9925,-0.9775,-0.9717,-0.9576,-0.9307,-0.9101,-0.8954,-0.9026,-0.9165,-0.9178,-0.9184,-0.9094,-0.8774,-0.8794,-0.9017,0.0,0.0,0.0,0.0,0.0,0.0,0.0,0.0,0.0,0.0,0.0,0.0,0.0,0.0,0.0,0.0,0.0,0.0,-1.0007,-0.9994,-0.992,-0.9839,-0.9825,-0.9832,-0.997,-0.9839,-0.9981,-1.0243,-1.0124,-1.0215,-1.0477,-1.0487,-1.0578,-1.0721,-1.0721,-1.0721,-1.0721,-1.0721,-1.0721,-1.0721,-1.0721,-1.0721,-1.0721,-1.0721,-1.0721,-1.0721,-1.0721,-1.0721,-1.0721,-1.0721,-1.0721,-1.0721,-1.0721,-1.0721,-1.0721,-1.0721,-1.0721,-1.0721,-1.0721,-1.0721,-1.0721,-1.0721,-1.0721,-1.0721,-1.0721,-1.0721,-1.0721,-1.0721,-1.0721,-1.0721,-1.0721,-1.0721,-1.0721,-1.0721,-1.0721,-1.0717,-1.0704,-1.0704,-1.07,-1.0687,-1.0697,-1.0704,-1.0704,-1.0714,-1.0721,-1.0721,-1.0721,-1.0721,-1.0721,-1.0721,-1.0721,-1.0721,-1.0721,-1.0721,-1.0721,-1.0721,-1.0721,-0.9886,-0.971,-0.9606,-0.9487,-0.9327,-0.9147,-0.8934,-0.9136,-0.9334,-0.9427,-0.9425,-0.9387,-0.9178,0.0,-0.9042,0.0,0.0,0.0,0.0,0.0,0.0,0.0,0.0,0.0,0.0,0.0,0.0,0.0,0.0,0.0,0.0,0.0,0.0,-0.9852,-0.9845,-0.988,-0.9822,-0.9822,-0.9835,-0.9987,-0.993,-0.996,-1.0137,-1.0175,-1.0304,-1.049,-1.049,-1.0578,-1.0721,-1.0721,-1.0721,-1.0721,-1.0721,-1.0721,-1.0721,-1.0721,-1.0721,-1.0721,-1.0721,-1.0721,-1.0721,-1.0721,-1.0721,-1.0721,-1.0721,-1.0721,-1.0721,-1.0721,-1.0721,-1.0721,-1.0721,-1.0721,-1.0721,-1.0721,-1.0721,-1.0721,-1.0721,-1.0721,-1.0721,-1.0721,-1.0721,-1.0721,-1.0721,-1.0721,-1.0721,-1.0721,-1.0721,-1.0721,-1.0721,-1.0721,-1.0721,-1.0721,-1.0721,-1.0721,-1.0721,-1.0721,-1.0721,-1.0721,-1.0721,-1.0721,-1.0721,-1.0721,-1.0721,-1.0721,-1.0721,-1.0721,-1.0721,-1.0721,-1.0721,-1.0721,-1.0721,-1.0721,-0.9432,-0.9405,-0.9488,-0.9121,-0.9184,-0.9259,-0.9047,-0.922,-0.9523,-0.961,-0.9606,-0.9538,-0.9416,0.0,0.0,0.0,0.0,0.0,0.0,0.0,0.0,0.0,0.0,0.0,0.0,0.0,0.0,0.0,0.0,0.0,0.0,0.0,0.0,0.0,-0.9822,-0.9822,-0.9822,-0.9822,-0.9873,-0.9916,-0.9916,-0.9967,-1.0127,-1.0232,-1.0358,-1.0493,-1.0541,-1.0622,-1.0721,-1.0721,-1.0721,-1.0721,-1.0721,-1.0721,-1.0721,-1.0721,-1.0721,-1.0721,-1.0721,-1.0721,-1.0721,-1.0721,-1.0721,-1.0721,-1.0721,-1.0721,-1.0721,-1.0721,-1.0721,-1.0721,-1.0721,-1.0721,-1.0721,-1.0721,-1.0721,-1.0721,-1.0721,-1.0721,-1.0721,-1.0721,-1.0721,-1.0721,-1.0721,-1.0721,-1.0721,-1.0721,-1.0721,-1.0721,-1.0721,-1.0721,-1.0721,-1.0721,-1.0721,-1.0721,-1.0721,-1.0721,-1.0721,-1.0721,-1.0721,-1.0721,-1.0721,-1.0721,-1.0721,-1.0721,-1.0721,-1.0721,-1.0721,-1.0721,-1.0721,-1.0721,-1.0721,-1.0721,-0.8509,-0.8884,-0.9539,-0.8536,-0.8927,-0.9418,-0.9238,-0.9391,-0.9654,-0.9751,-0.9579,-0.9391,-0.9429,-0.9401,0.0,0.0,0.0,0.0,0.0,0.0,0.0,0.0,0.0,0.0,0.0,0.0,0.0,0.0,0.0,0.0,0.0,0.0,0.0,0.0,-0.9819,-0.9819,-0.9819,-0.9819,-0.9819,-0.9822,-0.9822,-0.9981,-1.028,-1.028,-1.0358,-1.0504,-1.0656,-1.0721,-1.0721,-1.0721,-1.0721,-1.0721,-1.0721,-1.0721,-1.0721,-1.0721,-1.0721,-1.0721,-1.0721,-1.0721,-1.0721,-1.0721,-1.0721,-1.0721,-1.0721,-1.0721,-1.0721,-1.0721,-1.0721,-1.0721,-1.0721,-1.0721,-1.0721,-1.0721,-1.0721,-1.0721,-1.0721,-1.0721,-1.0721,-1.0721,-1.0721,-1.0721,-1.0721,-1.0721,-1.0721,-1.0721,-1.0721,-1.0721,-1.0721,-1.0721,-1.0721,-1.0721,-1.0721,-1.0721,-1.0721,-1.0721,-1.0721,-1.0721,-1.0721,-1.0721,-1.0721,-1.0721,-1.0721,-1.0721,-1.0721,-1.0721,-1.0721,-1.0721,-1.0721,-1.0721,-1.0721,-1.0721,-0.848,-0.8256,-0.8621,-0.8966,-0.9091,-0.9142,-0.9313,-0.9528,-0.9802,-1.0078,-0.9898,-0.9659,-0.9686,0.0,0.0,0.0,0.0,0.0,0.0,0.0,0.0,0.0,0.0,0.0,0.0,0.0,0.0,0.0,0.0,0.0,0.0,0.0,0.0,0.0,-0.951,-0.9564,-0.9673,-0.9673,-0.9724,-0.9822,-0.9822,-0.9981,-1.028,-1.028,-1.0415,-1.0656,-1.07,-1.0721,-1.0721,-1.0721,-1.0721,-1.0721,-1.0721,-1.0721,-1.0721,-1.0721,-1.0721,-1.0721,-1.0721,-1.0721,-1.0721,-1.0721,-1.0721,-1.0721,-1.0721,-1.0721,-1.0721,-1.0721,-1.0721,-1.0721,-1.0721,-1.0721,-1.0721,-1.0721,-1.0721,-1.0721,-1.0721,-1.0721,-1.0721,-1.0721,-1.0721,-1.0721,-1.0721,-1.0721,-1.0721,-1.0721,-1.0721,-1.0721,-1.0721,-1.0721,-1.0721,-1.0721,-1.0721,-1.0721,-1.0721,-1.0721,-1.0721,-1.0721,-1.0721,-1.0721,-1.0721,-1.0721,-1.0721,-1.0721,-1.0721,-1.0721,-1.0721,-1.0721,-1.0721,-1.0721,-1.0721,-1.0721,-0.8519,-0.8339,-0.8638,-0.8946,-0.9083,-0.9178,-0.9415,-0.97,-0.9957,0.0,-1.0002,-0.9839,-0.99,-0.9747,0.0,0.0,0.0,0.0,0.0,0.0,0.0,0.0,0.0,0.0,0.0,0.0,0.0,0.0,0.0,0.0,0.0,0.0,0.0,0.0,-0.9381,-0.9456,-0.9608,-0.9608,-0.968,-0.9822,-0.9822,-0.9951,-1.0188,-1.0188,-1.0351,-1.0633,-1.0694,-1.0721,-1.0721,-1.0721,-1.0721,-1.0721,-1.0721,-1.0721,-1.0721,-1.0721,-1.0721,-1.0721,-1.0721,-1.0721,-1.0721,-1.0721,-1.0721,-1.0721,-1.0721,-1.0721,-1.0721,-1.0721,-1.0721,-1.0721,-1.0721,-1.0721,-1.0721,-1.0721,-1.0721,-1.0721,-1.0721,-1.0721,-1.0721,-1.0721,-1.0721,-1.0721,-1.0721,-1.0721,-1.0721,-1.0721,-1.0721,-1.0721,-1.0721,-1.0721,-1.0721,-1.0721,-1.0721,-1.0721,-1.0721,-1.0721,-1.0721,-1.0721,-1.0775,-1.0782,-1.0721,-1.0721,-1.0721,-1.0721,-1.0721,-1.0751,-1.0812,-1.0751,-1.0751,-1.0809,-1.0748,-1.0721,-0.856,-0.8787,-0.9177,-0.8667,-0.8954,-0.9442,-0.955,-0.9774,-1.0012,-1.0228,0.0,-0.99,-0.9963,0.0,0.0,0.0,0.0,0.0,0.0,0.0,0.0,0.0,0.0,0.0,0.0,0.0,0.0,0.0,0.0,0.0,0.0,0.0,0.0,0.0,-0.934,-0.9422,-0.9588,-0.9588,-0.9666,0.0,-0.9822,-0.9893,-0.9967,-0.9997,-1.0232,-1.0521,-1.066,-1.0721,-1.0721,-1.0721,-1.0721,-1.0721,-1.0721,-1.0721,-1.0721,-1.0721,-1.0721,-1.0721,-1.0721,-1.0721,-1.0721,-1.0721,-1.0721,-1.0721,-1.0721,-1.0721,-1.0721,-1.0721,-1.0721,-1.0721,-1.0721,-1.0721,-1.0721,-1.0721,-1.0721,-1.0721,-1.0721,-1.0721,-1.0721,-1.0721,-1.0721,-1.0721,-1.0721,-1.0721,-1.0721,-1.0721,-1.0721,-1.0721,-1.0721,-1.0721,-1.0721,-1.0721,-1.0721,-1.0721,-1.0721,-1.0721,-1.0724,-1.0741,-1.0793,-1.0803,-1.0748,-1.0741,-1.0734,-1.0721,-1.0721,-1.0789,-1.086,-1.0789,-1.0792,-1.0857,-1.0785,-1.0721,-0.8624,-0.8504,-0.858,-0.8768,-0.9041,-0.9279,-0.9535,-0.9585,-0.9629,-0.9992,-1.0127,-1.0154,0.0,0.0,0.0,0.0,0.0,0.0,0.0,0.0,0.0,0.0,0.0,0.0,0.0,0.0,0.0,0.0,0.0,0.0,0.0,0.0,0.0,-0.9039,-0.9035,-0.9161,-0.9425,-0.9432,-0.9561,0.0,-0.9822,-0.9839,-0.988,-1.012,-1.0392,-1.0673,-1.0707,-1.0721,-1.0721,-1.0721,-1.0721,-1.0721,-1.0721,-1.0721,-1.0721,-1.0721,-1.0721,-1.0721,-1.0721,-1.0721,-1.0721,-1.0721,-1.0721,-1.0721,-1.0721,-1.0721,-1.0721,-1.0721,-1.0721,-1.0721,-1.0721,-1.0721,-1.0721,-1.0721,-1.0721,-1.0721,-1.0721,-1.0721,-1.0721,-1.0721,-1.0721,-1.0721,-1.0721,-1.0721,-1.0721,-1.0721,-1.0721,-1.0721,-1.0721,-1.0721,-1.0721,-1.0721,-1.0721,-1.0721,-1.0721,-1.0721,-1.0772,-1.0826,-1.0816,-1.0809,-1.083,-1.0833,-1.0843,-1.0721,-1.0721,-1.0734,-1.0768,-1.0734,-1.0738,-1.0768,-1.0734,-1.0721,-0.8834,-0.8693,-0.8769,-0.9017,0.0,-0.9111,-0.9439,-0.9439,-0.9449,-0.9683,-0.9852,0.0,0.0,0.0,0.0,0.0,0.0,0.0,0.0,0.0,0.0,0.0,0.0,0.0,0.0,0.0,0.0,0.0,0.0,0.0,0.0,-0.9086,-0.9015,-0.8885,-0.8885,-0.9045,-0.9326,-0.9344,-0.9496,-0.972,-0.9788,-0.9859,-0.9872,-1.0097,-1.0253,-1.0338,-1.0477,-1.0548,-1.0612,-1.0612,-1.0653,-1.0721,-1.0721,-1.0721,-1.0721,-1.0721,-1.0721,-1.0721,-1.0721,-1.0721,-1.0721,-1.0721,-1.0721,-1.0721,-1.0721,-1.0721,-1.0721,-1.0721,-1.0721,-1.0721,-1.0721,-1.0721,-1.0721,-1.0721,-1.0721,-1.0721,-1.0721,-1.0721,-1.0721,-1.0721,-1.0721,-1.0721,-1.0721,-1.0721,-1.0744,-1.0819,-1.0768,-1.0748,-1.0819,-1.0765,-1.0748,-1.0822,-1.0765,-1.0775,-1.0921,-1.0867,-1.0894,-1.1043,-1.1046,-1.1046,-1.105,-1.1121,-1.1023,-1.0724,-1.0721,-1.0758,-1.0829,-1.0755,-1.0792,-1.0931,-1.086,-1.0867,-0.912,-0.9033,-0.9099,-0.9105,-0.8988,0.0,-0.9242,-0.9283,-0.9266,-0.9266,0.0,0.0,0.0,0.0,0.0,0.0,0.0,0.0,0.0,0.0,0.0,0.0,0.0,0.0,0.0,0.0,0.0,0.0,0.0,0.0,0.0,-0.8964,-0.8844,-0.8844,-0.8844,-0.8981,-0.9207,-0.9337,-0.9432,-0.9612,-0.9754,-0.9886,-0.995,-0.995,-0.9977,-1.0034,-1.0226,-1.0361,-1.049,-1.049,-1.0582,-1.0721,-1.0721,-1.0721,-1.0721,-1.0721,-1.0721,-1.0721,-1.0721,-1.0721,-1.0721,-1.0721,-1.0721,-1.0721,-1.0721,-1.0721,-1.0721,-1.0721,-1.0721,-1.0721,-1.0721,-1.0721,-1.0721,-1.0721,-1.0741,-1.0751,-1.0724,-1.0721,-1.0721,-1.0721,-1.0721,-1.0721,-1.0721,-1.0721,-1.0772,-1.0857,-1.0843,-1.0816,-1.0897,-1.0877,-1.0846,-1.0972,-1.087,-1.0894,-1.121,-1.1053,-1.105,-1.1192,-1.1297,-1.1307,-1.1206,-1.1297,-1.1175,-1.0802,-1.0795,-1.086,-1.0917,-1.0856,-1.0921,-1.1227,-1.1043,-1.105,-0.9353,0.0,-0.8689,0.0,-0.8754,-0.8784,0.0,0.0,-0.8801,0.0,0.0,0.0,0.0,0.0,0.0,0.0,0.0,0.0,0.0,0.0,0.0,0.0,0.0,0.0,0.0,0.0,0.0,0.0,0.0,0.0,0.0,-0.875,-0.874,-0.874,-0.874,-0.8872,-0.9207,-0.9231,-0.9327,-0.9612,-0.9754,-0.9832,-0.9849,-0.9849,-0.9998,-1.0249,-1.0273,-1.0361,-1.049,-1.049,-1.0582,-1.0721,-1.0721,-1.0721,-1.0721,-1.0721,-1.0721,-1.0721,-1.0721,-1.0721,-1.0721,-1.0721,-1.0721,-1.0721,-1.0721,-1.0721,-1.0721,-1.0721,-1.0721,-1.0721,-1.0721,-1.0721,-1.0721,-1.0721,-1.0822,-1.0813,-1.0748,-1.0721,-1.0721,-1.0721,-1.0721,-1.0721,-1.0721,-1.0721,-1.0772,-1.0857,-1.0863,-1.0972,-1.1118,-1.1118,-1.1111,-1.1131,-1.1118,-1.1121,-1.1227,-1.1214,-1.1199,-1.1352,-1.1257,-1.1243,-1.1355,-1.1253,-1.1234,-1.1104,-1.1104,-1.1114,-1.1134,-1.1114,-1.1193,-1.1231,-1.1141,-1.1145,-0.9167,-0.875,-0.8321,0.0,-0.8581,-0.8601,-0.8669,0.0,0.0,0.0,0.0,0.0,0.0,0.0,0.0,0.0,0.0,0.0,0.0,0.0,0.0,0.0,0.0,0.0,0.0,0.0,0.0,0.0,0.0,0.0,-0.8584,-0.8581,-0.8581,-0.8581,-0.8665,-0.8771,-0.8903,-0.9125,-0.9364,-0.9612,-0.9754,-0.9822,-0.9822,-0.9822,-0.9897,-1.0022,-1.0022,-1.0107,-1.0243,-1.0243,-1.0382,-1.0592,-1.0592,-1.0643,-1.0721,-1.0721,-1.0721,-1.0721,-1.0721,-1.0721,-1.0721,-1.0721,-1.0721,-1.0721,-1.0721,-1.0721,-1.0721,-1.0721,-1.0721,-1.0721,-1.0721,-1.0721,-1.0721,-1.0721,-1.0769,-1.084,-1.0755,-1.0785,-1.0822,-1.0734,-1.0721,-1.0721,-1.0721,-1.0792,-1.0897,-1.1046,-1.1067,-1.1124,-1.127,-1.1216,-1.1196,-1.128,-1.1212,-1.1233,-1.1402,-1.1341,-1.1355,-1.1508,-1.1457,-1.145,-1.1514,-1.1453,-1.1419,-1.1419,-1.125,-1.1231,-1.1231,-1.1231,-1.1206,-1.129,-1.129,-1.1338,0.0,0.0,-0.8176,-0.8418,-0.8455,-0.8472,0.0,0.0,0.0,0.0,0.0,0.0,0.0,0.0,0.0,0.0,0.0,0.0,0.0,0.0,0.0,0.0,0.0,0.0,0.0,0.0,0.0,0.0,0.0,0.0,-0.8431,-0.8428,-0.8428,-0.8428,-0.854,-0.8635,-0.871,-0.906,-0.9344,-0.9554,-0.9696,-0.9785,-0.9822,-0.9822,-0.9822,-0.9822,-0.9822,-0.9845,-0.9987,-0.9987,-1.0202,-1.0439,-1.0439,-1.0531,-1.0663,-1.0663,-1.0687,-1.0721,-1.0721,-1.0721,-1.0721,-1.0721,-1.0721,-1.0721,-1.0721,-1.0721,-1.0721,-1.0721,-1.0721,-1.0721,-1.0721,-1.0721,-1.0721,-1.0721,-1.0769,-1.085,-1.0802,-1.0769,-1.0799,-1.0792,-1.0778,-1.0792,-1.0826,-1.0928,-1.1053,-1.1199,-1.1219,-1.1277,-1.143,-1.1348,-1.1321,-1.1436,-1.1348,-1.1372,-1.1599,-1.1514,-1.1497,-1.1613,-1.1619,-1.1619,-1.1619,-1.1619,-1.1619,-1.1619,-1.1396,-1.1277,-1.1277,-1.1277,-1.1338,-1.145,-1.145,-1.1511,0.0,-0.876,0.0,-0.835,-0.8384,0.0,0.0,0.0,0.0,0.0,0.0,0.0,0.0,0.0,0.0,0.0,0.0,0.0,0.0,0.0,0.0,0.0,0.0,0.0,0.0,0.0,0.0,0.0,0.0,0.0,-0.834,-0.8333,-0.8333,-0.8333,-0.834,-0.8428,-0.8706,-0.906,-0.9292,-0.9395,-0.9547,-0.969,-0.9822,-0.9822,-0.9822,-0.9822,-0.9822,-0.9845,-0.9987,-0.9987,-1.0144,-1.029,-1.029,-1.0378,-1.0504,-1.0504,-1.0595,-1.0721,-1.0721,-1.0721,-1.0721,-1.0721,-1.0721,-1.0721,-1.0721,-1.0721,-1.0721,-1.0721,-1.0721,-1.0721,-1.0721,-1.0721,-1.0721,-1.0721,-1.0769,-1.088,-1.087,-1.0829,-1.0772,-1.0843,-1.087,-1.0978,-1.1118,-1.1148,-1.1202,-1.1355,-1.1379,-1.1436,-1.1589,-1.1599,-1.1599,-1.1606,-1.1599,-1.1603,-1.1616,-1.1613,-1.1609,-1.1619,-1.1619,-1.1619,-1.1619,-1.1619,-1.1619,-1.1619,-1.1603,-1.1596,-1.1596,-1.1596,-1.1599,-1.1606,-1.1606,-1.1613,0.0,0.0,0.0,-0.8455,-0.8445,-0.8445,0.0,0.0,0.0,0.0,0.0,0.0,0.0,0.0,0.0,0.0,0.0,0.0,0.0,0.0,0.0,0.0,0.0,0.0,0.0,0.0,0.0,0.0,0.0,0.0,-0.8126,-0.8123,-0.8123,-0.8123,-0.8218,-0.8411,-0.8706,-0.906,-0.9238,-0.9296,-0.949,-0.9635,-0.969,-0.9778,-0.9822,-0.9822,-0.9822,-0.9852,-0.9842,-0.9842,-0.9995,-1.0134,-1.0134,-1.028,-1.049,-1.049,-1.0588,-1.0721,-1.0721,-1.0721,-1.0721,-1.0721,-1.0721,-1.0721,-1.0721,-1.0721,-1.0721,-1.0721,-1.0721,-1.0721,-1.0721,-1.0721,-1.0744,-1.0843,-1.084,-1.0975,-1.1067,-1.1043,-1.1023,-1.1077,-1.1087,-1.1101,-1.1224,-1.1243,-1.1328,-1.1382,-1.1474,-1.1558,-1.1613,-1.1619,-1.1619,-1.1619,-1.1619,-1.1619,-1.1619,-1.1619,-1.1657,-1.1748,-1.1755,-1.1799,-1.1898,-1.1827,-1.178,-1.1759,-1.17,-1.1584,-1.1619,-1.1619,-1.1619,-1.1619,-1.1619,-1.167,-0.8927,-0.8859,0.0,0.0,0.0,-0.8509,0.0,0.0,0.0,0.0,0.0,0.0,0.0,0.0,0.0,0.0,0.0,0.0,0.0,0.0,0.0,0.0,0.0,0.0,0.0,0.0,0.0,0.0,0.0,0.0,-0.7988,-0.7988,-0.7988,-0.7988,-0.8235,-0.8435,-0.8632,-0.893,-0.9159,-0.921,-0.9357,-0.951,-0.9612,-0.9707,-0.9774,-0.9822,-0.9822,-0.9822,-0.9822,-0.9822,-0.988,-0.9909,-0.9909,-1.0154,-1.0422,-1.0422,-1.0548,-1.0721,-1.0721,-1.0721,-1.0721,-1.0721,-1.0721,-1.0721,-1.0721,-1.0721,-1.0721,-1.0721,-1.0721,-1.0721,-1.0721,-1.0721,-1.0758,-1.0843,-1.0917,-1.106,-1.1209,-1.1199,-1.1179,-1.1229,-1.124,-1.1257,-1.1307,-1.1399,-1.1467,-1.1467,-1.1555,-1.1619,-1.1619,-1.1619,-1.1636,-1.1684,-1.1647,-1.166,-1.1759,-1.1721,-1.1752,-1.1898,-1.1908,-1.1955,-1.2057,-1.1982,-1.1935,-1.1985,-1.1858,-1.1811,-1.1918,-1.1693,-1.1666,-1.1694,-1.1745,-1.182,0.0,0.0,0.0,0.0,0.0,0.0,0.0,0.0,0.0,0.0,0.0,0.0,0.0,0.0,0.0,0.0,0.0,0.0,0.0,0.0,0.0,0.0,0.0,0.0,0.0,0.0,0.0,0.0,0.0,-0.7988,-0.7988,-0.7988,-0.7988,-0.7988,-0.8326,-0.8482,-0.8482,-0.8784,-0.9008,-0.9204,-0.9207,-0.931,-0.9602,-0.9608,-0.9686,-0.9822,-0.9822,-0.9822,-0.9822,-0.9822,-0.9822,-0.9822,-0.9825,-1.0012,-1.028,-1.0287,-1.047,-1.0721,-1.0721,-1.0721,-1.0721,-1.0721,-1.0721,-1.0721,-1.0721,-1.0721,-1.0721,-1.0721,-1.0721,-1.0721,-1.0724,-1.0727,-1.0765,-1.085,-1.1063,-1.1209,-1.1358,-1.1277,-1.1219,-1.1369,-1.1399,-1.1447,-1.1592,-1.1619,-1.1619,-1.1619,-1.1623,-1.1626,-1.1626,-1.163,-1.1684,-1.1823,-1.1714,-1.1748,-1.2037,-1.1925,-1.1904,-1.2057,-1.2145,-1.2145,-1.2074,-1.1996,-1.1993,-1.2145,-1.2149,-1.2223,-1.2522,-1.1908,-1.1753,-1.1917,-1.207,-1.2145,-0.9361,0.0,0.0,0.0,0.0,0.0,0.0,0.0,0.0,0.0,0.0,0.0,0.0,0.0,0.0,0.0,0.0,0.0,0.0,0.0,0.0,0.0,0.0,0.0,0.0,0.0,0.0,0.0,-0.7988,-0.7988,-0.7988,-0.7988,-0.7988,-0.7988,-0.8326,-0.8482,-0.8482,-0.8784,-0.8902,-0.8998,-0.9103,-0.9313,-0.9449,-0.9557,-0.9686,-0.9822,-0.9822,-0.9822,-0.9822,-0.9822,-0.9822,-0.9832,-0.9879,-1.0107,-1.0293,-1.0395,-1.0555,-1.0721,-1.0721,-1.0721,-1.0721,-1.0721,-1.0721,-1.0721,-1.0721,-1.0721,-1.0721,-1.0721,-1.0721,-1.0748,-1.0789,-1.0816,-1.0921,-1.1067,-1.1219,-1.1341,-1.1382,-1.1447,-1.1504,-1.1548,-1.1555,-1.1569,-1.1613,-1.1619,-1.1619,-1.1619,-1.1708,-1.1772,-1.1772,-1.187,-1.1955,-1.1993,-1.1962,-1.1972,-1.2054,-1.2023,-1.2064,-1.222,-1.2227,-1.2274,-1.2376,-1.2379,-1.2332,-1.2385,-1.2405,-1.2429,-1.2522,-1.2138,-1.2115,-1.2307,-1.2234,-1.2227,-0.9337,-0.9476,-0.9439,0.0,0.0,0.0,-0.8774,-0.8642,0.0,0.0,0.0,0.0,0.0,0.0,0.0,0.0,0.0,0.0,0.0,0.0,0.0,0.0,0.0,0.0,0.0,0.0,0.0,0.0,-0.7988,-0.7988,-0.7988,-0.7988,-0.7988,-0.7988,-0.8326,-0.8482,-0.8482,-0.8784,-0.8885,-0.8885,-0.9025,-0.914,-0.935,-0.9445,-0.9595,-0.9737,-0.9795,-0.9822,-0.9822,-0.9822,-0.9822,-0.9836,-0.9926,-1.0144,-1.0297,-1.0439,-1.0588,-1.0721,-1.0721,-1.0721,-1.0721,-1.0721,-1.0721,-1.0721,-1.0721,-1.0721,-1.0721,-1.0721,-1.0765,-1.0769,-1.0857,-1.0992,-1.1073,-1.1223,-1.1324,-1.1409,-1.147,-1.1555,-1.1619,-1.1619,-1.1619,-1.1619,-1.1619,-1.1619,-1.164,-1.1697,-1.1779,-1.1853,-1.1918,-1.2006,-1.2088,-1.2149,-1.2101,-1.2186,-1.2233,-1.2193,-1.222,-1.2369,-1.2379,-1.2416,-1.2498,-1.2501,-1.2464,-1.2536,-1.2538,-1.2497,-1.2478,-1.2323,-1.2323,-1.2481,-1.2415,-1.2379,-0.8995,-0.9526,-0.9559,-0.9212,0.0,0.0,-0.8862,-0.876,-0.8635,0.0,0.0,0.0,0.0,0.0,0.0,0.0,0.0,0.0,0.0,0.0,0.0,0.0,0.0,0.0,0.0,0.0,-0.7988,-0.7988,-0.7988,-0.7988,-0.7988,-0.7988,-0.7988,-0.7988,-0.8313,-0.8465,-0.8482,-0.8767,-0.8865,-0.8885,-0.8898,-0.9039,-0.9241,-0.9337,-0.949,-0.9639,-0.9768,-0.9822,-0.9822,-0.9822,-0.9832,-0.9863,-0.9953,-1.0168,-1.0321,-1.0463,-1.0602,-1.0721,-1.0721,-1.0721,-1.0721,-1.0721,-1.0721,-1.0721,-1.0721,-1.0721,-1.0721,-1.0721,-1.0829,-1.0884,-1.09,-1.108,-1.1226,-1.1382,-1.1416,-1.1453,-1.1589,-1.1619,-1.1619,-1.1619,-1.1619,-1.1619,-1.1619,-1.1633,-1.1687,-1.1813,-1.186,-1.1932,-1.2067,-1.2176,-1.2162,-1.2298,-1.2193,-1.2216,-1.2478,-1.2386,-1.2369,-1.2491,-1.2501,-1.2501,-1.2501,-1.2501,-1.2501,-1.2501,-1.2501,-1.2501,-1.2501,-1.2501,-1.2501,-1.2501,-1.2501,-1.2501,-0.7738,-0.8879,0.0,0.0,0.0,0.0,-0.9224,-0.9122,-0.8974,0.0,0.0,0.0,0.0,0.0,0.0,0.0,0.0,0.0,0.0,0.0,0.0,0.0,0.0,0.0,0.0,0.0,-0.7988,-0.7988,-0.7988,-0.7988,-0.7988,-0.7988,-0.7988,-0.7988,-0.8218,-0.8367,-0.8479,-0.8662,-0.8818,-0.8885,-0.9055,-0.9191,-0.9344,-0.9496,-0.9642,-0.9781,-0.9808,-0.9822,-0.9822,-0.9822,-0.9893,-0.9957,-1.0175,-1.0324,-1.047,-1.0619,-1.0694,-1.0721,-1.0721,-1.0721,-1.0721,-1.0721,-1.0721,-1.0721,-1.0721,-1.0721,-1.0721,-1.0721,-1.0829,-1.0907,-1.109,-1.1233,-1.1385,-1.1538,-1.1575,-1.1582,-1.1613,-1.1619,-1.1619,-1.1619,-1.1619,-1.1619,-1.1619,-1.1714,-1.1799,-1.1826,-1.204,-1.221,-1.224,-1.2345,-1.2427,-1.2457,-1.2433,-1.2437,-1.2498,-1.2478,-1.2471,-1.2501,-1.2501,-1.2501,-1.2501,-1.2501,-1.2501,-1.2501,-1.2501,-1.2501,-1.2501,-1.2501,-1.2501,-1.2501,-1.2501,-1.2501,0.0,0.0,0.0,-0.6219,0.0,0.0,0.0,-0.8676,-0.9181,0.0,0.0,0.0,0.0,0.0,0.0,0.0,0.0,0.0,0.0,0.0,0.0,0.0,0.0,0.0,0.0,0.0,-0.7988,-0.7988,-0.7988,-0.7988,-0.7988,-0.7988,-0.7988,-0.7988,-0.8258,-0.8411,-0.8482,-0.871,-0.8807,-0.8885,-0.9011,-0.9123,-0.933,-0.9425,-0.9578,-0.972,-0.9791,-0.9822,-0.9822,-0.9822,-0.9958,-1.0171,-1.0249,-1.0368,-1.051,-1.0663,-1.0721,-1.0721,-1.0721,-1.0721,-1.0721,-1.0721,-1.0721,-1.0721,-1.0721,-1.0721,-1.0721,-1.0721,-1.0829,-1.0982,-1.1124,-1.1277,-1.1409,-1.1487,-1.1504,-1.1504,-1.1504,-1.1504,-1.1528,-1.1606,-1.1619,-1.1619,-1.1619,-1.1738,-1.1874,-1.1996,-1.2172,-1.2315,-1.2386,-1.2457,-1.2501,-1.2501,-1.2501,-1.2501,-1.2501,-1.2501,-1.2501,-1.2501,-1.2501,-1.2501,-1.2501,-1.2501,-1.2501,-1.2501,-1.2501,-1.2501,-1.2501,-1.2501,-1.2501,-1.2501,-1.2501,-1.2501,0.0,0.0,0.0,0.0,0.0,-0.6878,0.0,0.0,0.0,0.0,0.0,0.0,0.0,0.0,0.0,0.0,0.0,0.0,0.0,0.0,0.0,0.0,0.0,0.0,0.0,0.0,-0.7988,-0.7988,-0.7988,-0.7988,-0.7988,-0.7988,-0.7988,-0.7988,-0.8303,-0.8455,-0.8482,-0.8757,-0.8854,-0.8885,-0.8912,-0.9055,-0.9258,-0.9354,-0.9507,-0.9656,-0.9771,-0.9822,-0.9822,-0.9822,-1.0002,-1.028,-1.028,-1.0385,-1.0551,-1.0673,-1.0721,-1.0721,-1.0721,-1.0721,-1.0721,-1.0721,-1.0721,-1.0721,-1.0721,-1.0721,-1.0721,-1.0721,-1.0829,-1.0907,-1.109,-1.1233,-1.1355,-1.1385,-1.1392,-1.1399,-1.1426,-1.1436,-1.147,-1.1596,-1.1643,-1.166,-1.166,-1.1779,-1.1952,-1.2182,-1.2284,-1.2372,-1.2488,-1.2501,-1.2501,-1.2501,-1.2501,-1.2501,-1.2501,-1.2501,-1.2501,-1.2501,-1.2501,-1.2501,-1.2501,-1.2501,-1.2501,-1.2501,-1.2501,-1.2501,-1.2501,-1.2501,-1.2501,-1.2501,-1.2501,-1.2501,0.0,0.0,0.0,0.0,-0.4105,0.0,0.0,0.0,0.0,0.0,0.0,0.0,0.0,0.0,0.0,0.0,0.0,0.0,0.0,0.0,0.0,0.0,0.0,0.0,0.0,0.0,0.0,-0.7988,-0.7988,-0.7988,-0.7988,-0.7988,-0.7988,-0.7988,-0.8204,-0.8357,-0.8479,-0.8652,-0.8804,-0.8885,-0.9066,-0.9265,-0.9361,-0.9513,-0.9663,-0.9798,-0.9815,-0.9822,-0.9822,-0.9822,-1.0002,-1.028,-1.028,-1.0449,-1.0697,-1.0714,-1.0721,-1.0721,-1.0721,-1.0721,-1.0721,-1.0721,-1.0721,-1.0721,-1.0721,-1.0721,-1.0721,-1.0721,-1.0829,-1.0884,-1.09,-1.108,-1.1223,-1.1358,-1.1392,-1.1426,-1.1565,-1.1592,-1.1599,-1.1616,-1.1721,-1.1806,-1.1806,-1.1935,-1.2091,-1.2254,-1.2393,-1.2484,-1.2501,-1.2501,-1.2501,-1.2501,-1.2501,-1.2501,-1.2501,-1.2501,-1.2501,-1.2501,-1.2501,-1.2501,-1.2501,-1.2501,-1.2501,-1.2501,-1.2501,-1.2501,-1.2501,-1.2501,-1.2501,-1.2501,-1.2501,-1.2501,0.0,0.0,0.0,0.0,0.0,0.0,-0.3437,0.0,-0.4981,0.0,0.0,0.0,0.0,0.0,0.0,0.0,0.0,0.0,0.0,0.0,0.0,0.0,0.0,0.0,0.0,0.0,0.0,0.0,0.0,-0.7988,-0.7988,-0.7988,-0.7988,-0.7988,-0.8269,-0.8421,-0.8482,-0.8723,-0.8821,-0.8885,-0.8998,-0.9106,-0.9313,-0.9408,-0.9557,-0.9703,-0.9785,-0.9822,-0.9822,-0.9822,-1.0002,-1.028,-1.028,-1.046,-1.0721,-1.0721,-1.0721,-1.0721,-1.0721,-1.0721,-1.0721,-1.0721,-1.0721,-1.0721,-1.0721,-1.0721,-1.0721,-1.0721,-1.0829,-1.088,-1.088,-1.1121,-1.129,-1.1263,-1.1324,-1.1409,-1.1474,-1.1487,-1.1514,-1.1603,-1.1735,-1.186,-1.1948,-1.2094,-1.2244,-1.2389,-1.2464,-1.2501,-1.2501,-1.2501,-1.2501,-1.2501,-1.2501,-1.2501,-1.2501,-1.2501,-1.2501,-1.2501,-1.2501,-1.2583,-1.2762,-1.2596,-1.2501,-1.2501,-1.2501,-1.2501,-1.2501,-1.2501,-1.2501,-1.2501,-1.2501,-1.2501,0.0,0.0,0.0,0.0,0.0,0.0,0.0,0.0,0.0,0.0,0.0,0.0,0.0,0.0,0.0,0.0,0.0,0.0,0.0,0.0,0.0,0.0,0.0,0.0,0.0,0.0,0.0,0.0,-0.7988,-0.7988,-0.7988,-0.7988,-0.7988,-0.7988,-0.8326,-0.8482,-0.8482,-0.8784,-0.8902,-0.8998,-0.8902,-0.9035,-0.9275,-0.933,-0.9466,-0.9615,-0.9758,-0.9822,-0.9822,-0.9822,-1.0002,-1.028,-1.028,-1.046,-1.0721,-1.0721,-1.0721,-1.0721,-1.0721,-1.0721,-1.0721,-1.0721,-1.0721,-1.0721,-1.0721,-1.0751,-1.0782,-1.0782,-1.089,-1.1006,-1.1006,-1.1165,-1.1311,-1.1243,-1.1311,-1.1402,-1.1443,-1.1453,-1.1487,-1.1599,-1.1769,-1.1932,-1.2043,-1.2189,-1.2338,-1.2481,-1.2501,-1.2501,-1.2501,-1.2501,-1.2501,-1.2501,-1.2501,-1.2501,-1.2501,-1.2501,-1.2501,-1.2501,-1.2501,-1.2627,-1.2905,-1.2691,-1.2566,-1.2566,-1.2566,-1.2545,-1.2501,-1.2501,-1.2501,-1.2501,-1.2501,-1.2501,0.0,0.0,0.0,0.0,0.0,0.0,0.0,0.0,-0.0631,0.0,0.0,0.0,0.0,0.0,-0.7597,-0.897,-0.9207,0.0,0.0,0.0,0.0,0.0,0.0,0.0,0.0,0.0,0.0,-0.7988,-0.7988,-0.7988,-0.7988,-0.7988,-0.7988,-0.7988,-0.8326,-0.8482,-0.8482,-0.8784,-0.9008,-0.92,-0.9005,-0.9089,-0.9374,-0.9381,-0.9466,-0.9615,-0.9758,-0.9822,-0.9822,-0.9822,-1.0002,-1.028,-1.028,-1.046,-1.0721,-1.0721,-1.0721,-1.0721,-1.0721,-1.0721,-1.0721,-1.0721,-1.0721,-1.0721,-1.0721,-1.0756,-1.0873,-1.0873,-1.1046,-1.1155,-1.1155,-1.1231,-1.1206,-1.1348,-1.1389,-1.1433,-1.1582,-1.1613,-1.1613,-1.1616,-1.1853,-1.2057,-1.2135,-1.2189,-1.2338,-1.2481,-1.2501,-1.2501,-1.2501,-1.2501,-1.2501,-1.2501,-1.2501,-1.2501,-1.2501,-1.2501,-1.2501,-1.2501,-1.2501,-1.2593,-1.2796,-1.2752,-1.2722,-1.2722,-1.2722,-1.2651,-1.2501,-1.2501,-1.2501,-1.2501,-1.2501,-1.2501,0.0,0.0,0.0,0.0,0.0,0.0,0.0,0.0,0.0,0.0,0.0,0.0,0.0,0.0,-0.7774,-0.9116,-0.9303,-0.9147,0.0,0.0,0.0,0.0,0.0,0.0,0.0,0.0,0.0,-0.7995,-0.7988,-0.7988,0.0,-0.8136,-0.8194,-0.8194,-0.8479,-0.8632,-0.8632,-0.893,-0.9159,-0.921,-0.9208,-0.9232,-0.9296,-0.9439,-0.9507,-0.9473,-0.9717,-0.9822,-0.9822,-0.9822,-1.0002,-1.028,-1.028,-1.046,-1.0721,-1.0721,-1.0721,-1.0721,-1.0721,-1.0721,-1.0721,-1.0721,-1.0721,-1.0741,-1.0843,-1.084,-1.09,-1.1063,-1.1199,-1.129,-1.1189,-1.1314,-1.1453,-1.1402,-1.1467,-1.1555,-1.1609,-1.1619,-1.1619,-1.1619,-1.1857,-1.2135,-1.2135,-1.2267,-1.2447,-1.2494,-1.2501,-1.2501,-1.2501,-1.2501,-1.2501,-1.2501,-1.2501,-1.2501,-1.2501,-1.2501,-1.2559,-1.2691,-1.2576,-1.2712,-1.318,-1.2895,-1.2807,-1.2973,-1.2813,-1.2705,-1.2654,-1.2552,-1.2501,-1.2501,-1.2501,-1.2501,0.0,0.0,0.0,0.0,0.0,0.0,0.0,0.0,0.0,0.0,0.0,0.0,0.0,0.0,-0.6974,-0.8302,-0.8993,-0.9225,0.0,-0.8672,0.0,0.0,0.0,0.0,0.0,0.0,-0.8208,-0.8002,-0.7988,-0.7988,0.0,0.0,-0.8323,-0.8323,-0.8557,-0.871,-0.871,-0.906,-0.9238,-0.9292,-0.9334,-0.9357,-0.932,-0.952,-0.9554,-0.9476,-0.9717,-0.9822,-0.9822,-0.9822,-1.0002,-1.028,-1.028,-1.046,-1.0721,-1.0721,-1.0721,-1.0721,-1.0721,-1.0721,-1.0721,-1.0721,-1.0721,-1.0748,-1.0836,-1.0917,-1.1043,-1.1134,-1.1311,-1.1436,-1.1284,-1.143,-1.1596,-1.1497,-1.1548,-1.1619,-1.1619,-1.1619,-1.1619,-1.1619,-1.1813,-1.1999,-1.2054,-1.2264,-1.2444,-1.2494,-1.2501,-1.2501,-1.2501,-1.2501,-1.2501,-1.2501,-1.2501,-1.2501,-1.2501,-1.2501,-1.2589,-1.279,-1.2664,-1.2796,-1.3275,-1.2983,-1.2888,-1.3047,-1.284,-1.2739,-1.2756,-1.2583,-1.2501,-1.2501,-1.2501,-1.2501]}]]